GFSSGP_con_mlcape_000.txt.gz
CAPE
0 0 0 0 0 0 0 0 0 0 1 140 203 183 211 290 266 138 849 610 239 197 61 159 379 889 1278 1389 1545 1413 1753 1824 1662 1478 1305 1098 873 622 387 302 306 79 99 94 104 347 516 535 375
0 0 0 0 0 0 0 0 0 0 199 88 164 353 377 660 900 936 943 659 478 364 267 222 357 731 1006 1072 1200 1319 1451 1427 1520 1546 1462 1383 1196 1060 931 647 200 54 22 182 301 133 27 54 31
0 0 0 0 0 0 0 0 0 4 19 0 404 474 582 763 1124 1156 1040 893 711 499 455 354 277 568 680 615 694 703 900 1177 1382 1404 1506 1544 1337 1185 1029 453 221 102 174 312 365 460 185 27 5
0 0 0 0 0 0 0 0 0 0 108 275 422 497 757 787 1054 1127 1119 963 924 616 552 452 271 328 538 630 677 691 669 716 936 1418 1569 1490 1372 1127 1141 520 256 328 274 383 641 281 480 31 0
0 0 0 0 0 0 0 0 0 13 81 173 204 380 915 968 1194 1274 1173 1144 1190 692 750 720 597 464 428 602 710 728 931 896 985 1069 1315 1464 1268 968 387 170 385 492 445 531 555 760 358 121 26
0 0 0 0 0 0 0 0 0 0 11 100 103 220 595 1030 1065 1382 1368 1483 1267 949 941 830 742 587 449 436 447 523 707 898 986 848 788 892 1128 1006 934 782 720 511 266 84 40 17 138 0 0
0 0 0 0 0 0 0 0 0 0 0 0 38 208 994 1168 900 1261 1564 1608 1628 1395 1249 1062 1029 766 521 287 306 343 537 814 996 823 627 458 471 680 594 455 401 320 310 322 365 168 15 175 209
0 0 0 0 0 0 0 0 0 0 0 16 116 5 146 1170 1172 1174 1063 1655 1827 1868 1614 1314 1220 900 512 161 351 262 317 636 889 761 503 331 247 148 85 68 112 85 78 93 110 201 252 273 180
0 0 0 0 0 0 0 0 0 0 0 0 63 39 237 1272 1314 1212 959 1008 1337 1755 1978 1643 1538 1215 660 281 529 472 481 492 712 815 552 334 134 34 10 0 0 0 0 0 0 0 1 3 0
0 0 0 0 0 0 0 0 0 0 0 0 281 162 398 1282 1200 956 764 873 666 961 1024 1051 1406 1406 1053 702 770 684 649 638 625 607 666 455 118 4 0 0 0 0 0 0 0 0 0 0 0
0 0 0 0 0 0 0 0 0 0 0 0 6 67 364 975 624 192 559 833 445 178 40 41 82 324 705 623 715 848 664 660 643 439 333 199 34 0 0 0 0 0 0 0 0 0 0 0 0
0 0 0 0 0 0 0 0 0 0 0 0 1 213 661 712 506 393 425 278 35 0 0 0 0 222 238 372 918 824 564 634 387 153 27 0 0 0 0 0 0 0 0 0 0 0 0 0 0
0 0 0 0 0 0 0 0 0 0 0 0 0 30 212 342 143 202 8 4 0 0 0 0 0 0 78 0 0 7 7 108 7 0 0 0 0 0 0 0 0 0 0 0 0 0 0 0 0
0 0 0 0 0 0 0 0 0 0 0 0 0 0 0 0 0 0 0 0 0 0 0 0 0 0 0 0 0 0 0 0 0 0 0 0 0 0 0 0 0 0 0 0 0 0 0 0 0
0 0 0 0 0 0 0 0 0 0 0 0 0 0 0 0 0 0 0 0 0 0 0 0 0 0 0 0 0 0 0 0 0 0 0 0 0 0 0 0 0 0 0 0 0 0 0 0 0
0 0 0 0 0 0 0 0 0 0 0 0 0 0 0 0 0 0 0 0 0 0 0 0 0 0 0 0 0 0 0 0 0 0 0 0 0 0 0 0 0 0 0 0 0 0 0 0 0
0 0 0 0 0 0 0 0 0 0 0 0 0 0 0 0 0 0 0 0 0 0 0 0 0 0 0 0 0 0 0 0 0 0 0 0 0 0 0 0 0 0 0 0 0 0 0 0 0
0 0 0 0 0 0 0 0 0 0 0 0 0 0 0 0 0 0 0 0 0 0 0 0 0 0 0 0 0 0 0 0 0 0 0 0 0 0 0 0 0 0 0 0 0 0 0 0 0
0 0 0 0 0 0 0 0 0 0 0 0 0 0 0 0 0 0 0 0 0 0 0 0 0 0 0 0 0 0 0 0 0 0 0 0 0 0 0 0 0 0 0 0 0 0 0 0 0
0 0 0 0 0 0 0 0 0 0 0 0 0 0 0 0 0 0 0 0 0 0 0 0 0 0 0 0 0 0 0 0 0 0 0 0 0 0 0 0 0 0 0 0 0 0 0 0 0
0 0 0 0 0 0 0 0 0 0 0 0 0 0 0 0 0 0 0 0 0 0 0 0 0 0 0 0 0 0 0 0 0 0 0 0 0 0 0 0 0 0 0 0 0 0 0 0 0
0 0 0 0 0 0 0 0 0 0 0 0 0 0 0 0 0 0 0 0 0 0 0 0 0 0 0 0 0 0 0 0 0 0 0 0 0 0 0 0 0 0 0 0 0 0 0 0 0
0 0 0 0 0 0 0 0 0 0 0 0 0 0 0 0 0 0 0 0 0 0 0 0 0 0 0 0 0 0 0 0 0 0 0 0 0 0 0 0 0 0 0 0 0 0 0 0 0
0 0 0 0 0 0 0 0 0 0 0 0 0 0 0 0 0 0 0 0 0 0 0 0 0 0 0 0 0 0 0 0 0 0 0 0 0 0 0 0 0 0 0 0 0 0 0 0 0
0 0 0 0 0 0 0 0 0 0 0 0 0 0 0 0 0 0 0 0 0 0 0 0 0 0 0 0 0 0 0 0 0 0 0 0 0 0 0 0 0 0 0 0 0 0 0 0 0
0 0 0 0 0 0 0 0 0 0 0 0 0 0 0 0 0 0 0 0 0 0 0 0 0 0 0 0 0 0 0 0 0 0 0 0 0 0 0 0 0 0 0 0 0 0 0 0 0
0 0 0 0 0 0 0 0 0 0 0 0 0 0 0 0 0 0 0 0 0 0 0 0 0 0 0 0 0 0 0 0 0 0 0 0 0 0 0 0 0 0 0 0 0 0 0 0 0
0 0 0 0 0 1 0 0 0 0 0 0 0 0 0 0 0 0 0 0 0 0 0 0 0 0 0 0 0 0 0 0 0 0 0 0 0 0 0 0 0 0 0 0 0 0 0 0 0
0 0 0 0 0 6 7 0 0 0 0 0 0 0 0 0 0 0 0 0 0 0 0 0 0 0 0 0 0 0 0 0 0 0 0 0 0 0 0 0 0 0 0 0 0 0 0 0 0
0 0 0 0 0 0 0 0 0 0 0 0 0 0 0 0 0 0 0 0 0 0 0 0 0 0 0 0 0 0 0 0 0 0 0 0 0 0 0 0 0 0 0 0 0 0 0 0 0

GFSSGP_con_mlcape_006.txt.gz
CAPE
0 0 0 0 0 0 0 0 0 0 7 43 44 15 45 185 92 64 338 298 7 98 469 771 1143 1299 1566 1749 1863 1696 1575 1596 1411 1222 970 972 938 764 939 700 370 268 191 227 450 465 1047 1346 725
0 0 0 0 0 0 0 0 0 5 134 170 196 233 267 234 515 493 295 36 29 112 327 704 940 1118 1301 1582 1949 1920 1913 1828 1725 1617 1440 1272 1119 1049 1024 785 666 399 285 281 418 321 1187 1251 998
0 0 0 0 0 0 0 0 8 124 47 89 294 398 476 562 673 616 322 151 175 119 266 614 832 882 1027 1149 1336 1457 1687 1746 1792 1753 1785 1742 1627 1474 1326 830 329 166 227 200 377 678 726 557 185
0 0 0 0 0 0 0 0 70 107 129 296 411 279 516 555 807 649 366 353 193 131 164 460 371 409 488 526 529 772 1015 1193 1271 1400 1624 1656 1463 1077 832 503 190 400 433 530 746 766 802 694 446
0 0 0 0 0 0 0 0 0 0 32 68 169 212 545 818 791 609 578 360 185 146 202 331 354 366 381 366 319 475 685 861 986 1180 1323 1347 1208 877 384 119 398 480 783 664 508 541 468 590 393
0 0 0 0 0 0 0 0 0 0 0 64 62 88 379 839 688 716 678 410 280 268 338 305 291 319 446 467 399 481 580 712 811 969 1177 1199 916 782 705 652 635 593 633 593 544 445 206 88 40
0 0 0 0 0 0 0 0 0 0 0 0 118 50 466 926 807 853 941 478 459 504 462 341 318 269 257 287 315 389 524 544 541 535 620 638 564 511 377 284 286 199 192 87 95 158 320 344 185
0 0 0 0 0 0 0 0 0 0 0 0 30 8 103 820 994 956 1105 732 666 589 579 564 432 290 137 121 191 269 352 552 549 412 283 194 231 194 113 26 42 23 12 4 0 0 0 0 0
0 0 0 0 0 0 0 0 0 0 0 0 4 11 78 723 941 1081 1266 1075 1002 903 772 733 611 437 59 11 127 152 268 439 517 433 260 108 15 0 0 0 0 0 0 0 0 0 0 0 0
0 0 0 0 0 0 0 0 0 0 0 0 0 11 296 719 875 1202 1378 1292 1195 1159 1091 865 857 695 315 54 131 100 131 253 490 463 206 26 0 0 0 0 0 0 0 0 0 0 0 0 0
0 0 0 0 0 0 0 0 0 0 0 0 0 0 448 756 772 1115 1245 1250 1007 1160 1306 1090 964 864 632 388 186 112 84 102 198 337 182 23 1 0 0 0 0 0 0 0 0 0 0 0 0
0 0 0 0 0 0 0 0 0 0 0 0 0 0 238 681 721 745 841 890 929 1053 1180 1131 740 449 364 379 386 268 214 120 144 93 64 20 0 0 0 0 0 0 0 0 0 0 0 0 0
0 0 0 0 0 0 0 0 0 0 0 0 0 11 149 376 494 527 443 467 504 660 732 202 24 4 32 84 143 169 294 260 164 106 7 0 0 0 0 0 0 0 0 0 0 0 0 0 0
0 0 0 0 0 0 0 0 0 0 0 0 0 0 73 150 64 67 4 7 84 109 106 0 0 0 0 0 0 3 15 13 31 11 0 0 0 0 0 0 0 0 0 0 0 0 0 0 0
0 0 0 0 0 0 0 0 0 0 0 0 0 0 0 0 0 0 0 0 0 0 0 0 0 0 0 0 0 0 0 0 0 0 0 0 0 0 0 0 0 0 0 0 0 0 0 0 0
0 0 0 0 0 0 0 0 0 0 0 0 0 0 0 0 0 0 0 0 0 0 0 0 0 0 0 0 0 0 0 0 0 0 0 0 0 0 0 0 0 0 0 0 0 0 0 0 0
0 0 0 0 0 0 0 0 0 0 0 0 0 0 0 0 0 0 0 0 0 0 0 0 0 0 0 0 0 0 0 0 0 0 0 0 0 0 0 0 0 0 0 0 0 0 0 0 0
0 0 0 0 0 0 0 0 0 0 0 0 0 0 0 0 0 0 0 0 0 0 0 0 0 0 0 0 0 0 0 0 0 0 0 0 0 0 0 0 0 0 0 0 0 0 0 0 0
0 0 0 0 0 0 0 0 0 0 0 0 0 0 0 0 0 0 0 0 0 0 0 0 0 0 0 0 0 0 0 0 0 0 0 0 0 0 0 0 0 0 0 0 0 0 0 0 0
0 0 0 0 0 0 0 0 0 0 0 0 0 0 0 0 0 0 0 0 0 0 0 0 0 0 0 0 0 0 0 0 0 0 0 0 0 0 0 0 0 0 0 0 0 0 0 0 0
0 0 0 0 0 0 0 0 0 0 0 0 0 0 0 0 0 0 0 0 0 0 0 0 0 0 0 0 0 0 0 0 0 0 0 0 0 0 0 0 0 0 0 0 0 0 0 0 0
0 0 0 0 0 0 0 0 0 0 0 0 0 0 0 0 0 0 0 0 0 0 0 0 0 0 0 0 0 0 0 0 0 0 0 0 0 0 0 0 0 0 0 0 0 0 0 0 0
0 0 0 0 0 0 0 0 0 0 0 0 0 0 0 0 0 0 0 0 0 0 0 0 0 0 0 0 0 0 0 0 0 0 0 0 0 0 0 0 0 0 0 0 0 0 0 0 0
0 0 0 0 0 0 0 0 0 0 0 0 0 0 0 0 0 0 0 0 0 0 0 0 0 0 0 0 0 0 0 0 0 0 0 0 0 0 0 0 0 0 0 0 0 0 0 0 0
0 0 0 0 0 0 0 0 0 0 0 0 0 0 0 0 0 0 0 0 0 0 0 0 0 0 0 0 0 0 0 0 0 0 0 0 0 0 0 0 0 0 0 0 0 0 0 0 0
0 0 0 0 0 0 0 0 0 0 0 0 0 0 0 0 0 0 0 0 0 0 0 0 0 0 0 0 0 0 0 0 0 0 0 0 0 0 0 0 0 0 0 0 0 0 0 0 0
0 0 0 0 0 0 0 0 0 0 0 0 0 0 0 0 0 0 0 0 0 0 0 0 0 0 0 0 0 0 0 0 0 0 0 0 0 0 0 0 0 0 0 0 0 0 0 0 0
0 0 0 0 0 0 0 0 0 0 0 0 0 0 0 0 0 0 0 0 0 0 0 0 0 0 0 0 0 0 0 0 0 0 0 0 0 0 0 0 0 0 0 0 0 0 0 0 0
0 0 0 0 0 0 0 0 0 0 0 0 0 0 0 0 0 0 0 0 0 0 0 0 0 0 0 0 0 0 0 0 0 0 0 0 0 0 0 0 0 0 0 0 0 0 0 0 0
0 0 0 0 0 0 0 0 0 0 0 0 0 0 0 0 0 0 0 0 0 0 0 0 0 0 0 0 0 0 0 0 0 0 0 0 0 0 0 0 0 0 0 0 0 0 0 0 0

GFSSGP_con_mlcape_009.txt.gz
CAPE
0 0 0 0 0 0 0 0 0 0 32 36 33 23 42 145 55 26 242 157 31 208 592 886 1050 1234 1336 1510 1480 1377 1409 1367 1184 1234 1252 1125 1006 1130 1003 667 512 439 416 432 515 401 1342 1631 1360
0 0 0 0 0 0 0 0 0 13 113 118 143 182 146 18 383 323 332 113 30 150 477 775 1006 1159 1563 1758 1715 1699 1736 1658 1517 1291 1103 1056 1083 962 774 808 589 436 403 360 592 947 847 862 544
0 0 0 0 0 0 0 0 54 78 1 121 187 265 267 281 422 404 293 35 31 81 408 740 824 1016 1196 1488 1815 1923 1955 1921 1925 1845 1814 1638 1481 1258 1189 802 319 300 422 592 820 841 1002 831 609
0 0 0 0 0 0 0 1 91 45 98 260 182 85 366 435 557 575 143 142 84 62 284 494 640 817 907 1022 1162 1333 1414 1447 1523 1700 1706 1637 1462 1123 790 483 295 548 693 919 849 995 799 915 699
0 0 0 0 0 0 0 0 5 0 32 111 128 108 270 698 678 407 361 280 54 47 251 437 321 358 445 510 511 522 596 753 900 1020 1059 1105 945 527 216 109 305 627 794 754 687 471 251 117 35
0 0 0 0 0 0 0 0 0 0 24 42 57 84 261 596 537 476 433 165 87 24 140 276 334 344 298 283 312 370 477 526 540 600 830 930 761 647 544 499 452 394 227 153 198 362 455 448 440
0 0 0 0 0 0 0 0 0 0 0 0 68 2 314 551 642 640 500 195 179 203 142 258 305 259 243 196 167 266 352 384 366 367 410 400 404 327 179 117 137 96 57 33 18 42 82 68 8
0 0 0 0 0 0 0 0 0 0 0 0 47 0 60 571 714 752 703 298 287 312 302 283 302 232 124 158 99 148 212 305 291 209 113 64 82 54 13 0 0 0 0 0 0 0 0 0 0
0 0 0 0 0 0 0 0 0 0 0 0 0 12 26 794 760 904 999 483 486 460 501 508 410 287 117 46 143 120 194 331 337 280 105 54 55 10 0 0 0 0 0 0 0 0 0 0 0
0 0 0 0 0 0 0 0 0 0 0 0 0 0 240 818 946 1071 1146 900 843 772 775 681 637 592 246 13 173 188 203 444 640 592 364 155 57 1 0 0 0 0 0 0 0 0 0 0 0
0 0 0 0 0 0 0 0 0 0 0 0 0 0 325 803 1027 1146 1267 1137 929 1023 1083 857 873 833 530 232 235 216 163 240 329 508 444 157 44 11 0 0 0 0 0 0 0 0 0 0 0
0 0 0 0 0 0 0 0 0 0 0 0 0 4 239 584 765 1080 1234 1267 1113 1131 1305 1301 1028 891 780 622 527 337 309 244 290 289 269 246 109 6 0 0 0 0 0 0 0 0 0 0 0
0 0 0 0 0 0 0 0 0 0 0 0 0 3 149 382 490 865 1097 1187 1065 1047 1165 1359 1198 662 189 83 272 363 361 343 381 316 217 128 52 0 0 0 0 0 0 0 0 0 0 0 0
0 0 0 0 0 0 0 0 0 0 0 0 0 0 42 210 465 453 477 651 546 624 818 843 339 13 3 0 24 77 167 286 238 245 237 114 25 0 0 0 0 0 0 0 0 0 0 0 0
0 0 0 0 0 0 0 0 0 0 0 0 0 0 0 129 416 374 274 79 3 105 137 254 0 0 0 0 0 0 0 0 0 1 18 15 1 0 0 0 0 0 0 0 0 0 0 0 0
0 0 0 0 0 0 0 0 0 0 0 0 0 0 0 0 10 0 0 0 0 0 0 0 0 0 0 0 0 0 0 0 0 0 0 0 0 0 0 0 0 0 0 0 0 0 0 0 0
0 0 0 0 0 0 0 0 0 0 0 0 0 0 0 0 0 0 0 0 0 0 0 0 0 0 0 0 0 0 0 0 0 0 0 0 0 0 0 0 0 0 0 0 0 0 0 0 0
0 0 0 0 0 0 0 0 0 0 0 0 0 0 0 0 0 0 0 0 0 0 0 0 0 0 0 0 0 0 0 0 0 0 0 0 0 0 0 0 0 0 0 0 0 0 0 0 0
0 0 0 0 0 0 0 0 0 0 0 0 0 0 0 0 0 0 0 0 0 0 0 0 0 0 0 0 0 0 0 0 0 0 0 0 0 0 0 0 0 0 0 0 0 0 0 0 0
0 0 0 0 0 0 0 0 0 0 0 0 0 0 0 0 0 0 0 0 0 0 0 0 0 0 0 0 0 0 0 0 0 0 0 0 0 0 0 0 0 0 0 0 0 0 0 0 0
0 0 0 0 0 0 0 0 0 0 0 0 0 0 0 0 0 0 0 0 0 0 0 0 0 0 0 0 0 0 0 0 0 0 0 0 0 0 0 0 0 0 0 0 0 0 0 0 0
0 0 0 0 0 0 0 0 0 0 0 0 0 0 0 0 0 0 0 0 0 0 0 0 0 0 0 0 0 0 0 0 0 0 0 0 0 0 0 0 0 0 0 0 0 0 0 0 0
0 0 0 0 0 0 0 0 0 0 0 0 0 0 0 0 0 0 0 0 0 0 0 0 0 0 0 0 0 0 0 0 0 0 0 0 0 0 0 0 0 0 0 0 0 0 0 0 0
0 0 0 0 0 0 0 0 0 0 0 0 0 0 0 0 0 0 0 0 0 0 0 0 0 0 0 0 0 0 0 0 0 0 0 0 0 0 0 0 0 0 0 0 0 0 0 0 0
0 0 0 0 0 0 0 0 0 0 0 0 0 0 0 0 0 0 0 0 0 0 0 0 0 0 0 0 0 0 0 0 0 0 0 0 0 0 0 0 0 0 0 0 0 3 5 5 2
0 0 0 0 0 0 0 0 0 0 0 0 0 0 0 0 0 0 0 0 0 0 0 0 0 0 0 0 0 0 0 0 0 0 0 0 0 0 0 0 0 0 0 0 0 0 0 0 2
0 0 0 0 0 0 0 0 0 0 0 0 0 0 0 0 0 0 0 0 0 0 0 0 0 0 0 0 0 0 0 0 0 0 0 0 0 0 0 0 0 0 0 0 0 0 0 0 0
0 0 0 0 0 0 0 0 0 0 0 0 0 0 0 0 0 0 0 0 0 0 0 0 0 0 0 0 0 0 0 0 0 0 0 0 0 0 0 0 0 0 0 0 1 8 10 2 3
0 0 0 0 0 0 0 0 0 0 0 0 0 0 0 0 0 0 0 0 0 0 0 0 0 0 0 0 0 0 0 0 0 0 0 0 0 0 0 0 0 0 0 0 3 6 7 1 0
0 0 0 0 0 0 0 0 0 0 0 0 0 0 0 0 0 0 0 0 0 0 0 0 0 0 0 0 0 0 0 0 0 0 0 0 0 0 0 0 0 0 0 2 0 0 0 0 0

GFSSGP_con_mlcape_012.txt.gz
CAPE
0 0 0 0 0 0 0 0 0 26 27 81 50 27 91 224 157 230 349 217 44 286 730 940 983 1233 1300 1303 1234 1199 1195 1157 1401 1426 1212 1184 1291 1150 887 704 545 477 521 573 757 906 1479 1350 984
0 0 0 0 0 0 0 0 0 17 73 68 85 114 62 46 208 300 283 129 60 312 683 969 957 1289 1539 1512 1495 1584 1698 1534 1367 1276 1270 1278 1248 1141 1101 792 514 544 653 739 823 1122 1262 1047 660
0 0 0 0 0 0 0 0 20 79 65 138 153 219 227 114 257 284 206 36 17 200 492 765 837 1013 1412 1631 1687 1759 1699 1651 1577 1589 1599 1502 1344 1105 962 662 359 525 826 1079 1154 1343 1225 921 630
0 0 0 0 0 0 0 0 0 56 173 180 42 64 238 458 418 393 251 103 0 56 264 450 613 743 867 956 1049 1166 1283 1333 1398 1488 1558 1488 1293 943 365 201 314 443 705 690 688 586 471 451 446
0 0 0 0 0 0 0 4 52 25 87 193 157 126 230 625 662 421 408 205 47 54 215 234 361 358 347 403 459 581 664 687 789 958 1024 1035 625 398 350 314 481 582 550 433 495 436 295 194 337
0 0 0 0 0 0 0 0 0 0 8 65 74 81 229 662 468 434 376 139 33 70 213 160 74 139 227 211 172 220 268 298 414 595 727 649 478 335 284 248 224 192 96 96 148 356 428 342 193
0 0 0 0 0 0 0 0 0 0 0 0 19 21 252 544 383 399 162 62 59 46 92 265 276 261 110 101 116 206 286 257 215 245 261 235 222 131 64 48 73 56 26 7 1 2 6 2 0
0 0 0 0 0 0 0 0 0 0 0 68 38 0 31 292 528 483 231 127 158 272 249 469 612 468 511 388 0 45 145 212 181 116 29 7 20 3 0 0 0 0 0 0 0 0 0 0 0
0 0 0 0 0 0 0 0 0 0 0 0 0 3 49 434 684 650 506 354 424 582 776 882 855 742 571 343 305 38 33 152 112 258 97 166 278 252 39 0 0 0 0 0 0 0 0 0 0
0 0 0 0 0 0 0 0 0 0 0 0 0 14 330 745 831 891 841 471 741 802 1020 1186 1244 1121 825 136 493 497 449 492 734 814 915 559 575 388 6 0 0 0 0 0 0 0 0 0 0
0 0 0 0 0 0 0 0 0 0 0 0 0 0 346 746 891 874 707 106 304 683 1048 1270 1560 1550 1143 376 326 235 232 341 534 1036 1099 755 642 432 258 115 0 0 0 0 0 0 0 0 0
0 0 0 0 0 0 0 0 0 0 0 0 0 0 86 434 410 267 269 122 107 491 1097 1500 1631 1683 1520 602 301 276 282 302 400 521 1099 848 516 368 272 0 0 0 0 0 0 0 0 0 0
0 0 0 0 0 0 0 0 0 0 0 0 0 0 0 26 63 169 128 87 350 938 1357 1795 1937 1808 1090 720 283 474 517 319 496 460 400 731 351 143 47 0 0 0 0 0 0 0 0 0 0
0 0 0 0 0 0 0 0 0 0 0 0 0 0 0 2 0 36 262 374 785 1055 1260 1818 2049 1682 399 133 321 204 257 211 257 76 50 367 347 29 0 0 0 0 0 0 0 0 0 0 0
0 0 0 0 0 0 0 0 0 0 0 0 0 0 0 0 0 5 46 399 716 693 876 1497 1661 693 227 88 24 2 0 3 0 0 22 67 104 29 23 0 0 0 0 0 0 0 0 0 0
0 0 0 0 0 0 0 0 0 0 0 0 0 0 0 0 42 226 579 412 101 89 315 874 710 219 117 13 1 1 0 1 0 0 0 4 11 19 0 0 0 0 0 0 0 0 0 0 0
0 0 0 0 0 0 0 0 0 0 0 0 0 0 0 0 175 63 0 0 0 0 41 455 479 77 24 9 4 10 18 13 0 0 0 0 0 1 2 0 0 0 0 0 0 0 0 0 0
0 0 0 0 0 0 0 0 0 0 0 0 0 0 0 0 0 0 0 0 0 0 64 291 136 26 8 0 0 0 0 0 0 0 0 0 0 0 0 0 0 0 0 0 0 0 0 0 0
0 0 0 0 0 0 0 0 0 0 0 0 0 0 0 0 0 0 0 0 0 0 2 4 0 0 0 0 0 0 0 0 0 0 0 0 0 0 0 0 0 0 0 0 0 0 0 0 0
0 0 0 0 0 0 0 0 0 0 0 0 0 0 0 0 0 0 0 0 0 0 0 0 0 0 0 0 0 0 0 0 0 0 0 0 0 0 0 0 0 0 0 0 0 0 0 0 0
0 0 0 0 0 0 0 0 0 0 0 0 0 0 0 0 0 0 0 0 0 0 0 0 0 0 0 0 0 0 0 0 0 0 0 0 0 0 0 0 0 0 0 0 0 0 0 0 2
0 0 0 0 0 0 0 0 0 0 0 0 0 0 0 0 0 0 0 0 0 0 0 0 0 0 0 0 0 0 0 0 0 0 0 0 0 0 0 0 0 0 0 0 0 0 0 0 0
0 0 0 0 0 0 0 0 0 0 0 0 0 0 0 0 0 0 0 0 0 0 0 0 0 0 0 0 0 0 0 0 0 0 0 0 0 0 0 0 0 0 0 0 0 0 0 0 7
0 0 0 0 0 0 0 0 0 0 0 0 0 0 0 0 0 0 0 0 0 0 0 0 0 0 0 0 0 0 0 0 0 0 0 0 0 0 0 0 0 0 0 0 0 1 2 1 0
0 0 0 0 0 0 0 0 0 0 0 0 0 0 0 0 0 0 0 0 0 0 0 0 0 0 0 0 0 0 0 0 0 0 0 0 0 0 0 0 0 0 1 2 3 0 0 0 0
0 0 0 0 0 0 0 0 0 0 0 0 0 0 0 0 0 0 0 0 0 0 0 0 0 0 0 0 0 0 0 0 0 0 0 0 0 0 0 0 4 6 7 8 13 2 5 2 1
0 0 0 0 0 0 0 0 0 0 0 0 0 0 0 0 0 0 0 0 0 0 0 0 0 0 0 0 0 0 0 0 0 0 0 0 0 0 1 7 12 13 7 1 2 5 7 10 6
0 0 0 0 0 0 0 0 0 0 0 0 0 0 0 0 0 0 0 0 0 0 0 0 0 0 0 0 0 0 0 0 0 0 0 0 0 7 4 5 4 4 0 1 2 5 3 10 14
0 0 0 0 0 0 0 0 0 0 0 0 0 0 0 0 0 0 0 0 0 0 0 0 0 0 0 0 0 0 0 0 0 0 0 1 4 0 1 1 3 7 4 3 3 7 5 1 0
0 0 0 0 0 0 0 0 0 0 0 0 0 0 0 0 3 1 0 0 0 0 0 0 0 0 0 0 0 0 0 0 1 5 4 9 12 16 13 12 6 3 4 14 1 2 1 0 0

GFSSGP_con_mlcape_015.txt.gz
CAPE
0 0 0 0 0 0 0 1 11 4 2 0 0 4 1 75 207 215 99 13 208 610 647 823 957 1087 1087 1037 1083 1172 1158 1250 1266 1177 1195 1276 1161 1076 889 642 484 507 619 716 883 1162 1363 1149 842
0 0 0 0 0 0 0 0 20 24 0 0 0 6 0 20 130 183 33 34 232 568 747 911 981 1210 1283 1294 1381 1456 1332 1085 1023 1139 1259 1267 1198 1126 851 606 566 702 868 1108 1170 1125 1256 844 601
0 0 0 0 0 0 0 0 21 0 0 18 0 9 50 55 90 96 1 19 138 312 601 688 814 1249 1419 1444 1512 1574 1470 1369 1393 1435 1410 1305 1189 1035 768 502 424 573 869 979 1065 1109 975 916 795
0 0 0 0 0 0 0 21 17 0 8 25 0 7 179 160 140 76 4 0 42 113 286 481 605 693 861 986 1100 1176 1110 1140 1255 1324 1330 1275 1058 498 196 220 376 613 767 777 698 439 245 128 100
0 0 0 0 0 0 14 11 8 52 32 1 0 0 170 399 234 80 16 0 0 0 18 237 188 192 311 314 328 376 469 573 740 921 1054 880 532 384 330 357 368 242 180 223 330 430 441 448 380
0 0 0 0 0 0 0 0 0 6 1 0 4 31 240 348 162 121 14 0 0 0 28 0 0 54 76 41 82 163 230 310 424 665 748 534 307 204 162 144 102 59 15 7 23 73 92 89 50
0 0 0 0 0 0 0 0 0 0 0 0 0 1 132 155 136 22 0 0 0 0 39 60 60 101 0 0 9 52 65 82 111 128 111 87 33 4 2 1 0 0 0 0 0 0 0 0 0
0 0 0 0 0 0 0 0 0 0 0 0 0 0 54 128 46 0 0 0 0 16 190 239 279 208 341 403 0 8 24 64 41 18 0 0 57 26 0 0 0 0 0 0 0 0 0 0 0
0 0 0 0 0 0 0 0 0 0 0 0 0 0 21 185 115 9 0 3 138 216 461 393 384 259 116 33 127 18 24 29 69 234 199 199 314 213 91 0 0 0 0 0 0 0 0 0 0
0 0 0 0 0 0 0 0 0 0 0 0 0 0 112 231 121 71 19 47 178 336 427 514 847 495 213 0 108 138 80 261 326 428 609 391 418 322 96 2 0 0 0 0 0 0 0 0 0
0 0 0 0 0 0 0 0 0 0 0 0 0 0 114 179 233 223 165 46 72 314 188 489 1510 1141 397 64 6 45 61 114 232 522 649 335 417 326 178 55 38 26 2 2 0 1 0 0 0
0 0 0 0 0 0 0 0 0 0 0 0 0 0 27 118 205 229 198 7 15 91 203 451 1382 1571 875 182 21 32 51 147 129 292 347 164 101 59 13 1 0 0 0 0 0 0 0 1 0
0 0 0 0 0 0 0 0 0 0 0 0 0 0 0 58 70 9 42 58 31 132 245 461 1024 1998 754 350 32 99 141 188 248 194 79 76 35 0 0 0 0 0 0 0 0 0 0 0 0
0 0 0 0 0 0 0 0 0 0 0 0 0 0 0 0 1 5 46 98 158 255 326 462 993 1929 774 25 67 88 164 125 95 6 0 9 41 29 15 3 0 0 0 0 0 0 0 0 0
0 0 0 0 0 0 0 0 0 0 0 0 0 0 0 0 0 5 13 117 131 221 321 713 1260 1757 582 70 33 9 0 0 0 0 0 3 30 22 24 1 12 0 0 0 0 0 0 1 0
0 0 0 0 0 0 0 0 0 0 0 0 0 0 0 0 0 1 0 27 99 108 111 345 1246 1447 507 12 7 2 0 0 3 7 5 2 16 10 17 0 0 3 5 3 0 0 0 1 1
0 0 0 0 0 0 0 7 0 0 0 0 0 0 0 0 0 5 164 53 3 0 0 163 1172 946 243 40 15 24 19 18 12 8 0 0 0 0 0 0 0 10 0 9 3 0 0 0 0
0 0 0 0 0 0 0 0 0 0 0 0 0 0 0 0 2 58 0 0 0 0 69 347 932 436 116 33 10 0 0 0 0 0 0 0 0 0 0 0 0 0 0 0 0 0 0 0 0
0 0 0 0 0 0 0 0 0 0 0 0 0 0 0 0 0 0 0 0 0 25 146 326 119 0 0 0 0 0 0 0 0 0 0 0 0 0 0 0 0 0 0 0 0 0 0 0 26
0 0 0 0 0 0 0 0 0 0 0 0 0 0 0 0 0 0 0 0 0 0 0 0 0 0 0 0 0 0 0 0 0 1 0 0 0 0 0 0 0 0 0 0 0 0 0 0 9
0 0 0 0 0 0 0 0 0 0 0 0 0 0 0 0 0 0 0 0 0 0 0 0 0 0 0 0 0 0 0 0 0 0 0 0 0 0 0 0 0 0 0 0 0 0 0 0 0
0 0 0 0 0 1 0 31 0 0 0 0 0 0 0 0 0 0 0 0 0 0 0 0 0 0 0 0 0 0 0 0 0 0 0 0 0 0 0 0 0 0 0 0 0 0 3 2 0
0 0 0 0 0 0 0 0 0 0 0 0 0 0 0 0 0 0 0 0 0 0 0 0 0 0 0 0 0 0 0 0 0 0 0 0 0 0 0 0 0 0 0 0 0 0 4 7 8
0 0 0 0 0 0 1 0 52 0 0 0 0 0 0 0 0 0 0 0 0 0 0 0 0 0 0 0 0 0 0 0 0 0 0 0 0 0 0 0 0 0 0 7 9 7 0 3 2
0 0 3 28 7 64 0 0 15 0 0 0 0 0 0 0 0 0 0 0 0 0 0 0 0 0 0 0 0 0 0 0 0 0 0 0 0 0 0 0 0 2 10 10 7 4 1 2 1
0 0 3 0 0 5 0 0 6 0 0 0 0 0 0 0 0 0 0 0 0 0 0 0 0 0 0 1 1 0 0 0 0 0 0 0 0 0 0 2 15 12 15 0 0 0 0 0 1
0 0 0 0 0 0 0 1 0 0 0 0 0 0 0 0 0 0 0 5 1 0 0 0 0 0 0 0 1 1 0 0 0 0 0 0 0 0 5 5 10 2 0 0 5 3 1 8 7
0 0 0 0 0 0 2 0 30 2 2 0 5 6 4 1 4 7 9 9 3 0 0 0 0 1 5 4 7 5 4 1 0 0 0 0 3 8 8 21 8 2 2 1 1 4 7 19 20
0 1 0 0 0 0 0 0 0 2 0 0 0 0 2 11 13 18 16 10 7 11 8 4 3 5 2 2 0 1 0 0 0 2 8 9 12 9 17 11 18 16 5 8 11 11 12 5 4
0 0 0 0 0 0 0 0 0 0 0 0 0 11 0 5 19 16 14 5 6 2 1 0 0 0 0 0 0 0 1 5 12 7 6 4 10 9 18 20 3 8 14 14 16 12 14 10 11

GFSSGP_con_mlcape_018.txt.gz
CAPE
0 0 0 0 0 0 0 3 18 0 0 0 0 0 0 31 189 58 13 263 515 511 704 781 892 924 903 935 976 944 1054 1124 1069 1100 1102 981 957 878 645 523 540 671 901 1060 1029 1243 1217 898 616
0 0 0 0 0 0 0 3 3 0 0 0 1 13 0 14 42 3 56 336 502 749 763 941 983 1028 1038 1129 1170 1087 997 957 934 1025 1067 1029 1046 842 608 508 520 686 920 998 1086 1212 1105 776 653
0 0 0 0 0 0 0 6 0 0 0 22 0 27 11 25 0 0 32 205 351 582 650 828 1020 1090 1154 1230 1240 1131 1083 1090 1179 1272 1344 1192 1028 607 328 288 336 620 792 814 713 496 309 253 216
0 0 0 0 0 0 0 15 0 0 0 23 13 47 46 11 0 0 4 69 113 321 390 418 568 726 784 820 903 908 938 963 1056 1103 1067 861 434 161 179 349 462 370 293 328 319 261 215 230 236
0 0 0 0 1 6 15 1 0 2 5 0 19 60 121 44 0 0 0 0 0 67 159 159 141 147 158 193 206 220 280 379 531 600 483 327 253 202 124 90 45 18 4 7 47 70 70 47 16
0 0 0 0 0 0 0 0 3 48 1 0 33 65 185 52 0 0 0 0 0 5 0 0 0 0 0 4 36 54 76 114 275 369 278 145 61 36 26 17 1 0 0 0 0 0 0 0 0
0 0 0 0 0 0 0 0 0 1 0 0 1 46 122 66 0 0 0 0 0 0 0 0 0 0 0 0 0 1 7 7 15 24 21 3 0 0 0 0 0 0 0 0 0 0 0 0 0
0 0 0 0 0 0 0 0 0 0 0 0 0 29 68 89 0 0 0 0 0 0 52 100 188 253 127 3 0 0 0 0 0 3 0 4 42 16 0 1 0 0 0 0 0 0 0 0 0
0 0 0 0 0 0 0 0 0 0 0 0 0 0 93 52 0 0 0 0 0 68 234 162 86 53 274 192 0 11 2 14 73 168 135 100 220 200 20 0 0 0 0 0 0 0 0 0 0
0 0 0 0 0 0 0 0 0 0 0 0 0 155 189 56 10 0 0 0 74 222 281 400 250 97 21 0 68 312 215 316 387 467 452 487 262 271 106 26 0 0 0 0 0 0 0 0 0
0 0 0 0 0 0 0 0 0 0 0 0 0 146 233 121 11 0 0 0 63 113 205 609 842 446 212 40 0 125 171 100 450 723 396 361 178 195 55 26 58 0 0 6 0 2 0 8 0
0 0 0 0 0 0 0 0 0 0 0 0 0 11 191 106 37 64 40 28 11 212 85 1043 1114 1000 450 174 13 28 196 58 284 166 275 91 59 29 0 0 0 0 0 0 0 0 0 0 3
0 0 0 0 0 0 0 0 0 0 0 0 0 0 59 21 80 99 118 22 17 74 114 291 1102 1441 698 122 73 98 125 326 102 158 63 43 37 6 0 0 0 0 0 0 0 0 0 0 0
0 0 0 0 0 0 0 0 0 0 0 0 0 0 1 46 90 48 67 79 41 105 226 481 1008 1652 825 38 57 85 232 192 173 12 0 6 23 35 18 0 0 0 0 0 0 0 0 0 0
0 0 0 0 0 0 0 0 0 0 0 0 0 0 0 0 22 23 42 159 101 229 236 411 289 1477 666 33 33 24 14 0 0 0 0 4 10 7 15 17 6 21 23 15 0 0 0 0 0
0 0 0 0 0 0 0 0 0 0 0 0 0 0 0 4 6 31 63 82 56 102 55 388 921 1538 823 106 25 12 13 2 1 1 8 0 0 11 6 21 16 30 30 26 28 17 1 0 0
0 0 1 0 0 0 0 0 0 0 0 0 0 0 0 0 11 26 15 67 42 0 2 35 1181 1221 783 74 26 23 24 23 40 0 0 0 0 0 0 0 0 2 2 0 0 0 0 1 0
0 0 0 0 0 0 0 0 0 0 0 0 0 0 0 0 14 150 12 0 0 7 56 259 699 383 109 26 8 1 1 0 0 0 0 0 0 0 0 0 0 0 0 0 0 0 0 0 1
0 0 0 1 0 0 0 0 0 0 0 0 0 0 0 6 0 0 0 0 2 79 95 192 11 0 0 0 0 0 0 0 0 0 1 0 0 0 0 0 0 0 0 0 0 0 0 0 0
0 0 0 0 0 0 0 0 0 0 0 0 0 0 0 0 0 0 0 0 0 0 0 0 0 0 0 0 0 0 0 0 0 0 0 0 0 0 0 0 0 0 0 0 0 0 0 0 0
0 0 0 0 0 0 0 0 0 0 0 0 0 0 0 0 0 0 0 0 0 0 0 0 0 0 0 0 0 0 0 0 0 0 0 0 0 0 0 0 0 0 0 0 0 0 0 0 0
0 0 0 0 0 0 0 0 0 0 0 0 0 0 0 0 0 0 0 0 0 0 0 0 0 0 0 0 0 0 0 0 0 0 0 0 0 0 0 0 0 0 0 0 0 1 0 1 0
0 0 0 0 0 0 0 5 27 0 0 0 0 0 0 0 0 0 0 0 0 0 0 0 0 0 0 0 0 0 0 0 0 0 0 0 0 0 0 0 0 0 0 0 12 4 0 0 0
0 0 0 0 0 7 3 44 12 0 0 0 0 0 0 0 0 0 0 0 0 0 0 0 0 0 0 0 0 0 0 0 0 0 0 0 0 0 0 0 0 1 7 0 0 0 0 0 0
0 0 20 64 42 46 33 0 58 0 0 0 0 0 0 0 0 0 0 0 0 0 0 0 0 0 0 0 2 0 0 0 0 0 0 0 0 0 0 1 1 1 0 0 0 0 0 0 0
0 0 11 0 18 11 0 0 0 0 0 0 0 0 0 0 0 0 0 0 0 0 0 3 0 0 0 0 0 0 0 0 0 0 0 0 0 0 0 0 8 0 0 1 4 1 0 2 1
1 0 0 0 0 0 0 67 6 0 0 0 0 0 1 1 6 18 6 0 4 0 0 0 0 0 0 0 0 0 0 0 0 0 0 0 0 0 0 0 6 0 10 4 4 0 0 0 21
0 0 0 0 0 0 0 1 30 14 3 0 0 0 0 0 11 3 2 1 0 0 6 2 0 0 0 0 0 0 0 0 0 0 1 0 0 0 0 6 13 12 5 3 2 10 0 5 4
0 1 0 0 0 0 0 0 0 0 2 0 0 0 2 2 0 0 0 0 0 0 0 0 0 0 0 0 0 0 0 0 1 2 0 0 0 0 1 14 11 16 13 10 4 1 3 2 0
0 0 0 0 0 0 0 0 0 0 0 0 0 0 0 0 0 0 0 0 2 2 0 0 0 0 0 0 0 0 0 0 6 0 0 0 0 0 10 15 13 9 21 24 26 13 27 20 9

GFSSGP_con_mlcape_021.txt.gz
CAPE
0 0 0 0 0 0 0 0 0 0 0 0 0 16 8 12 10 6 362 418 382 434 650 678 667 710 789 761 789 831 845 892 904 843 796 793 638 461 385 415 523 589 642 833 1000 1007 1016 809 666
0 0 0 0 0 0 0 0 0 0 0 13 1 0 0 0 18 171 301 548 616 608 701 725 756 854 914 878 804 748 793 864 884 861 862 812 686 489 359 271 277 419 582 616 419 338 214 190 137
0 0 0 0 0 0 0 0 0 0 0 5 2 0 0 0 3 211 510 607 545 592 717 805 861 939 963 911 875 901 964 969 991 1025 992 681 348 177 108 157 258 267 245 192 139 91 58 71 98
0 0 0 0 0 1 2 0 0 0 0 0 0 0 0 0 40 96 302 232 247 451 644 743 702 732 720 704 668 645 665 705 711 646 415 257 163 121 126 90 40 32 32 54 68 38 7 0 0
0 0 0 0 0 0 0 0 0 0 2 6 0 0 0 0 0 19 105 6 4 83 198 282 265 218 223 173 139 113 129 157 200 149 132 93 69 38 17 4 0 0 0 0 0 0 0 0 0
0 0 0 0 0 0 0 0 25 5 0 62 43 2 0 0 0 0 0 0 0 0 0 0 0 0 0 0 0 0 11 56 77 52 21 1 0 0 0 0 0 0 0 0 0 0 0 0 0
0 0 0 0 0 0 0 0 0 0 0 56 43 27 0 0 0 0 0 0 0 0 0 0 0 0 0 0 0 0 0 0 0 0 0 0 0 0 0 0 0 0 0 0 0 0 0 0 0
0 0 0 0 0 0 0 0 0 0 0 15 38 80 32 0 0 0 0 0 0 0 0 0 0 0 0 0 0 0 0 0 0 0 0 2 14 0 0 0 0 0 0 0 0 0 0 0 0
0 0 0 0 0 0 0 0 0 0 0 0 5 94 25 0 0 0 0 0 0 1 6 43 10 3 0 0 0 0 0 3 43 53 24 30 60 54 2 3 0 0 0 0 0 0 0 0 0
0 0 0 0 0 0 0 0 0 0 0 9 73 90 3 0 0 0 0 0 15 116 104 54 10 82 51 0 0 0 6 63 177 216 181 165 102 151 58 0 0 0 0 0 0 0 0 0 0
0 0 0 0 0 0 0 0 0 0 0 0 135 65 0 0 0 0 0 6 33 173 235 90 8 9 25 16 4 75 79 181 337 346 121 31 123 15 0 1 0 0 0 0 0 0 0 0 0
0 0 0 0 0 0 0 0 0 0 0 0 203 164 60 19 0 0 0 0 105 210 306 340 41 9 110 0 0 0 29 94 208 203 29 14 7 0 0 0 0 0 0 0 0 0 0 0 0
0 0 0 0 0 0 0 0 0 0 0 0 199 182 98 21 5 4 0 10 57 158 439 611 300 38 42 0 9 27 147 44 47 43 16 0 14 0 0 0 0 0 0 0 0 0 0 0 0
0 0 0 0 0 0 0 0 0 0 0 0 39 116 68 28 34 49 47 21 79 68 500 939 907 753 358 109 30 105 130 45 68 0 0 0 0 5 1 0 0 0 0 0 0 0 0 0 0
0 0 0 0 0 0 0 0 0 0 0 0 0 2 0 15 56 102 65 49 77 24 436 667 250 1 214 39 17 26 111 0 0 0 0 0 0 0 0 0 5 1 0 0 0 0 0 0 0
0 0 0 0 0 0 0 0 0 0 0 0 0 0 0 16 31 80 43 6 46 197 487 703 424 23 330 34 17 5 0 0 0 0 0 0 0 0 0 0 0 0 0 0 0 0 0 0 0
0 0 0 0 0 0 0 0 0 0 0 0 0 0 0 0 12 37 14 2 0 0 286 459 805 398 128 0 0 0 1 0 1 0 0 0 0 0 0 0 0 0 0 0 0 0 0 0 0
0 0 0 0 0 0 0 0 0 0 0 0 0 0 0 0 0 0 0 0 0 16 87 4 4 2 0 0 0 0 0 0 0 0 0 0 0 0 0 0 0 0 0 0 0 0 0 0 0
0 0 0 0 0 0 0 0 0 0 0 0 0 0 0 0 0 0 0 0 0 0 0 0 0 0 0 0 0 0 0 0 0 0 0 0 0 0 0 0 0 0 0 0 0 0 0 0 0
0 0 0 0 0 0 0 0 0 0 0 0 0 0 0 0 0 0 0 0 0 0 0 0 0 0 0 0 0 0 0 0 0 0 0 0 0 0 0 0 0 0 0 0 0 0 0 0 0
0 0 0 0 0 0 0 0 0 0 0 0 0 0 0 0 0 0 0 0 0 0 0 0 0 0 0 0 0 0 0 0 0 0 0 0 0 0 0 0 0 0 0 0 0 0 0 0 0
0 0 0 0 0 0 0 0 0 0 0 0 0 0 0 0 0 0 0 0 0 0 0 0 0 0 0 0 0 0 0 0 0 0 0 0 0 0 0 0 0 0 0 0 0 0 0 0 0
0 0 0 0 0 0 0 0 0 0 0 0 0 0 0 0 0 0 0 0 0 0 0 0 0 0 0 0 0 0 0 0 0 0 0 0 0 0 0 0 0 0 0 0 0 0 0 0 0
0 0 0 0 0 0 10 0 0 0 0 0 0 0 0 0 0 0 0 0 0 0 0 0 0 0 0 0 0 0 0 0 0 0 0 0 0 0 0 0 0 0 0 0 0 0 0 1 0
0 0 2 8 11 0 6 3 5 0 0 0 0 0 0 0 0 0 0 0 0 0 0 0 0 0 0 0 0 0 0 0 0 0 0 0 0 0 0 0 0 0 0 0 0 2 7 1 0
0 0 0 0 0 0 0 8 0 0 0 0 0 0 0 0 0 0 0 0 0 0 0 0 0 0 0 0 0 0 0 0 0 0 0 0 0 0 0 0 0 4 7 3 1 0 0 0 0
0 0 0 0 0 0 0 0 0 0 0 0 0 0 0 0 0 0 0 0 0 0 0 0 0 0 0 0 0 0 0 0 0 0 0 0 0 0 0 0 0 14 22 12 7 0 0 0 0
0 0 0 0 0 0 0 4 0 0 0 0 0 0 0 0 0 0 0 0 0 0 0 0 0 0 0 0 0 0 0 0 0 0 0 0 0 0 0 0 1 9 8 4 11 4 2 3 6
0 0 0 0 0 0 0 0 0 20 29 5 0 0 0 0 0 0 0 0 0 0 0 0 0 0 0 0 0 0 0 0 0 0 0 0 0 0 0 0 0 0 1 3 8 0 0 0 12
0 0 0 0 0 0 0 0 0 0 0 0 0 0 0 0 0 0 0 0 0 0 0 0 0 0 0 0 0 0 0 0 0 0 0 0 0 0 0 0 0 0 0 0 0 0 0 0 0

GFSSGP_con_mlcape_024.txt.gz
CAPE
0 0 0 0 0 0 0 0 0 0 0 5 6 4 0 9 20 67 274 315 431 516 535 497 537 602 659 689 779 838 869 791 728 718 630 495 373 327 316 239 197 305 462 514 420 286 298 175 81
0 0 0 0 0 0 0 0 0 0 0 0 0 4 4 120 295 354 294 387 450 522 572 630 673 641 623 642 703 725 768 763 731 698 594 472 326 163 76 137 232 261 168 116 110 57 44 19 29
0 0 0 0 0 0 0 0 0 0 0 0 0 0 0 81 241 353 414 465 535 557 652 741 725 688 672 671 692 732 755 780 810 700 440 194 88 92 95 60 32 30 38 35 17 2 0 0 0
0 0 0 0 0 0 2 0 0 0 0 0 0 0 11 143 325 484 536 448 407 546 653 704 725 716 673 629 621 635 657 640 494 280 139 101 93 41 0 0 0 0 0 0 0 0 0 0 0
0 0 0 0 7 2 0 0 4 0 1 0 0 0 0 207 454 392 337 359 357 449 540 532 463 396 351 321 339 278 234 181 75 58 71 42 4 0 0 0 0 0 0 0 0 0 0 0 0
0 0 0 0 0 0 0 0 23 11 0 0 0 4 0 143 132 43 62 72 137 117 173 89 11 0 3 5 5 4 4 0 1 0 0 0 0 0 0 0 0 0 0 0 0 0 0 0 0
0 0 0 0 0 0 0 0 0 1 11 2 0 0 0 12 0 0 0 0 0 0 0 0 0 0 0 0 0 0 0 0 0 0 0 0 0 0 0 0 0 0 0 0 0 0 0 0 0
0 0 0 0 0 0 0 0 0 12 11 4 1 0 0 0 0 0 0 0 0 0 0 0 0 0 0 0 0 0 0 0 0 0 0 1 0 0 0 0 0 0 0 0 0 0 0 0 0
0 0 0 0 0 0 0 0 0 6 37 0 21 0 0 0 0 0 0 0 0 0 0 0 0 0 0 0 0 0 0 0 0 17 38 43 56 12 0 0 0 0 0 0 0 0 0 0 0
0 0 0 0 0 0 0 0 0 0 0 38 39 0 0 0 0 0 0 0 0 0 0 0 0 0 0 0 0 0 0 32 74 99 104 60 73 106 27 9 0 0 0 0 0 0 0 0 0
0 0 0 0 0 0 0 0 0 0 0 16 51 0 0 0 0 0 0 0 6 5 26 5 0 0 0 18 4 0 37 75 151 139 182 115 141 84 62 0 0 0 0 0 0 0 0 0 0
0 0 0 0 0 0 0 0 0 0 0 19 40 0 0 0 0 0 0 0 46 117 69 0 3 77 58 4 19 48 68 166 333 181 2 0 0 0 0 0 0 0 0 0 0 0 0 0 0
0 0 0 0 0 0 0 0 0 0 15 107 67 2 0 0 0 0 0 0 57 189 44 12 16 39 3 0 10 12 53 255 250 45 3 0 0 0 0 0 0 0 0 0 0 0 0 0 0
0 0 0 0 0 0 0 0 0 0 56 128 93 56 6 0 0 0 0 0 37 322 275 157 4 61 13 0 0 48 45 21 74 16 5 0 0 0 0 0 0 0 0 0 0 0 0 0 0
0 0 0 0 0 0 0 0 0 0 58 111 118 85 28 27 14 4 2 0 1 412 620 350 263 145 258 60 14 53 55 33 51 0 0 0 0 0 0 0 0 0 0 0 0 0 0 0 0
0 0 0 0 0 0 0 0 0 0 0 40 67 79 54 43 50 38 2 0 3 546 744 681 201 86 68 174 19 3 6 0 0 0 0 0 0 0 0 0 0 0 0 0 0 0 0 0 0
0 0 0 0 0 0 0 0 0 0 0 0 0 0 0 0 0 0 0 0 77 554 834 668 345 128 118 119 2 0 0 0 0 0 0 0 0 0 0 0 0 0 0 0 0 0 0 0 0
0 0 0 0 0 0 0 0 0 0 0 0 0 0 0 0 0 0 0 0 2 178 456 351 199 164 119 0 0 0 0 0 0 0 0 0 0 0 0 0 0 0 0 0 0 0 0 0 0
0 0 0 0 0 0 0 0 0 0 0 0 0 0 0 0 0 0 0 0 0 0 0 0 0 0 0 0 0 0 0 0 0 0 0 0 0 0 0 0 0 0 0 0 0 0 0 0 0
0 0 0 0 0 0 0 0 0 0 0 0 0 0 0 0 0 0 0 0 0 0 0 0 0 0 0 0 0 0 0 0 0 0 0 0 0 0 0 0 0 0 0 0 0 0 0 0 0
0 0 0 0 0 0 0 0 0 0 0 0 0 0 0 0 0 0 0 0 0 0 0 0 0 0 0 0 0 0 0 0 0 0 0 0 0 0 0 0 0 0 0 0 0 0 0 2 1
0 0 0 0 0 0 0 0 0 0 0 0 0 0 0 0 0 0 0 0 0 0 0 0 0 0 0 0 0 0 0 0 0 0 0 0 0 0 0 0 0 0 0 0 0 0 1 3 2
0 0 0 0 0 0 0 0 0 0 0 0 0 0 0 0 0 0 0 0 0 0 0 0 0 0 0 0 0 0 0 0 0 0 0 0 0 0 0 0 0 0 0 0 0 0 0 0 0
0 0 0 0 0 0 0 0 0 0 0 0 0 0 0 0 0 0 0 0 0 0 0 0 0 0 0 0 0 0 0 0 0 0 0 0 0 0 0 0 0 0 0 0 0 0 0 0 0
0 0 0 0 7 1 0 0 0 0 0 0 0 0 0 0 0 0 0 0 0 0 0 0 0 0 0 0 0 0 0 0 0 0 0 0 0 0 0 0 0 0 0 2 9 6 0 0 0
0 0 0 0 0 0 0 0 0 0 0 0 0 0 0 0 0 0 0 0 0 0 0 0 0 0 0 0 0 0 0 0 0 0 0 0 0 0 0 0 0 0 0 0 0 0 0 0 0
0 0 0 0 0 0 0 0 0 0 0 0 0 0 0 0 0 0 0 0 0 0 0 0 0 0 0 0 0 0 0 0 0 0 0 0 0 0 0 0 0 0 0 0 0 0 0 0 0
0 0 0 0 0 0 0 0 0 0 0 0 0 0 0 0 0 0 0 0 0 0 0 0 0 0 0 0 0 0 0 0 0 0 0 0 0 0 0 0 0 0 0 0 0 0 1 2 3
0 0 0 0 0 0 0 0 0 0 0 0 0 0 0 0 0 0 0 0 0 0 0 0 0 0 0 0 0 0 0 0 0 0 0 0 0 0 0 0 0 0 0 0 0 0 0 0 0
0 0 0 0 0 0 0 0 0 0 0 0 0 0 0 0 0 0 0 0 0 0 0 0 0 0 0 0 0 0 0 0 0 0 0 0 0 0 0 0 0 0 0 0 0 0 0 0 0

GFSSGP_con_mlcape_027.txt.gz
CAPE
0 0 0 0 0 0 0 0 0 0 0 0 0 1 15 40 6 38 155 214 406 415 414 454 501 587 619 641 668 678 660 631 619 503 393 333 329 259 119 125 262 279 166 99 83 62 28 12 1
0 0 0 0 0 0 6 0 16 7 2 0 0 2 82 188 271 374 270 431 475 443 444 529 576 594 646 702 740 738 702 641 543 450 427 334 139 76 93 57 9 0 8 13 8 2 0 0 0
0 0 0 0 0 0 2 0 13 2 0 0 0 0 27 311 342 323 325 514 532 456 530 565 547 565 606 628 639 645 599 587 537 391 205 75 62 34 0 0 0 0 0 0 0 0 0 0 0
0 0 0 0 0 0 0 6 29 8 0 0 0 6 0 212 426 382 446 522 464 537 602 564 513 522 533 553 583 617 612 515 284 111 59 40 0 0 0 0 0 0 0 0 0 0 0 0 0
0 0 0 0 0 0 0 18 48 40 13 3 0 4 69 355 484 400 457 461 456 533 598 558 501 471 486 542 539 480 315 153 55 26 0 0 0 0 0 0 0 0 0 0 0 0 0 0 0
0 0 0 0 6 0 1 34 28 8 6 5 36 87 118 418 448 396 413 409 492 435 443 388 336 288 271 258 157 86 49 4 0 0 0 0 0 0 0 0 0 0 0 0 0 0 0 0 0
0 0 0 0 0 6 0 0 12 2 4 5 24 38 266 306 221 310 336 296 208 166 44 37 11 2 0 0 0 0 0 0 0 0 0 0 0 0 0 0 0 0 0 0 0 0 0 0 0
0 0 0 0 0 0 0 0 43 80 38 0 0 0 163 49 93 91 27 0 0 0 0 0 0 0 0 0 0 0 0 0 0 0 0 0 0 0 0 0 0 0 0 0 0 0 0 0 0
0 0 0 0 0 0 0 0 2 20 13 1 4 0 82 0 0 0 0 0 0 0 0 0 0 0 0 0 0 0 0 0 0 0 4 16 2 0 0 1 0 0 0 0 0 0 0 0 0
0 0 0 0 0 0 0 5 58 72 33 2 0 0 0 0 0 0 0 0 0 0 0 0 0 0 0 0 0 0 0 0 7 37 34 33 57 49 12 0 0 0 0 0 0 0 0 0 0
0 0 0 0 0 0 0 1 0 39 2 0 0 0 0 0 0 0 0 0 0 0 0 0 0 0 0 0 0 0 0 11 61 130 115 98 77 45 58 1 0 0 0 0 0 0 0 0 0
0 0 0 0 0 0 0 0 0 0 0 2 0 0 0 0 0 0 0 0 0 0 0 0 0 0 0 0 0 0 36 93 141 140 114 7 0 0 0 0 0 0 0 0 0 0 0 0 0
0 0 0 0 0 0 0 0 0 0 24 4 0 0 0 0 0 0 0 0 1 7 17 0 1 42 4 2 8 14 58 101 223 247 13 0 0 0 0 0 0 0 0 0 0 0 0 0 0
0 0 0 0 0 0 0 0 0 0 63 6 0 0 0 0 0 0 0 0 21 66 103 21 59 21 0 4 16 29 74 98 189 110 0 0 0 0 0 0 0 0 0 0 0 0 0 0 0
0 0 0 0 0 0 0 0 0 1 70 44 15 1 0 0 0 0 0 0 51 149 159 7 51 0 0 0 0 0 5 22 17 4 0 0 0 0 0 0 0 0 0 0 0 0 0 0 0
0 0 0 0 0 0 0 0 0 9 58 46 34 26 2 0 0 0 0 0 13 274 163 146 136 15 41 2 0 0 0 0 0 0 0 0 0 0 0 0 0 0 0 0 0 0 0 0 0
0 0 0 0 0 0 0 0 0 0 40 20 54 3 0 0 0 0 0 0 1 405 288 98 0 4 0 0 0 0 0 0 0 0 0 0 0 0 0 0 0 0 0 0 0 0 0 0 0
0 0 0 0 0 0 0 0 0 0 3 0 0 0 0 0 0 0 0 0 151 215 92 6 21 7 0 0 0 0 0 0 0 0 0 0 0 0 0 0 0 0 0 0 0 0 0 0 0
0 0 0 0 0 0 0 0 0 0 0 0 0 0 0 0 0 0 0 0 18 0 0 1 0 0 0 0 0 0 0 0 0 0 0 0 0 0 0 0 0 0 0 0 0 0 0 0 0
0 0 0 0 0 0 0 0 0 0 0 0 0 0 0 0 0 0 0 0 0 0 0 0 0 0 0 0 0 0 0 0 0 0 0 0 0 0 0 0 0 0 0 0 0 0 0 0 0
0 0 0 0 0 0 0 0 0 0 0 0 0 0 0 0 0 0 0 0 0 0 0 0 0 0 0 0 0 0 0 0 0 0 0 0 0 0 0 0 0 0 0 0 0 0 0 0 0
0 0 0 0 0 0 0 0 0 0 0 0 0 0 0 0 0 0 0 0 0 0 0 0 0 0 0 0 0 0 0 0 0 0 0 0 0 0 0 0 0 0 0 0 0 0 0 0 0
0 0 0 0 0 0 0 0 0 0 0 0 0 0 0 0 0 0 0 0 0 0 0 0 0 0 0 0 0 0 0 0 0 0 0 0 0 0 0 0 0 0 0 0 0 0 0 0 0
0 0 0 0 0 0 0 0 0 0 0 0 0 0 0 0 0 0 0 0 0 0 0 0 0 0 0 0 0 0 0 0 0 0 0 0 0 0 0 0 0 0 0 0 0 0 0 0 0
0 0 0 0 0 0 0 0 0 0 0 0 0 0 0 0 0 0 0 0 0 0 0 0 0 0 0 0 0 0 0 0 0 0 0 0 0 0 0 0 0 0 0 0 0 0 0 0 0
0 0 0 0 0 0 0 0 0 0 0 0 0 0 0 0 0 0 0 0 0 0 0 0 0 0 0 0 0 0 0 0 0 0 0 0 0 0 0 0 0 0 0 0 0 0 0 0 0
0 0 0 0 0 0 0 0 0 0 0 0 0 0 0 0 0 0 0 0 0 0 0 0 0 0 0 0 0 0 0 0 0 0 0 0 0 0 0 0 0 0 0 0 0 0 0 0 2
0 0 0 0 0 0 0 0 0 0 0 0 0 0 0 0 0 0 0 0 0 0 0 0 0 0 0 0 0 0 0 0 0 0 0 0 0 0 0 0 0 0 0 0 0 0 0 0 0
0 0 0 0 0 0 0 0 0 0 0 0 0 0 0 0 0 0 0 0 0 0 0 0 0 0 0 0 0 0 0 0 0 0 0 0 0 0 0 0 0 0 0 0 0 0 0 0 0
0 0 0 0 0 0 0 0 0 0 0 0 0 0 0 0 0 0 0 0 0 0 0 0 0 0 0 0 0 0 0 0 0 0 0 0 0 0 0 0 0 0 0 0 0 0 0 0 0

GFSSGP_con_mlcape_030.txt.gz
CAPE
0 0 0 0 0 0 0 0 0 1 2 0 6 35 63 80 14 18 185 269 400 350 410 467 520 573 560 563 570 583 564 500 412 349 287 277 191 68 81 61 14 25 12 6 9 5 0 0 0
0 0 0 0 0 0 0 0 23 10 28 28 14 7 36 2 305 254 310 519 427 396 484 540 606 599 625 628 627 565 557 483 394 340 285 109 60 30 0 0 0 0 0 0 0 0 0 0 0
0 0 0 0 0 0 0 3 67 10 7 1 0 0 22 76 462 268 411 543 446 451 524 608 636 682 673 630 552 542 496 428 354 217 74 42 9 0 0 0 0 0 0 0 0 0 0 0 0
0 0 0 0 0 0 0 16 27 5 2 7 0 0 0 140 371 372 578 537 460 488 572 568 551 531 546 543 495 457 427 275 93 21 9 0 0 0 0 0 0 0 0 0 0 0 0 0 0
0 0 0 0 0 0 0 30 26 13 5 3 0 0 2 360 486 511 562 507 445 480 504 461 433 464 466 467 522 459 265 60 0 0 0 0 0 0 0 0 0 0 0 0 0 0 0 0 0
0 0 0 0 0 1 54 85 44 7 2 4 31 9 91 392 444 458 465 412 463 508 500 454 456 453 485 510 366 203 35 0 0 0 0 0 0 0 0 0 0 0 0 0 0 0 0 0 0
0 0 0 4 3 1 18 46 23 0 0 1 20 72 314 382 304 422 417 381 527 448 385 344 365 335 265 164 48 5 0 0 0 0 0 0 0 0 0 0 0 0 0 0 0 0 0 0 0
0 0 0 0 15 0 0 2 0 0 24 15 118 49 262 323 284 353 366 359 286 221 126 64 51 18 0 0 0 0 0 0 0 2 0 0 0 0 0 0 0 0 0 0 0 0 0 0 0
0 0 0 0 0 0 0 5 0 1 30 6 0 116 356 254 244 277 174 62 25 0 0 0 0 0 0 0 0 0 0 0 0 0 4 0 0 0 0 0 0 0 0 0 0 0 0 0 0
0 0 0 0 13 15 10 0 0 57 32 0 0 50 200 159 205 19 0 0 0 0 0 0 0 0 0 0 0 0 0 0 0 13 24 22 24 4 6 2 2 0 0 0 0 0 0 0 0
0 0 0 0 0 0 2 10 0 98 42 5 0 82 82 45 1 0 0 0 0 0 0 0 0 0 0 0 0 0 0 4 28 32 29 31 29 15 9 1 0 0 0 0 0 0 0 0 0
0 0 0 0 0 0 0 0 76 46 0 3 12 39 0 0 0 0 0 0 0 0 0 0 0 0 0 0 0 0 5 36 82 125 145 73 11 0 0 0 0 0 0 0 0 0 0 0 0
0 0 0 0 0 0 0 0 0 0 4 0 14 0 0 0 0 0 0 0 0 0 0 0 0 0 0 0 0 0 19 82 113 183 131 0 0 0 0 0 0 0 0 0 0 0 0 0 0
0 0 0 0 0 0 0 0 0 0 5 0 10 0 0 0 0 0 0 0 0 0 0 0 0 0 0 0 0 0 1 43 96 77 0 0 0 0 0 0 0 0 0 0 0 0 0 0 0
0 0 0 0 0 0 0 0 0 0 3 0 0 0 0 0 0 0 0 0 0 2 2 13 5 0 0 0 0 0 0 0 0 0 0 0 0 0 0 0 0 0 0 0 0 0 0 0 0
0 0 0 0 0 0 0 0 0 5 3 0 0 0 0 0 0 0 0 0 0 9 73 50 3 0 0 0 0 0 0 0 0 0 0 0 0 0 0 0 0 0 0 0 0 0 0 0 0
0 0 0 0 0 0 0 0 0 8 32 6 0 0 0 0 0 0 0 0 0 22 22 1 0 0 0 0 0 0 0 0 0 0 0 0 0 0 0 0 0 0 0 0 0 0 0 0 0
0 0 0 0 0 0 0 0 0 0 59 2 0 0 0 0 0 0 0 0 0 9 2 0 0 0 0 0 0 0 0 0 0 0 0 0 0 0 0 0 0 0 0 0 0 0 0 0 0
0 0 0 0 0 0 0 0 0 0 0 0 0 0 0 0 0 0 0 0 0 12 40 1 0 0 0 0 0 0 0 0 0 0 0 0 0 0 0 0 0 0 0 0 0 0 0 0 0
0 0 0 0 0 0 0 0 0 0 0 0 0 0 0 0 0 0 0 0 0 0 0 0 0 0 0 0 0 0 0 0 0 0 0 0 0 0 0 0 0 0 0 0 0 0 0 0 0
0 0 0 0 0 0 0 0 0 0 0 0 0 0 0 0 0 0 0 0 0 0 0 0 0 0 0 0 0 0 0 0 0 0 0 0 0 0 0 0 0 0 0 0 0 0 0 0 0
0 0 0 0 0 0 0 0 0 0 0 0 0 0 0 0 0 0 0 0 0 0 0 0 0 0 0 0 0 0 0 0 0 0 0 0 0 0 0 0 0 0 0 0 0 0 0 0 0
0 0 0 0 0 0 0 0 0 0 0 0 0 0 0 0 0 0 0 0 0 0 0 0 0 0 0 0 0 0 0 0 0 0 0 0 0 0 0 0 0 0 0 0 0 0 0 0 0
0 0 0 0 0 0 0 0 0 0 0 0 0 0 0 0 0 0 0 0 0 0 0 0 0 0 0 0 0 0 0 0 0 0 0 0 0 0 0 0 0 0 0 0 0 0 0 0 0
0 0 0 0 0 0 0 0 0 0 0 0 0 0 0 0 0 0 0 0 0 0 0 0 0 0 0 0 0 0 0 0 0 0 0 0 0 0 0 0 0 0 0 0 0 0 0 0 0
0 0 0 0 0 0 0 0 0 0 0 0 0 0 0 0 0 0 0 0 0 0 0 0 0 0 0 0 0 0 0 0 0 0 0 0 0 0 0 0 0 0 0 0 0 0 0 0 0
0 0 0 0 0 0 0 0 0 0 0 0 0 0 0 0 0 0 0 0 0 0 0 0 0 0 0 0 0 0 0 0 0 0 0 0 0 0 0 0 0 0 0 3 3 17 5 0 0
0 0 0 0 0 0 0 0 0 0 0 0 0 0 0 0 0 0 0 0 0 0 0 0 0 0 0 0 0 0 0 0 0 0 0 0 0 0 0 0 0 0 0 0 0 0 0 0 0
0 0 0 0 0 0 0 0 0 0 0 0 0 0 0 0 0 0 0 0 0 0 0 0 0 0 0 0 0 0 0 0 0 0 0 0 0 0 0 0 0 0 0 0 0 0 0 0 0
0 0 0 0 0 0 0 0 0 0 0 0 0 0 0 0 0 0 0 0 0 0 0 0 0 0 0 0 0 0 0 0 0 0 0 0 0 0 0 0 0 0 4 0 0 0 0 0 0

GFSSGP_con_mlcape_033.txt.gz
CAPE
0 0 0 0 0 0 0 0 0 36 19 14 31 49 19 52 24 6 195 345 465 435 621 557 413 565 537 529 523 543 489 430 362 276 244 130 0 0 0 0 0 0 0 0 0 0 0 0 0
0 0 0 0 0 0 0 0 0 46 52 41 38 27 0 0 286 281 346 531 559 553 641 621 535 621 639 615 593 582 511 370 266 224 36 2 0 0 0 0 0 0 0 0 0 0 0 0 0
0 0 0 0 0 0 0 22 104 80 6 0 0 2 0 0 119 269 538 590 631 638 727 757 668 710 702 657 590 543 403 307 218 94 35 10 0 0 0 0 0 0 0 0 0 0 0 0 0
0 0 0 0 0 0 0 82 72 0 0 0 0 0 98 239 147 338 738 650 584 640 775 746 734 768 723 636 519 424 298 211 92 57 34 10 0 0 0 0 0 0 0 0 0 0 0 0 0
0 0 0 0 0 0 0 69 57 38 0 0 8 5 44 438 478 678 669 631 568 594 762 806 715 707 660 525 475 370 236 87 18 25 10 0 0 0 0 0 0 0 0 0 0 0 0 0 0
0 0 0 0 0 7 35 92 27 28 0 0 0 29 145 608 653 608 675 630 593 590 690 706 572 527 489 512 489 273 72 0 0 0 0 0 0 0 0 0 0 0 0 0 0 0 0 0 0
0 0 0 6 5 2 94 61 23 37 2 24 40 76 305 695 444 447 388 487 517 606 590 591 587 543 540 525 335 92 0 0 0 0 0 0 0 0 0 0 0 0 0 0 0 0 0 0 0
0 0 0 25 19 0 43 50 1 4 11 42 161 88 390 414 467 399 444 532 494 532 566 517 567 572 525 356 109 0 0 0 0 0 0 0 0 0 0 0 0 0 0 0 0 0 0 0 0
0 0 0 0 15 4 13 3 0 0 9 22 14 289 413 411 433 425 423 453 506 412 359 337 289 235 113 73 53 0 0 0 1 11 0 1 5 3 14 0 0 0 0 0 0 0 0 0 0
0 0 0 0 0 5 4 0 26 62 26 3 17 232 417 427 564 529 477 204 91 40 63 17 15 0 0 0 18 14 22 26 53 57 68 58 46 49 46 9 0 0 0 0 0 0 0 0 0
0 0 0 0 3 0 13 0 92 65 59 7 35 296 480 404 417 334 102 0 0 0 0 0 0 0 0 0 0 0 16 35 36 50 66 103 94 97 102 3 0 0 0 0 0 0 0 0 0
0 0 0 0 0 0 10 20 84 116 35 13 70 419 263 141 77 0 0 0 0 0 0 0 0 0 0 0 0 0 0 25 109 176 219 171 67 0 0 0 0 0 0 0 0 0 0 0 0
0 0 0 0 0 0 0 95 103 75 0 37 190 248 102 13 0 0 0 0 0 0 0 0 0 0 0 0 0 0 4 75 109 173 38 0 0 0 0 0 0 0 0 0 0 0 0 0 0
0 0 0 0 0 0 20 5 56 0 0 57 156 85 35 0 0 0 0 0 0 0 0 0 0 0 0 0 0 0 8 59 95 3 0 0 0 0 0 0 0 0 0 0 0 0 0 0 0
0 0 0 0 0 0 0 0 0 0 0 31 117 26 0 0 0 0 0 0 0 0 0 0 0 0 0 0 0 0 0 0 0 0 0 0 0 0 0 0 0 0 0 0 0 0 0 0 0
0 0 0 0 0 0 0 0 0 0 0 0 49 3 0 0 0 0 0 0 0 0 15 6 0 0 0 0 0 0 0 0 0 0 0 0 0 0 0 0 0 0 0 0 0 0 0 0 0
0 0 0 0 0 0 0 0 0 4 0 0 0 0 0 0 0 0 0 0 0 25 12 0 0 0 0 0 0 0 0 0 0 0 0 0 0 0 0 0 0 0 0 0 0 0 0 0 0
0 0 0 0 0 0 0 0 0 0 21 0 0 0 0 0 0 0 0 0 0 9 2 0 0 0 0 0 0 0 0 0 0 0 0 0 0 0 0 0 0 0 0 0 0 0 0 0 0
0 0 0 0 0 0 0 0 0 0 0 0 0 0 0 0 0 0 0 0 1 6 0 0 0 0 10 0 0 0 0 0 0 0 0 0 0 0 0 0 0 0 0 0 0 0 0 0 0
0 0 0 0 0 0 0 0 0 0 0 0 0 0 0 0 0 0 3 16 73 10 0 0 12 0 0 0 0 0 0 0 0 0 0 0 0 0 0 0 0 0 0 0 0 0 0 0 0
0 0 0 0 0 0 0 0 0 0 0 0 0 0 0 0 2 2 8 19 6 10 0 0 0 0 0 0 0 0 0 0 0 0 0 0 0 0 0 0 0 0 0 0 0 0 0 0 0
0 0 0 0 0 0 0 0 0 0 0 0 0 0 0 0 0 0 0 0 0 0 0 0 0 0 0 0 0 0 0 0 0 0 0 0 0 0 0 0 0 0 0 0 0 0 0 0 0
0 0 0 0 0 0 0 0 0 0 0 0 0 0 0 0 0 0 0 0 0 0 0 0 0 0 0 0 0 0 0 0 0 0 0 0 0 0 0 0 0 0 0 0 0 0 0 0 0
0 0 0 0 0 0 0 0 0 0 0 0 0 0 0 0 0 0 0 0 0 0 0 0 0 0 0 0 0 0 0 0 0 0 0 0 0 0 0 0 0 0 0 0 0 0 1 4 0
0 0 0 0 0 0 0 0 0 0 0 0 0 0 0 0 0 0 0 0 0 0 0 0 0 0 0 0 0 0 0 0 0 0 0 0 0 0 0 0 0 0 0 0 0 0 1 9 5
0 0 0 0 0 0 0 0 0 0 0 0 0 0 0 0 0 0 0 0 0 0 0 0 0 0 0 0 0 0 0 0 0 0 0 0 0 0 0 0 0 0 0 0 1 0 0 13 17
0 0 0 0 0 0 0 0 0 0 0 0 0 0 0 0 0 0 0 0 0 0 0 0 0 0 0 0 0 0 0 0 0 0 0 0 0 0 0 0 0 0 0 0 13 5 4 1 9
0 0 0 0 0 0 0 0 0 0 0 0 0 0 0 0 0 0 0 0 0 0 0 0 0 0 0 0 0 0 0 0 0 0 0 0 0 0 0 0 0 0 0 2 0 0 1 0 4
0 0 0 0 0 0 0 0 0 0 0 0 0 0 0 0 0 0 0 0 0 0 0 0 0 0 0 0 0 0 0 0 0 0 0 0 0 0 0 0 0 0 0 0 1 0 0 0 0
0 0 0 0 0 0 0 0 0 0 0 0 0 0 0 0 0 0 0 0 0 0 0 0 0 0 0 0 0 0 0 0 0 0 0 0 0 0 0 0 0 0 1 1 0 0 0 0 0

GFSSGP_con_mlcape_036.txt.gz
CAPE
0 0 0 0 0 0 0 0 0 81 263 143 76 134 207 275 194 173 397 449 464 596 532 459 519 611 543 488 470 472 451 421 366 297 232 133 144 27 0 0 0 0 0 0 0 0 0 0 0
0 0 0 0 0 0 0 0 7 236 285 31 13 3 12 39 443 419 355 624 585 591 619 543 520 618 598 565 583 546 502 395 309 217 77 57 0 0 0 0 0 0 0 0 0 0 0 0 0
0 0 0 0 0 0 0 20 245 14 0 0 0 16 0 9 338 294 608 615 634 672 709 761 656 672 663 661 673 590 468 395 296 84 28 0 0 0 0 0 0 0 0 0 0 0 0 0 0
0 0 0 0 0 0 21 366 154 41 28 0 0 0 8 88 3 244 565 666 593 726 802 759 695 723 721 718 679 536 418 284 101 109 85 0 0 0 0 0 0 0 0 0 0 0 0 0 0
0 0 0 0 0 0 33 310 153 110 5 2 11 16 75 540 286 404 746 510 724 717 1025 945 637 783 716 721 610 449 253 139 162 106 1 0 0 0 0 0 0 0 0 0 0 0 0 0 0
0 0 0 0 2 34 112 279 269 125 23 0 2 31 396 759 678 573 444 559 811 948 880 935 744 816 746 665 490 245 124 112 61 2 0 0 0 0 0 0 0 0 0 0 0 0 0 0 0
0 0 0 7 67 152 298 267 141 79 12 0 14 99 599 796 972 770 785 771 829 929 903 793 784 733 647 526 346 131 59 45 26 0 0 0 0 0 0 0 0 0 0 0 0 0 0 0 0
0 0 0 98 130 314 341 89 29 4 13 71 120 240 587 859 825 920 943 856 805 969 772 494 484 472 418 382 248 46 27 21 22 2 0 0 0 0 0 0 0 0 0 0 0 0 0 0 0
0 0 3 149 307 170 145 82 14 5 12 76 105 440 833 826 669 645 689 588 621 806 455 403 393 374 229 108 143 18 21 43 16 5 0 31 89 83 55 0 0 0 0 0 0 0 0 0 0
0 0 0 0 49 16 33 22 9 25 80 95 141 870 966 707 659 615 635 631 795 416 402 422 335 264 168 10 56 52 19 145 348 302 312 315 434 327 156 4 0 0 0 0 0 0 0 0 0
0 0 0 0 2 29 55 46 85 92 148 212 178 944 846 824 829 793 862 490 185 205 115 106 162 96 13 2 40 54 287 441 532 589 569 660 646 672 516 31 0 0 0 0 0 0 0 0 0
0 0 0 0 9 12 45 85 126 214 147 158 189 1060 995 846 1001 806 206 57 39 56 14 0 5 28 23 2 76 240 364 506 651 754 848 896 687 294 86 0 0 0 0 0 0 0 0 0 0
0 0 0 0 0 29 59 91 123 215 124 234 685 1114 813 596 410 54 1 0 19 0 20 21 0 0 1 35 152 308 510 609 712 800 571 389 281 121 0 0 0 0 0 0 0 0 0 0 0
0 0 0 0 0 5 38 98 230 172 245 482 868 628 268 88 8 0 0 0 5 27 70 166 96 76 40 168 317 391 413 483 550 275 133 39 143 22 0 0 0 0 0 0 0 0 0 0 0
0 0 0 0 0 0 21 29 0 98 292 444 426 283 136 0 0 0 0 0 4 67 174 273 365 294 135 44 44 62 17 30 53 13 0 1 0 0 0 0 0 0 0 0 0 0 0 0 0
0 0 0 0 0 0 0 0 0 35 242 337 279 216 123 28 0 0 0 0 0 156 331 267 51 16 1 0 0 0 0 0 0 0 0 0 0 0 0 0 0 0 0 0 0 0 0 0 0
0 0 0 0 0 0 0 0 0 98 159 332 317 223 118 6 0 2 24 8 1 201 473 207 82 16 0 0 0 0 0 0 0 0 0 0 0 0 0 0 0 0 0 0 0 0 0 0 0
0 0 0 0 0 0 0 0 0 175 129 130 227 249 166 90 70 19 179 106 139 460 458 239 209 0 0 0 0 0 0 0 0 0 0 0 0 0 0 0 0 0 0 0 0 0 0 0 0
0 0 0 0 0 0 0 0 0 13 209 141 143 182 196 141 16 129 310 347 461 491 304 254 16 0 0 0 0 0 0 0 0 0 0 0 0 0 0 0 0 0 0 0 0 0 0 0 0
0 0 4 0 0 0 0 1 0 0 196 240 209 195 182 63 141 255 455 438 333 297 385 104 73 42 3 0 0 0 0 0 0 0 0 0 0 0 0 0 0 0 0 0 0 0 0 0 0
19 28 9 1 0 0 0 0 0 0 0 15 75 213 170 210 316 417 647 769 563 467 346 312 347 179 4 0 0 0 0 0 0 0 0 0 0 0 0 0 0 0 0 0 0 0 0 0 0
51 2 0 0 1 20 0 29 22 0 0 0 11 64 193 319 407 635 474 487 486 351 344 197 34 2 0 0 0 0 0 0 0 0 0 0 0 0 0 0 0 0 0 0 0 0 0 1 2
33 0 0 0 7 0 0 0 62 0 10 0 0 95 276 303 272 85 12 19 22 23 10 0 0 0 0 0 0 0 0 0 0 0 0 0 0 0 0 0 0 0 0 1 2 2 15 12 15
0 37 36 14 0 0 5 0 0 1 4 2 0 139 154 26 2 0 0 0 0 0 0 0 0 0 0 0 0 0 0 0 0 0 0 0 0 0 0 2 0 0 12 23 35 38 32 16 15
25 12 0 0 0 0 0 0 0 0 0 0 5 80 1 0 0 0 0 0 0 0 0 0 0 0 0 0 0 0 0 0 0 0 0 0 0 1 3 3 1 1 22 35 27 21 13 14 10
1 0 0 0 0 0 0 0 4 0 0 0 9 16 0 0 0 0 0 0 0 0 0 0 0 0 0 0 0 0 0 0 0 0 0 0 0 0 0 0 0 0 1 10 30 11 7 6 14
0 0 0 0 0 0 0 0 0 0 0 0 14 2 0 0 0 0 0 0 0 0 0 0 0 0 0 0 0 0 0 0 0 0 0 0 0 0 0 0 0 0 0 12 23 5 13 19 28
0 0 0 0 0 0 0 0 0 0 0 0 1 0 0 0 0 0 0 0 0 0 0 0 0 0 0 0 0 0 0 0 0 0 0 0 0 0 0 0 0 0 0 10 29 7 13 13 13
0 0 0 0 0 0 0 0 0 0 0 0 0 0 0 0 0 0 0 0 0 0 0 0 0 0 0 0 0 0 0 0 0 0 0 0 0 0 0 0 0 0 5 21 19 5 8 8 7
0 0 0 0 0 0 0 0 0 0 0 0 0 0 0 0 0 0 0 0 0 0 0 0 0 0 0 0 0 0 0 0 0 0 0 0 0 0 0 0 3 9 2 11 14 8 7 5 7

GFSSGP_con_mlcape_039.txt.gz
CAPE
0 0 0 0 0 0 0 1 22 340 412 376 233 328 490 615 583 370 398 449 513 462 339 293 272 285 268 294 295 367 401 404 334 272 185 128 0 0 0 0 0 0 0 0 0 0 0 0 0
0 0 0 0 0 0 2 13 149 469 257 39 24 57 24 484 647 647 491 497 625 526 416 466 419 407 406 442 425 446 394 353 289 179 147 0 0 0 0 0 0 0 0 0 0 0 0 0 0
0 0 0 0 0 0 14 278 490 149 121 32 4 13 6 383 305 417 439 545 572 498 562 656 525 520 520 524 503 471 407 310 171 165 50 0 0 0 0 0 0 0 0 0 0 0 0 0 0
0 0 0 0 0 2 0 339 119 242 118 16 12 0 13 35 7 257 714 613 525 466 733 467 511 563 572 578 551 443 326 181 155 82 2 0 0 0 0 0 0 0 0 0 0 0 0 0 0
0 0 0 0 0 0 0 485 214 301 181 42 15 11 0 0 0 153 811 638 578 400 670 626 508 605 646 636 534 345 224 144 132 57 0 0 0 0 0 0 0 0 0 0 0 0 0 0 0
0 0 0 0 5 24 101 347 208 258 188 42 28 21 342 379 29 4 345 304 356 368 614 719 666 711 693 573 418 265 118 100 48 9 0 0 0 0 0 0 0 0 0 0 0 0 0 0 0
0 0 0 4 42 149 202 137 256 92 16 1 29 162 674 761 356 355 116 8 104 546 704 694 775 719 595 481 271 122 49 3 19 20 0 0 0 0 0 0 0 0 0 0 0 0 0 0 0
0 0 0 17 110 245 268 276 145 137 71 59 80 88 475 706 833 235 170 151 379 663 718 616 550 528 486 392 149 44 0 18 15 0 0 0 0 0 0 0 0 0 0 0 0 0 0 0 0
0 0 2 43 183 242 192 86 28 17 29 40 274 425 968 1063 955 600 463 437 599 457 350 310 284 309 196 107 100 3 14 44 3 0 0 12 30 47 129 0 0 0 0 0 0 0 0 0 0
0 0 7 184 87 0 259 86 26 0 0 0 144 854 1273 1222 1001 837 767 818 646 309 298 358 312 237 94 11 12 4 32 70 160 144 153 399 245 299 142 0 0 0 0 0 0 0 0 0 0
0 0 0 0 69 0 17 7 6 0 0 29 144 1182 1204 1222 1000 918 839 838 337 250 243 219 229 151 19 37 18 32 163 384 480 539 553 678 460 413 340 165 14 21 0 1 0 0 0 0 0
0 0 0 0 0 15 1 41 67 8 30 120 213 1306 1251 1116 978 888 839 278 77 126 59 51 44 35 4 7 64 191 362 450 515 636 757 682 561 580 311 111 44 9 0 0 0 0 0 0 0
0 0 0 0 0 0 0 47 61 106 87 29 707 1327 1238 1135 1029 647 84 30 102 54 0 0 0 12 179 185 416 416 593 676 712 732 821 683 493 458 222 98 5 0 0 0 0 0 0 0 0
0 0 0 0 6 24 39 89 86 144 98 235 967 926 761 796 415 43 17 67 78 8 70 14 12 63 199 497 544 531 574 636 683 544 325 225 295 334 155 24 0 0 0 0 0 0 0 0 0
0 0 0 0 0 33 42 95 85 217 180 341 711 465 305 222 21 0 36 109 164 89 248 323 383 365 410 346 268 83 49 70 124 105 78 112 101 15 1 0 0 0 0 0 0 0 0 0 0
0 0 0 0 31 42 36 9 32 142 210 233 199 132 5 0 0 0 0 102 255 403 405 488 458 323 90 16 4 0 0 0 0 0 1 0 0 0 0 0 0 0 0 0 0 0 0 0 0
0 0 0 7 21 2 24 0 6 106 216 229 184 107 14 0 0 0 0 0 229 542 658 433 315 45 0 0 0 0 0 0 0 0 0 0 0 0 0 0 0 0 0 0 0 0 0 0 0
0 0 0 0 0 0 0 0 0 89 182 289 238 164 138 29 0 38 148 51 41 551 649 519 349 157 0 0 0 0 0 0 0 0 0 0 0 0 0 0 0 0 0 0 0 0 0 0 0
0 0 0 0 0 0 0 0 0 82 104 175 309 320 254 198 201 265 374 290 253 771 654 493 308 51 0 0 0 0 0 0 0 0 0 0 0 0 0 0 0 0 0 0 0 0 0 0 0
0 0 0 0 0 0 0 7 0 15 67 97 167 307 353 352 364 400 594 570 560 840 624 583 369 49 224 0 2 1 0 0 0 0 0 0 0 0 0 0 0 0 0 0 0 0 0 0 0
0 0 0 36 0 0 42 55 21 9 161 253 244 242 301 395 391 526 717 774 750 670 539 665 361 335 105 67 0 0 0 0 0 0 0 0 0 0 0 0 0 0 0 0 0 0 0 1 1
1 28 32 29 16 8 6 26 0 32 77 174 253 353 326 361 465 701 890 945 834 714 755 432 224 112 23 0 0 0 0 0 0 0 2 0 0 0 0 0 0 0 0 0 3 5 10 10 9
18 20 66 51 10 0 19 0 30 102 74 60 106 286 383 459 654 891 1021 998 837 565 377 188 95 13 0 0 0 0 1 5 1 0 5 0 0 0 0 0 1 0 3 6 14 28 28 35 27
79 98 85 49 26 54 47 29 53 76 85 66 103 195 413 596 691 484 496 260 111 176 92 1 0 1 0 0 0 3 6 0 1 5 0 0 0 0 0 2 4 5 5 4 4 10 13 24 11
81 115 81 55 45 15 69 21 1 36 17 32 112 198 424 404 287 76 18 0 0 1 0 0 0 0 0 3 9 3 0 0 0 0 0 0 0 0 0 0 0 0 0 0 1 6 26 27 17
88 63 59 15 7 8 45 0 84 43 7 50 136 231 267 206 123 0 0 0 0 0 0 0 0 4 7 3 0 0 0 0 0 0 0 0 0 0 0 0 0 0 0 0 1 10 37 41 19
63 0 32 20 4 0 0 11 63 1 0 56 170 278 208 126 10 0 0 0 0 0 0 0 3 1 1 0 0 0 0 0 0 0 0 0 0 0 0 0 0 0 0 0 1 9 31 35 24
3 11 1 0 0 0 3 0 39 0 0 3 143 220 138 59 0 0 0 0 0 0 1 1 0 0 0 0 0 0 0 0 0 0 0 0 0 0 0 0 0 0 0 0 3 18 17 18 14
10 0 0 0 0 0 0 1 0 0 0 0 47 155 140 26 0 0 0 0 0 1 1 1 0 0 0 0 0 0 0 0 0 0 0 0 0 0 0 0 0 0 1 1 1 15 17 11 11
0 0 0 0 0 0 0 0 0 0 0 0 0 52 100 18 0 0 0 0 0 0 0 0 0 0 0 0 0 0 0 0 0 0 0 0 0 0 0 0 0 0 1 3 7 8 2 6 3

GFSSGP_con_mlcape_042.txt.gz
CAPE
0 0 0 0 0 0 0 0 81 382 481 412 322 475 665 659 745 256 374 407 249 208 210 295 395 367 293 298 307 345 350 283 177 127 38 0 0 0 0 0 0 0 0 0 0 0 0 0 0
0 0 0 0 0 0 0 139 735 456 400 277 213 223 440 589 725 551 541 507 337 297 213 280 268 310 334 391 397 417 346 208 134 63 0 0 0 0 0 0 0 0 0 0 0 0 0 0 0
0 0 0 0 0 0 25 288 207 290 255 227 156 64 156 363 444 545 510 525 469 256 393 304 249 302 377 423 463 382 246 131 94 0 0 0 0 0 0 0 0 0 0 0 0 0 0 0 0
0 0 0 0 0 0 379 679 295 387 252 157 39 14 67 1 16 559 537 454 379 485 458 283 292 345 453 480 423 296 165 103 49 0 0 0 0 0 0 0 0 0 0 0 0 0 0 0 0
0 0 0 0 0 0 1 495 448 217 199 154 35 0 0 0 283 723 616 453 348 321 245 245 313 437 486 519 377 213 145 105 37 0 0 0 0 0 0 0 0 0 0 0 0 0 0 0 0
0 0 0 0 0 13 2 508 515 305 97 15 110 87 77 0 0 183 508 340 213 103 142 254 511 538 532 397 286 177 119 52 6 0 0 0 0 0 0 0 0 0 0 0 0 0 0 0 0
0 0 0 0 0 2 290 382 102 2 3 43 1 447 553 36 48 181 110 51 0 67 128 394 495 561 400 246 157 137 75 23 2 1 0 0 0 0 0 0 0 0 0 0 0 0 0 0 0
0 0 0 0 0 217 47 0 60 6 1 2 0 5 314 694 342 0 46 26 0 52 146 357 571 490 304 154 83 72 40 23 7 0 0 0 0 0 0 0 0 0 0 0 0 0 0 0 0
0 0 0 2 91 194 17 0 15 92 8 246 178 690 783 883 329 0 0 53 41 106 282 417 397 307 218 111 95 43 24 8 0 0 0 0 0 17 73 0 0 0 0 0 0 0 0 0 0
0 0 0 59 178 16 0 0 9 0 1 24 429 1238 1243 923 280 227 116 86 0 110 230 326 340 339 130 28 44 17 6 0 1 8 4 44 267 63 49 0 0 0 0 0 0 0 0 0 0
0 0 0 36 50 17 0 18 125 32 17 24 576 1213 1391 1132 957 647 428 157 141 212 200 170 100 31 17 1 19 20 25 79 290 287 347 411 464 193 63 0 0 0 0 3 0 2 0 0 0
0 0 0 11 134 40 27 102 0 2 0 0 16 1354 1149 1091 957 855 487 251 131 144 158 189 68 0 13 18 58 119 384 441 502 560 541 495 487 459 205 75 54 11 0 0 0 0 0 0 0
0 0 1 0 0 27 11 15 1 5 1 0 7 1236 1157 899 908 858 426 56 62 11 19 31 8 87 4 125 254 438 423 380 365 618 487 327 413 364 162 42 0 0 0 0 0 0 0 0 0
0 0 0 0 0 1 0 2 10 42 24 1148 1277 1219 1026 855 723 226 0 86 61 0 0 3 36 162 314 446 398 311 297 374 360 294 175 195 262 241 105 0 0 0 0 0 0 0 0 0 0
0 0 0 0 0 1 0 10 5 110 125 644 846 709 568 493 227 6 64 71 16 3 0 0 87 396 390 310 114 3 5 17 8 19 35 39 20 0 0 0 0 0 0 0 0 0 0 0 0
0 0 0 0 0 13 34 30 8 112 177 488 567 384 328 232 62 24 106 97 20 142 114 227 431 353 186 15 0 0 0 0 7 1 0 0 0 0 0 0 0 0 0 0 0 0 0 0 0
0 0 0 0 0 7 5 1 22 51 136 173 163 146 137 41 0 24 91 223 232 273 434 484 303 50 4 0 0 0 0 0 0 0 0 0 0 0 0 0 0 0 0 0 0 0 0 0 0
0 0 0 3 4 4 24 5 0 48 168 151 121 19 0 0 0 0 1 156 433 523 445 342 69 0 0 0 0 0 0 0 0 0 0 0 0 0 0 0 0 0 0 0 0 0 0 0 0
0 0 0 0 0 0 0 0 0 9 113 184 141 73 13 0 0 26 30 13 473 687 361 253 112 0 0 0 0 0 0 0 0 0 0 0 0 0 0 0 0 0 0 0 0 0 0 0 0
0 0 16 0 0 0 0 0 0 0 39 203 246 175 154 64 11 236 277 293 771 842 650 337 198 45 3 0 0 0 0 0 0 0 0 0 0 0 0 0 0 0 0 0 0 0 0 0 0
0 0 7 2 0 0 0 0 0 0 2 41 159 267 257 199 238 387 459 496 468 952 548 419 278 78 103 0 7 0 0 0 0 0 0 0 0 0 0 0 0 0 0 0 0 0 0 0 0
2 0 11 7 2 0 1 14 0 0 0 20 63 129 295 358 462 479 643 725 899 944 549 542 410 231 316 40 0 0 0 0 0 0 0 0 0 0 0 0 0 0 0 0 0 0 0 0 0
2 0 22 38 15 2 0 0 0 0 0 13 196 258 273 325 448 491 739 924 701 625 598 683 523 164 19 0 0 0 1 1 1 0 0 0 0 0 0 0 0 0 0 0 0 0 0 2 7
16 23 41 17 31 15 2 2 1 0 0 0 97 207 331 421 405 697 927 1030 762 777 768 511 126 44 0 0 0 0 0 0 0 0 0 0 0 0 0 0 0 0 0 0 0 0 0 0 6
5 9 48 6 12 6 16 54 10 3 27 94 48 189 318 434 635 819 850 830 683 412 356 283 32 0 0 0 0 0 0 0 0 0 0 0 0 0 0 0 0 0 0 0 0 0 0 3 16
24 34 0 17 6 75 42 39 94 64 35 79 177 126 388 614 618 422 504 243 199 204 51 0 0 0 0 1 2 0 0 0 0 0 0 0 0 0 0 0 0 0 0 0 0 0 0 2 26
0 59 42 14 27 0 0 0 123 10 12 64 146 254 482 436 312 144 124 38 14 0 0 0 0 0 0 0 0 0 0 0 0 0 0 0 0 0 0 0 0 0 0 0 0 0 6 2 1
0 0 18 1 0 0 0 3 85 7 0 25 225 359 422 307 221 51 0 0 0 0 0 0 1 0 0 0 0 0 0 0 0 0 0 0 0 0 0 0 0 0 0 0 0 0 0 0 0
32 20 0 0 10 0 0 0 0 0 0 0 95 320 392 292 170 42 0 0 0 0 4 0 2 0 0 0 0 0 0 0 0 0 0 0 0 0 0 0 0 0 0 0 0 0 0 0 1
0 5 19 1 0 0 0 0 0 0 0 0 0 138 286 262 163 18 0 0 0 3 3 0 0 0 0 0 0 0 0 0 0 0 0 0 0 0 0 0 0 0 0 0 0 0 6 0 1

GFSSGP_con_mlcape_045.txt.gz
CAPE
0 0 0 0 0 0 0 0 540 476 447 362 758 725 752 839 677 347 405 233 20 289 525 650 526 417 312 278 306 304 228 156 13 0 0 0 0 0 0 0 0 0 0 0 0 0 0 0 0
0 0 0 0 0 0 0 55 561 480 448 283 229 760 693 803 866 713 486 264 161 428 555 550 407 355 319 318 335 264 194 100 0 0 0 0 0 0 0 0 0 0 0 0 0 0 0 0 0
0 0 0 0 0 0 0 327 567 539 463 283 187 272 584 576 861 708 431 340 65 206 440 430 325 346 374 395 326 195 120 19 0 0 0 0 0 0 0 0 0 0 0 0 0 0 0 0 0
0 0 0 0 0 0 0 12 299 357 220 144 140 240 127 2 350 591 554 265 210 182 238 200 236 265 418 368 194 127 46 0 0 0 0 0 0 0 0 0 0 0 0 0 0 0 0 0 0
0 0 0 0 0 0 107 216 253 196 112 51 1 13 4 343 675 640 570 432 295 102 173 118 196 294 403 263 157 84 18 0 0 0 0 0 0 0 0 0 0 0 0 0 0 0 0 0 0
0 0 0 0 0 113 464 189 200 112 41 30 20 35 0 236 591 509 348 32 37 109 116 90 159 335 368 197 117 65 12 0 0 0 0 0 0 0 0 0 0 0 0 0 0 0 0 0 0
0 0 0 0 0 71 298 102 9 1 0 0 260 360 4 47 304 205 109 2 0 0 47 76 160 249 288 134 76 39 27 3 1 0 0 0 0 0 0 0 0 0 0 0 0 0 0 0 0
0 0 0 0 0 61 161 76 0 0 0 30 18 174 70 272 51 0 0 4 0 1 19 55 211 278 186 119 58 33 16 4 0 0 0 0 0 0 0 0 0 0 0 0 0 0 0 0 0
0 0 0 0 24 266 92 0 0 0 5 398 531 303 373 13 24 1 0 0 9 12 68 91 181 174 80 70 57 33 20 0 0 0 0 0 0 0 0 0 0 0 0 0 0 0 0 0 0
0 0 0 0 111 50 29 2 0 5 37 363 640 611 148 0 4 13 0 0 8 44 107 130 157 46 34 27 1 2 1 0 0 0 0 0 0 12 0 0 0 0 0 0 0 0 0 0 0
0 0 0 0 33 34 10 0 17 6 7 11 304 228 237 10 1 27 0 0 43 89 59 145 220 43 0 0 0 0 0 0 0 0 11 8 36 25 0 0 0 0 0 0 0 0 0 0 0
0 0 0 81 75 53 63 28 5 0 1 2 188 232 428 440 171 94 0 1 66 163 113 195 148 0 0 0 0 0 12 44 84 321 255 270 251 131 66 9 3 0 0 0 0 0 0 0 0
0 0 0 136 94 64 7 3 26 28 0 0 37 36 407 521 271 200 22 105 149 108 43 0 0 0 0 0 14 106 263 265 319 222 134 133 200 21 0 0 0 0 0 0 0 0 0 0 0
0 0 0 1 34 78 23 0 0 4 0 0 0 1 257 562 266 276 137 53 77 55 0 0 0 0 156 134 174 229 214 192 137 91 34 29 13 0 0 0 0 0 0 0 0 0 0 0 0
0 0 0 0 24 26 0 0 0 31 3 253 255 454 793 524 341 59 105 18 1 0 0 8 65 212 119 28 8 26 79 79 2 5 7 6 0 0 0 0 0 0 0 0 0 0 0 0 0
0 0 0 0 0 5 0 10 10 81 658 747 722 626 590 144 65 32 12 0 0 0 0 27 223 163 17 0 0 0 0 0 0 0 0 0 0 0 0 0 0 0 0 0 0 0 0 0 0
0 0 0 0 0 8 5 0 1 155 633 628 448 381 126 0 27 28 9 10 0 0 52 247 140 54 6 0 0 0 0 0 0 0 0 0 0 0 0 0 0 0 0 0 0 0 0 0 0
0 0 0 0 1 14 0 1 0 103 331 419 265 220 82 0 7 42 18 58 29 120 145 181 75 0 0 0 0 0 0 0 0 0 0 0 0 0 0 0 0 0 0 0 0 0 0 0 0
0 0 0 0 0 5 2 0 0 21 88 70 71 47 16 0 3 16 54 118 227 246 207 156 56 0 0 0 0 0 0 0 0 0 0 0 0 0 0 0 0 0 0 0 0 0 0 0 0
1 0 0 0 0 0 0 3 0 1 54 23 2 0 0 0 0 0 21 320 351 354 244 141 19 0 0 0 0 0 0 0 0 0 0 0 0 0 0 0 0 0 0 0 0 0 0 0 0
0 5 2 3 2 0 0 0 0 0 0 81 14 0 0 0 0 0 5 424 404 380 314 146 12 0 0 0 0 0 0 0 0 0 0 0 0 0 0 0 0 0 0 0 0 0 0 0 0
3 2 2 1 2 0 0 0 1 0 0 121 118 70 33 0 13 115 221 460 629 481 306 155 89 32 5 10 0 0 0 0 0 0 0 0 0 0 0 0 0 0 0 0 0 0 0 0 0
0 4 2 2 1 6 4 0 0 0 0 0 0 79 40 6 19 137 329 446 722 539 401 287 180 94 48 24 0 0 0 0 0 0 0 0 0 0 0 0 0 0 0 0 0 0 0 0 0
28 0 3 14 4 0 7 0 0 0 0 0 18 115 91 40 117 358 523 675 817 701 466 358 238 124 121 0 0 0 0 0 0 0 0 0 0 0 0 0 0 0 0 0 0 0 0 0 0
13 32 5 3 0 2 15 0 0 5 0 0 0 12 32 250 314 474 735 732 670 583 493 403 388 155 7 0 0 0 0 0 0 0 0 0 0 0 0 0 0 0 0 0 0 0 0 0 0
10 34 5 0 0 0 7 1 1 0 0 0 0 0 20 339 531 699 827 785 722 617 426 292 114 3 0 0 0 0 0 0 0 0 0 0 0 0 0 0 0 0 0 0 0 0 0 0 0
0 42 47 3 0 0 0 6 0 0 6 63 0 10 294 498 583 692 738 650 533 394 242 101 0 0 0 0 0 0 0 0 0 0 0 0 0 0 0 0 0 0 0 0 0 0 0 0 0
3 0 8 1 0 0 0 0 5 0 42 98 118 228 458 513 405 351 310 253 149 102 11 0 0 0 0 0 0 0 0 0 0 0 0 0 0 0 0 0 0 0 0 0 0 0 0 0 0
15 6 1 0 0 0 3 0 5 0 0 70 197 353 450 406 295 129 76 47 23 0 0 0 0 0 0 0 0 0 0 0 0 0 0 0 0 0 0 0 0 0 0 0 0 0 0 0 0
18 15 24 0 0 0 0 0 0 0 0 0 42 267 325 296 191 71 0 0 0 0 0 0 0 0 0 0 0 0 0 0 0 0 0 0 0 0 0 0 0 0 0 0 0 0 0 0 0

GFSSGP_con_mlcape_048.txt.gz
CAPE
0 0 0 0 0 0 0 0 446 551 532 868 858 750 675 902 705 301 369 151 465 689 646 526 514 457 279 264 272 218 78 18 0 0 0 0 0 0 0 0 0 0 0 0 0 0 0 0 0
0 0 0 0 0 0 0 0 0 476 576 629 720 839 753 838 879 676 526 338 640 673 603 521 473 360 266 314 264 168 67 14 5 0 0 0 0 0 0 0 0 0 0 0 0 0 0 0 0
0 0 0 0 0 0 0 86 661 634 492 370 356 470 559 838 971 761 523 552 611 620 512 498 385 300 374 333 231 125 34 19 13 0 0 8 0 1 0 5 4 0 0 0 0 0 0 0 0
0 0 0 0 0 0 0 0 435 419 335 267 349 265 12 409 525 886 417 466 441 542 511 411 307 386 375 280 167 65 30 32 17 18 26 23 7 8 2 7 0 0 0 0 0 0 0 0 0
0 0 0 0 0 6 339 280 295 248 129 109 66 58 120 776 818 799 493 280 390 504 357 202 313 449 286 173 94 68 52 24 12 27 35 22 6 2 0 0 0 0 0 0 0 0 0 0 0
0 0 0 0 0 25 339 269 217 5 1 15 25 23 62 737 699 306 150 221 121 72 192 182 168 199 194 175 110 67 57 13 11 32 2 0 0 0 0 0 0 0 0 0 0 0 0 0 0
0 0 0 0 0 0 81 151 129 149 0 0 9 83 102 491 224 104 4 2 12 117 43 3 19 109 170 117 45 34 11 0 0 2 0 0 0 0 0 0 0 0 0 0 0 0 0 0 0
0 0 0 0 0 2 306 71 28 45 8 3 51 125 7 162 50 5 5 0 2 8 0 0 0 66 215 174 48 11 4 2 0 0 0 0 0 0 0 0 0 0 0 0 0 0 0 0 0
0 0 0 0 0 0 131 59 17 0 35 283 539 239 152 8 16 14 4 1 3 0 0 0 5 54 118 87 30 17 14 2 0 0 0 0 0 0 0 0 0 0 0 0 0 0 0 0 0
0 0 0 0 0 21 46 9 0 0 0 201 95 136 12 3 28 32 19 5 5 1 0 2 87 146 69 50 19 0 0 0 0 0 0 0 1 0 0 0 0 0 0 0 0 0 0 0 0
0 0 0 0 0 42 1 0 0 0 0 49 130 94 59 7 2 1 1 2 0 10 60 113 160 9 0 0 0 0 0 0 0 0 0 0 5 0 0 0 0 0 0 0 0 0 0 0 0
0 0 0 0 42 3 1 1 0 0 0 251 194 8 45 56 0 1 6 14 23 58 141 226 104 2 0 0 0 0 0 0 0 0 10 13 5 1 0 0 0 0 0 0 0 0 0 0 0
0 0 0 5 39 101 78 29 6 0 2 151 36 27 29 72 7 0 10 15 86 78 147 256 32 0 0 0 0 0 0 31 146 137 152 189 24 0 0 0 0 0 0 0 0 0 0 0 0
1 0 0 67 101 43 91 2 0 0 63 112 21 102 52 44 13 14 5 0 62 68 80 86 5 0 0 0 0 22 112 225 111 46 10 1 0 0 0 0 0 0 0 0 0 0 0 0 0
2 0 1 51 67 82 5 11 0 8 7 16 29 79 144 264 159 91 1 52 163 51 49 111 0 0 0 3 67 119 149 45 1 0 0 0 0 0 0 0 0 0 0 0 0 0 0 0 0
11 0 0 7 39 30 0 0 5 2 41 64 29 104 282 472 399 169 153 210 102 27 5 36 3 0 0 3 51 39 1 0 0 0 0 0 0 0 0 0 0 0 0 0 0 0 0 0 0
0 0 0 0 11 2 0 0 34 53 244 436 376 668 566 551 432 314 176 124 70 8 20 81 48 47 28 4 0 0 0 0 0 0 0 0 0 0 0 0 0 0 0 0 0 0 0 0 0
0 0 0 0 0 1 10 0 0 242 588 654 590 610 306 521 240 304 35 72 38 0 83 73 78 23 0 0 0 0 0 0 0 0 0 0 0 0 0 0 0 0 0 0 0 0 0 0 0
0 0 0 0 0 0 11 4 0 156 663 598 541 301 46 159 123 103 28 8 0 7 6 3 85 6 0 0 0 0 0 0 0 0 0 0 0 0 0 0 0 0 0 0 0 0 0 0 0
0 0 0 0 0 0 0 0 0 305 591 494 303 279 5 0 21 42 41 5 78 51 46 31 62 0 0 0 0 0 0 0 0 0 0 0 0 0 0 0 0 0 0 0 0 0 0 0 0
0 0 0 0 0 0 0 0 0 0 138 240 222 193 50 0 5 7 60 116 163 127 106 70 40 3 0 0 0 0 0 0 0 0 0 0 0 0 0 0 0 0 0 0 0 0 0 0 0
0 0 0 1 0 0 0 0 0 0 1 20 65 29 3 0 0 7 132 232 205 140 98 47 1 0 0 0 0 0 0 0 0 0 0 0 0 0 0 0 0 0 0 0 0 0 0 0 0
0 0 0 0 0 0 0 0 0 0 0 1 40 0 0 0 0 8 237 285 272 125 93 52 7 0 0 0 0 0 0 0 0 0 0 0 0 0 0 0 0 0 0 0 0 0 0 0 0
1 0 0 0 0 0 0 0 0 0 0 0 27 11 0 0 0 5 310 370 341 251 173 113 67 4 0 0 0 0 0 0 0 0 0 0 0 0 0 0 0 0 0 0 0 0 0 0 0
7 10 2 1 0 0 0 0 0 0 0 0 0 4 5 0 0 18 235 507 462 402 337 294 129 102 43 0 0 0 0 0 0 0 0 0 0 0 0 0 0 0 0 0 0 0 0 0 0
3 26 11 0 0 0 0 0 0 0 0 0 0 0 0 16 21 70 344 527 488 519 465 350 211 136 11 0 0 0 0 0 0 0 0 0 0 0 0 0 0 0 0 0 0 0 0 0 0
6 5 20 3 0 1 0 0 5 0 0 7 0 0 0 0 121 251 393 522 583 589 520 366 275 78 13 0 0 0 0 0 0 0 0 0 0 0 0 0 0 0 0 0 0 0 0 0 0
13 3 0 5 0 0 0 0 0 1 4 0 6 0 34 153 320 420 498 479 535 494 277 188 196 84 0 0 0 0 0 0 0 0 0 0 0 0 0 0 0 0 0 0 0 0 0 0 0
2 0 0 0 0 0 0 0 0 0 0 0 0 15 216 365 534 612 632 620 569 346 108 12 0 0 0 0 0 0 0 0 0 0 0 0 0 0 0 0 0 0 0 0 0 0 0 0 0
1 0 0 3 0 0 0 0 0 0 0 1 1 86 204 269 232 377 436 447 420 304 7 0 0 0 0 0 0 0 0 0 0 0 0 0 0 0 0 0 0 0 0 0 0 0 0 0 0

GFSSGP_con_mlcape_051.txt.gz
CAPE
0 0 0 0 0 0 0 0 0 282 675 963 1000 910 911 851 603 286 391 269 709 812 812 613 545 251 188 255 157 42 7 0 0 0 0 0 0 0 0 0 0 0 0 0 0 0 0 2 0
0 0 0 0 0 0 0 0 0 8 698 952 743 835 774 735 959 641 425 587 812 846 808 643 458 359 357 277 108 26 4 0 1 5 1 1 0 0 0 1 0 0 0 0 0 0 0 0 0
0 0 0 0 0 0 0 0 524 625 817 356 581 561 648 637 992 697 653 742 761 864 677 489 327 362 360 245 79 42 30 21 29 36 13 14 6 2 16 5 1 0 0 0 0 0 0 0 0
0 0 0 0 0 0 0 2 21 502 276 166 131 269 399 687 691 927 865 979 820 758 563 333 206 402 373 215 91 42 39 58 68 64 49 36 17 22 16 3 0 0 0 0 0 0 0 0 0
0 0 0 0 0 0 337 386 336 199 65 15 9 125 316 817 725 735 784 801 592 600 548 200 203 374 350 148 70 65 53 101 122 116 74 47 33 21 7 0 0 0 0 0 0 0 0 0 0
0 0 0 0 0 0 174 366 354 243 25 0 87 13 330 529 610 612 607 210 46 77 317 119 158 213 93 111 93 87 73 123 162 123 59 18 12 0 0 0 0 0 0 0 0 0 0 0 0
0 0 0 0 0 0 0 309 373 207 82 6 0 76 229 438 377 391 182 1 1 0 0 6 21 23 160 106 89 85 45 108 124 63 22 1 0 0 0 0 0 0 0 0 0 0 0 0 0
0 0 0 0 0 0 109 314 99 168 35 0 5 54 157 298 157 17 3 0 1 0 14 10 8 29 62 114 35 24 71 108 50 14 0 0 0 0 0 0 0 0 0 0 0 0 0 0 0
0 0 0 0 0 0 276 286 61 0 54 70 305 77 104 82 6 0 2 2 0 0 0 0 0 1 1 0 10 13 36 38 14 3 0 0 0 0 0 0 0 0 0 0 0 0 0 0 0
0 0 0 0 0 0 161 137 5 0 311 268 153 51 62 106 40 9 4 1 0 0 0 0 0 2 55 66 36 1 34 11 1 0 0 0 0 0 0 0 0 0 0 0 0 0 0 0 0
0 0 0 0 0 0 56 24 16 6 39 220 248 121 59 81 58 34 2 2 0 0 0 0 0 0 100 77 43 6 12 4 0 0 2 17 7 0 0 0 0 0 0 0 0 0 0 0 0
0 0 0 0 0 9 25 5 21 2 0 259 200 80 39 52 39 46 44 13 0 0 1 37 30 64 69 5 0 0 0 0 0 0 0 19 4 0 0 0 0 0 0 0 0 0 0 0 0
0 0 0 0 0 43 36 78 13 0 291 276 158 37 47 44 50 36 18 5 10 20 62 135 104 45 9 0 0 0 0 0 0 0 11 19 20 0 0 0 0 0 0 0 0 0 0 0 0
0 0 18 52 116 139 101 8 2 124 344 131 79 51 57 89 68 68 53 34 48 66 121 149 104 5 1 0 0 0 0 10 105 137 193 62 0 0 0 0 0 0 0 0 0 0 0 0 0
3 0 70 136 148 144 85 25 1 106 260 65 38 60 54 47 51 57 32 26 60 129 140 209 146 2 0 0 0 0 17 80 55 11 1 0 0 0 0 0 0 0 0 0 0 0 0 0 0
21 0 50 57 140 101 13 0 33 80 184 70 113 117 79 69 81 59 42 26 104 91 100 161 30 3 0 0 0 2 87 53 2 0 0 0 0 0 0 0 0 0 0 0 0 0 0 0 0
0 0 0 76 83 31 23 2 5 40 156 78 121 193 261 145 99 26 28 0 141 64 54 96 28 0 0 0 0 6 20 8 0 0 0 0 0 0 0 0 0 0 0 0 0 0 0 0 0
15 1 0 0 9 18 28 24 63 56 70 137 136 181 437 366 311 195 128 18 217 34 78 152 86 0 0 0 0 0 0 0 0 0 0 0 0 0 0 0 0 0 0 0 0 0 0 0 0
4 0 0 0 0 0 0 1 17 139 513 288 388 447 468 492 484 347 218 110 123 16 68 65 0 0 0 0 1 0 0 0 0 0 0 0 0 0 0 0 0 0 0 0 0 0 0 0 0
0 0 0 0 0 1 0 0 0 70 355 394 325 537 419 552 468 377 204 68 65 58 14 7 9 1 10 3 0 0 0 0 0 0 0 0 0 0 0 0 0 0 0 0 0 0 0 0 0
0 0 0 0 0 0 0 0 0 0 285 529 450 421 291 425 443 361 151 65 16 55 20 33 28 15 2 0 0 0 0 0 0 0 0 0 0 0 0 0 0 0 0 0 0 0 0 0 0
0 0 0 0 0 0 0 0 0 0 73 460 453 308 201 147 290 200 67 46 70 134 32 40 26 7 0 0 0 0 0 0 0 0 0 0 0 0 0 0 0 0 0 0 0 0 0 0 0
0 0 0 0 0 0 0 0 0 0 3 136 410 184 99 13 105 120 111 83 63 47 17 0 0 2 0 0 0 0 0 0 0 0 0 0 0 0 0 0 0 0 0 0 0 0 0 0 0
0 0 0 0 0 0 0 0 0 0 0 0 8 185 33 0 0 20 42 39 68 21 9 0 0 0 0 0 0 0 0 0 0 0 0 0 0 0 0 0 0 0 0 0 0 0 0 0 0
0 0 0 0 0 0 0 0 0 0 0 0 0 0 0 0 0 0 30 131 112 16 0 0 0 1 0 0 0 0 0 0 0 0 0 0 0 0 0 0 0 0 0 0 0 0 0 0 0
0 0 0 0 0 0 0 0 0 0 0 0 0 0 0 0 0 0 106 196 209 107 52 17 20 86 3 0 0 0 0 0 0 0 0 0 0 0 0 0 0 0 0 0 0 0 0 0 0
0 0 0 0 0 0 0 0 0 0 0 0 0 0 0 0 0 0 70 248 282 249 232 164 106 117 77 0 0 0 0 0 0 0 0 0 0 0 0 0 0 0 0 0 0 0 0 0 0
0 0 0 0 0 0 0 0 0 2 17 0 0 0 0 0 0 0 77 220 295 322 299 256 235 277 92 0 0 0 0 0 0 0 0 0 0 0 0 0 0 0 0 0 0 0 0 0 0
0 0 0 0 0 0 0 0 0 0 1 0 0 0 1 1 52 128 193 259 348 386 338 339 273 224 19 0 0 0 0 0 0 0 0 0 0 0 0 0 0 0 0 0 0 0 0 0 0
0 0 0 0 0 0 0 0 0 0 0 0 0 0 9 125 211 368 404 364 403 431 406 452 291 101 1 0 0 0 0 0 0 0 0 0 0 0 0 0 0 0 0 0 0 0 0 0 0

GFSSGP_con_mlcape_054.txt.gz
CAPE
0 0 0 0 0 0 0 0 0 4 443 899 854 850 640 775 529 303 355 460 741 922 758 534 406 410 230 78 45 2 0 0 0 0 3 3 0 0 0 0 0 0 0 8 90 30 5 45 174
0 0 0 0 0 0 0 0 3 190 471 430 599 689 581 677 787 540 325 841 996 976 827 543 432 410 157 71 5 0 0 0 0 8 31 18 2 0 0 0 0 0 0 0 14 85 124 88 0
0 0 0 0 0 0 0 0 0 195 286 372 482 270 179 592 838 645 579 927 1048 911 830 507 316 348 143 15 1 1 6 1 17 58 52 22 13 21 13 0 0 0 0 0 0 0 0 0 0
0 0 0 0 0 0 0 0 435 309 198 93 114 183 287 701 872 875 859 1041 912 867 680 351 306 295 130 48 36 26 8 68 79 109 88 43 35 15 18 7 0 0 0 0 0 0 0 0 0
0 0 0 0 0 0 0 443 406 374 238 170 128 238 403 674 946 943 799 495 393 461 586 297 273 283 196 100 53 50 65 106 152 172 123 97 55 29 11 0 0 0 0 0 0 0 0 0 0
0 0 0 0 0 0 12 506 487 332 105 134 87 93 508 717 828 449 327 189 144 153 6 279 193 130 89 51 41 127 122 170 216 185 139 115 43 17 0 0 0 0 0 0 0 0 0 0 0
0 0 0 0 0 0 0 408 544 417 161 42 107 1 412 589 507 300 112 3 0 0 0 1 14 2 26 66 106 193 228 218 180 164 120 54 11 1 0 0 0 0 0 0 0 0 0 0 0
0 0 0 0 0 0 80 446 262 480 309 47 187 65 221 437 307 48 0 0 0 0 0 0 2 34 76 128 129 154 255 193 128 75 31 15 16 9 0 0 0 0 0 0 0 0 0 0 0
0 0 0 0 0 0 29 339 261 103 238 375 374 167 351 164 25 3 0 0 0 3 0 0 0 0 24 58 99 176 169 84 56 41 30 16 3 0 0 0 0 0 0 0 0 0 0 0 0
0 0 0 0 0 0 0 246 156 67 379 368 318 396 346 81 21 8 0 0 0 0 1 0 0 0 0 52 39 13 111 71 31 13 6 3 0 0 0 0 0 0 0 0 0 0 0 0 0
0 0 0 0 0 0 0 226 43 154 269 387 356 438 245 126 14 1 2 0 0 0 0 0 0 1 18 15 1 16 40 1 0 0 0 0 0 0 0 0 0 0 0 0 0 0 0 0 0
0 0 0 0 0 0 49 39 100 29 58 405 363 351 280 189 28 1 1 0 0 0 0 0 0 0 0 17 0 6 2 2 0 0 0 0 0 0 0 0 0 0 0 0 0 0 0 0 0
0 0 0 0 0 44 38 110 74 131 271 471 297 184 101 155 38 24 0 0 0 0 0 0 0 0 28 26 5 3 0 0 0 0 7 13 0 0 0 0 0 0 0 0 0 0 0 0 0
0 0 30 10 67 115 170 87 48 229 426 348 249 99 45 95 114 100 41 3 0 0 0 13 0 15 37 2 0 0 0 0 0 0 0 4 0 0 0 0 0 0 0 0 0 0 0 0 0
0 2 76 110 130 202 55 21 4 241 435 310 52 77 84 92 124 104 58 41 0 2 18 52 86 30 6 0 0 0 0 0 0 21 50 10 0 0 0 0 0 0 0 0 0 0 0 0 0
8 0 20 53 159 55 13 2 53 479 469 217 39 49 92 95 91 93 54 61 46 35 77 195 122 39 1 0 0 0 0 0 4 0 0 0 0 0 0 0 0 0 0 0 0 0 0 0 0
0 0 0 44 121 78 61 2 57 445 301 168 48 10 72 94 106 59 36 23 57 73 113 169 85 73 0 0 0 0 0 0 0 0 0 0 0 0 0 0 0 0 0 0 0 0 0 0 0
12 5 0 2 36 72 20 3 8 234 291 145 104 74 61 78 65 73 20 2 16 80 59 95 53 3 0 0 0 0 0 0 0 0 0 0 0 0 0 0 0 0 0 0 0 0 0 0 0
0 0 0 0 0 1 0 0 0 50 193 137 117 188 243 187 198 125 72 32 21 30 55 41 48 0 0 0 0 0 0 0 0 0 0 0 0 0 0 0 0 0 0 0 0 0 0 0 0
3 0 0 0 0 0 0 0 0 36 126 155 143 182 198 355 366 290 253 118 65 0 75 60 56 18 0 0 0 0 0 0 0 0 0 0 0 0 0 0 0 0 0 0 0 0 0 0 0
0 0 0 0 0 0 0 0 0 3 156 365 352 265 234 308 398 492 407 307 166 44 122 114 60 52 2 0 0 0 0 0 0 0 0 0 0 0 0 0 0 0 0 0 0 0 0 0 0
0 0 0 0 0 0 0 0 0 0 6 350 400 298 311 281 455 493 457 293 230 58 104 97 11 1 0 0 0 0 0 0 0 0 0 0 0 0 0 0 0 0 0 0 0 0 0 0 0
0 0 0 0 0 0 0 0 0 0 0 6 223 388 266 225 340 471 456 358 189 59 94 101 27 0 0 0 0 0 0 0 0 0 0 0 0 0 0 0 0 0 0 0 0 0 0 0 0
0 0 0 0 0 0 0 0 0 0 0 0 1 234 315 170 224 344 305 153 108 40 31 29 26 0 0 0 0 0 0 0 0 0 0 0 0 0 0 0 0 0 0 0 0 0 0 0 0
0 0 0 0 0 0 0 0 0 0 0 0 0 6 237 244 54 127 89 72 38 47 45 27 3 0 0 0 0 0 0 0 0 0 0 0 0 0 0 0 0 0 0 0 0 0 0 0 0
0 0 0 0 0 0 0 0 0 0 0 0 0 0 0 48 70 27 17 35 32 23 18 23 23 19 0 1 0 0 0 0 0 0 0 0 0 0 0 0 0 0 0 0 0 0 0 0 0
0 0 0 0 0 0 0 0 0 0 0 0 0 0 0 0 0 3 1 5 49 45 22 10 9 0 0 0 0 0 0 0 0 0 0 0 0 0 0 0 0 0 0 0 0 0 0 0 0
0 0 0 0 0 0 0 0 0 0 0 0 0 0 0 0 0 0 0 19 50 65 46 10 5 3 0 0 0 1 0 0 0 0 0 0 0 0 0 0 0 0 0 0 0 0 0 0 0
0 0 0 0 0 0 0 0 0 0 0 0 0 0 0 0 0 0 0 2 58 97 90 83 57 28 1 0 0 0 0 0 0 0 0 0 0 0 0 0 0 0 0 0 0 0 0 0 0
0 0 0 0 0 0 0 0 0 0 0 0 0 0 0 0 0 0 0 49 83 109 136 139 98 78 13 0 0 0 0 0 0 0 0 0 0 0 0 0 0 0 0 0 0 0 0 0 0

GFSSGP_con_mlcape_060.txt.gz
CAPE
0 0 0 0 0 0 0 0 0 0 175 760 916 352 620 1067 998 510 956 1070 1073 1032 591 529 632 636 607 442 197 24 13 0 0 0 0 0 0 0 0 155 269 255 241 322 109 0 0 0 0
0 0 0 0 0 0 0 0 0 7 360 1193 1271 1140 881 785 1127 1034 1019 945 1196 993 598 367 562 508 385 156 38 27 23 14 0 1 0 0 15 9 146 298 313 425 294 350 6 0 0 0 0
0 0 0 0 0 0 1 0 0 428 794 1189 1120 1117 659 363 724 1140 1227 1078 1270 1039 531 445 423 394 212 92 21 19 31 39 33 30 21 18 24 22 182 347 298 289 467 302 0 0 0 0 0
0 0 0 0 0 0 0 0 40 288 785 951 1122 972 823 1014 994 1401 1336 1088 1015 777 524 355 371 377 177 24 16 65 79 72 78 61 51 34 21 24 62 149 324 451 339 26 0 0 0 0 0
0 0 0 0 0 0 0 1 199 522 958 973 958 1011 1186 1236 911 1191 1259 1063 381 131 384 385 252 249 193 150 143 144 127 114 124 117 72 40 26 22 21 35 73 57 0 0 0 0 0 0 0
0 0 0 0 0 0 0 154 601 825 1012 953 1085 1207 1376 1259 861 782 465 178 8 7 6 96 63 65 32 26 71 180 188 160 154 133 119 72 55 24 31 9 0 0 0 0 0 0 0 0 0
0 0 0 0 0 0 1 611 772 935 841 875 822 792 1122 792 427 286 127 81 4 1 3 3 3 1 0 0 41 84 281 286 227 192 172 103 63 37 32 2 0 0 0 0 0 0 0 0 0
0 0 0 0 0 17 32 549 625 769 983 674 809 841 674 575 189 121 38 3 1 3 0 1 0 0 0 0 0 180 354 305 255 225 133 75 58 29 10 0 0 0 0 0 0 0 0 0 0
0 0 0 0 0 45 128 153 365 674 884 904 995 853 1072 379 126 52 2 4 2 0 3 2 0 0 0 0 2 43 207 216 145 106 36 18 15 4 0 0 0 0 0 0 0 0 0 0 0
0 0 0 0 0 0 1 162 229 531 972 946 870 704 520 222 158 64 5 4 3 3 3 4 5 2 0 0 0 34 80 196 141 66 52 24 14 11 17 0 0 0 0 0 0 0 0 0 0
0 0 0 0 0 0 0 2 81 309 544 824 1031 546 309 208 158 7 5 5 6 5 3 5 2 0 2 18 23 15 143 157 117 119 47 53 44 2 0 0 0 0 0 0 0 0 0 0 0
0 0 0 0 0 0 0 14 365 535 640 685 1047 573 346 153 16 4 2 4 3 1 2 0 0 0 0 0 0 1 5 9 33 84 77 68 24 5 0 0 0 0 0 0 0 0 0 0 0
0 0 2 9 74 2 28 213 595 673 928 1190 928 459 291 114 134 53 6 4 1 0 0 2 18 9 3 14 40 58 51 25 23 72 70 28 16 1 0 0 0 0 0 0 0 0 0 0 0
0 0 15 108 74 78 344 513 442 798 1065 1031 686 436 411 120 113 32 5 2 1 0 0 0 17 25 39 44 105 48 10 8 37 27 47 44 6 6 0 0 0 0 0 0 0 0 0 0 0
0 2 30 214 196 356 448 457 368 701 955 604 647 405 527 204 143 95 8 6 0 0 0 4 20 82 75 27 65 14 0 1 0 43 193 4 1 2 0 0 0 0 0 0 0 0 0 0 0
0 0 31 149 271 305 276 82 218 707 929 651 578 516 361 246 151 104 124 58 6 0 3 8 0 34 89 26 9 0 0 0 0 85 300 406 75 21 0 0 0 0 0 0 0 0 0 0 0
0 27 14 115 251 247 271 142 365 700 835 640 501 486 414 423 336 138 103 55 8 0 0 0 0 0 241 201 5 10 18 7 33 221 417 570 473 40 0 0 0 0 0 0 0 0 0 0 0
0 8 22 19 106 168 171 91 175 681 735 703 320 373 311 306 369 283 208 96 5 0 0 1 0 49 388 304 104 16 53 40 127 328 508 555 313 30 0 0 0 0 0 0 0 0 0 0 0
6 9 16 23 5 116 85 66 30 474 644 749 398 219 316 309 318 361 232 223 122 19 47 120 140 254 441 337 56 3 9 23 63 266 444 207 129 12 0 0 0 0 0 0 0 0 0 0 0
12 2 1 2 0 6 35 26 11 97 515 684 673 267 177 253 399 365 351 251 274 108 93 155 305 469 422 292 47 0 0 33 51 228 178 119 16 0 0 0 0 0 0 0 0 0 0 0 0
5 24 8 14 5 0 0 12 7 34 235 514 572 535 224 187 288 455 401 393 321 301 272 237 325 495 406 390 117 15 11 50 83 117 84 8 0 0 0 0 0 0 0 0 0 0 0 0 0
0 0 3 3 3 25 1 10 13 18 60 144 402 632 578 299 316 536 606 506 502 398 335 317 362 486 504 506 250 52 2 1 12 97 66 35 0 0 0 0 0 0 0 0 0 0 0 0 0
2 0 9 11 5 3 4 23 35 0 0 49 191 395 575 576 365 440 689 732 655 554 530 457 374 428 513 501 393 193 43 0 32 214 93 4 0 0 0 0 0 0 0 0 0 0 0 0 0
0 1 10 19 10 5 18 5 41 22 4 14 13 203 372 544 618 485 422 840 848 786 731 643 547 492 530 546 456 440 317 108 135 18 11 2 1 0 0 0 0 0 0 0 0 0 0 0 0
0 0 24 11 8 31 0 3 19 6 7 0 19 34 66 324 669 786 575 666 950 1036 984 826 749 636 578 691 615 599 570 360 37 5 13 0 0 0 0 0 0 0 0 0 0 0 0 0 0
0 5 14 5 3 6 0 0 11 0 0 13 50 27 0 6 417 733 791 799 912 1094 1096 989 879 874 722 708 633 598 475 251 21 1 1 0 0 0 0 0 0 0 0 0 0 0 0 0 0
2 0 2 3 0 0 0 0 1 0 0 15 3 12 61 1 146 443 675 786 1049 1106 1103 1096 980 942 891 766 732 545 155 33 0 0 0 0 0 0 0 0 0 0 0 0 0 0 0 0 0
7 0 0 5 0 0 1 0 4 0 5 0 0 0 1 45 23 129 360 642 822 982 1033 1096 1085 1048 1003 903 675 275 112 20 3 2 4 1 0 0 0 0 0 0 0 0 0 0 0 0 0
0 0 6 11 0 7 2 0 0 0 0 0 19 0 12 23 102 82 120 201 419 696 772 823 844 851 865 769 679 171 97 37 3 4 2 0 0 0 0 0 0 0 0 0 0 0 0 0 0
12 30 24 2 0 0 0 0 0 0 0 0 0 0 7 85 181 197 185 194 285 446 598 676 686 661 642 660 571 191 41 1 2 2 1 0 0 0 0 0 0 0 0 0 0 0 0 0 0

GFSSGP_con_mlcape_063.txt.gz
CAPE
0 0 0 0 0 0 0 0 8 2 0 196 419 449 109 1 333 138 0 1460 1559 1315 798 894 1075 1057 927 766 534 246 58 25 10 0 0 8 32 48 120 195 344 359 135 0 0 0 0 0 0
0 0 0 0 0 0 0 4 12 0 244 215 343 679 455 252 1012 772 368 1598 1635 1255 783 884 942 900 853 605 313 140 77 54 31 0 14 47 84 180 276 286 391 409 66 0 0 0 0 0 0
0 0 0 0 0 0 2 0 1 14 301 519 717 1067 910 500 665 1206 1544 1700 1660 1111 532 933 766 787 632 387 260 172 144 78 21 34 115 111 335 458 427 430 413 400 0 0 0 0 0 0 0
0 0 0 0 0 0 0 0 0 16 208 697 851 941 1131 1437 1542 1494 1646 1622 1677 1144 379 508 571 490 338 235 199 177 131 74 83 132 166 221 514 528 522 477 434 309 12 0 0 0 0 0 0
0 0 0 0 2 13 0 3 185 419 336 556 909 550 826 1622 1163 1277 1372 1407 980 245 95 133 383 279 190 161 170 185 154 135 148 151 138 207 263 375 514 543 386 103 0 0 0 0 0 0 0
0 0 0 2 4 0 0 115 116 609 750 1075 861 698 1318 1450 950 526 459 289 248 33 0 44 49 24 40 81 77 143 181 206 192 177 161 168 143 190 269 203 102 39 0 0 0 0 0 0 0
0 0 2 16 12 2 44 314 553 515 774 772 820 687 1541 1092 484 64 4 11 6 0 0 2 8 0 0 0 35 91 175 249 270 235 180 144 113 114 132 144 73 26 0 0 0 0 0 0 0
0 0 0 13 10 37 28 224 347 67 330 954 820 759 908 770 277 3 4 4 4 0 2 2 1 0 0 0 0 14 179 282 261 205 163 118 84 57 62 51 27 0 0 0 0 0 0 0 0
0 0 2 15 18 49 46 36 438 475 481 1013 1091 1096 934 367 88 2 2 5 4 3 3 3 1 0 0 0 0 0 70 179 164 139 77 77 49 17 34 47 18 1 0 0 0 0 0 0 0
0 7 19 0 5 0 4 16 107 99 0 903 1187 1247 698 236 197 33 4 2 5 4 3 2 2 2 2 0 0 2 35 135 127 126 93 65 53 73 81 35 12 0 0 0 0 0 0 0 0
0 0 2 7 10 2 29 33 0 24 0 397 930 979 548 357 314 71 3 3 5 5 3 3 4 2 2 4 0 33 58 117 108 108 109 99 116 94 74 12 0 0 0 0 0 0 0 0 0
0 0 1 14 1 0 0 16 18 237 772 878 1320 947 547 430 149 19 6 5 1 3 2 2 2 2 0 1 31 56 113 144 138 135 150 157 153 111 41 0 0 0 0 0 0 0 0 0 0
0 0 5 4 5 39 10 2 143 534 996 1393 918 683 455 280 143 14 3 4 2 3 2 1 0 1 15 11 14 28 80 97 93 98 143 195 187 177 11 0 0 0 0 0 0 0 0 0 0
4 0 0 10 7 18 0 73 481 861 1197 1023 682 520 304 279 193 121 12 1 1 0 0 1 7 0 0 6 16 27 31 5 58 111 153 218 181 160 25 0 0 0 0 0 0 0 0 0 0
0 0 0 2 45 5 47 56 7 946 1059 1018 896 790 483 324 208 78 9 1 0 0 0 1 11 36 41 66 129 111 77 26 70 59 100 158 140 134 54 22 0 0 0 0 0 0 0 0 0
0 0 3 2 22 38 36 4 0 720 875 849 777 650 609 329 261 69 31 51 1 2 0 1 0 53 91 122 141 51 27 28 44 21 93 113 121 117 71 27 0 0 0 0 0 0 0 0 0
3 0 0 12 18 32 46 18 2 216 590 802 521 480 545 297 165 223 127 64 7 0 1 8 22 46 33 15 29 18 66 16 0 0 161 321 138 162 94 28 0 0 0 0 0 0 0 0 0
4 2 24 17 26 10 18 16 78 374 395 550 484 444 540 314 185 123 62 35 16 16 24 9 3 16 19 31 0 1 2 0 0 19 126 357 471 404 185 37 2 0 0 0 0 0 0 0 0
0 22 23 41 13 6 30 43 38 428 376 538 466 411 402 415 244 174 115 30 19 12 1 0 0 0 31 43 4 0 0 4 4 100 229 438 491 492 355 174 10 0 0 0 0 0 0 0 0
1 37 15 32 2 4 12 44 1 42 395 397 511 269 381 475 324 174 166 72 1 0 1 2 0 0 76 129 59 0 0 0 0 13 248 476 498 383 254 184 5 0 0 0 0 0 0 0 0
3 26 26 20 8 1 0 9 18 0 175 443 577 388 193 354 386 328 177 225 102 37 35 104 112 82 128 121 95 0 0 0 15 31 175 451 432 254 204 134 2 0 0 0 0 0 0 0 0
20 8 0 1 3 18 4 13 0 2 36 216 418 669 346 216 323 557 571 490 451 271 146 146 196 234 314 316 213 49 0 0 0 24 101 268 186 111 78 19 0 0 0 0 0 0 0 0 1
12 0 0 3 28 32 61 11 4 1 0 21 189 599 506 263 205 342 621 702 623 550 424 357 299 320 406 447 381 300 65 1 10 38 105 260 224 112 30 0 0 0 0 0 0 0 0 0 0
1 0 0 2 19 40 9 26 8 0 0 8 10 106 421 414 242 251 453 671 630 634 690 611 499 441 482 554 572 575 403 259 3 14 383 365 196 33 1 0 0 0 0 0 0 0 0 0 0
0 1 9 18 33 10 22 4 6 3 0 0 0 2 112 315 483 420 301 557 706 661 772 856 806 589 551 625 698 718 678 635 453 306 322 105 121 8 0 0 0 0 0 0 0 0 0 0 0
4 13 53 7 32 0 1 0 10 2 0 0 5 33 61 103 285 523 601 370 635 772 888 1004 995 954 766 925 974 1033 1011 952 821 486 186 87 79 45 1 1 0 0 0 0 0 0 0 0 0
28 10 40 56 36 6 22 19 3 0 0 0 0 11 94 101 67 333 611 742 533 806 1067 1251 1137 1040 999 1051 1141 1268 1250 1177 1061 667 299 48 58 0 0 0 0 0 0 0 0 0 0 0 0
6 28 14 6 38 41 42 45 47 0 7 0 0 0 0 66 139 305 583 795 955 976 1154 1385 1501 1338 1236 1207 1224 1224 1045 887 800 540 153 65 5 0 0 0 0 0 0 0 0 0 0 0 0
0 25 23 41 29 89 46 72 21 0 0 0 0 0 0 7 160 291 359 549 814 1052 1344 1513 1572 1557 1487 1477 1304 1146 807 434 255 161 33 2 2 2 2 1 0 0 0 0 2 0 0 0 0
16 6 36 27 20 6 20 37 26 0 1 0 0 0 0 55 99 262 370 420 497 842 1089 1386 1437 1526 1484 1479 1414 934 539 271 143 64 39 1 0 0 0 0 0 0 0 2 0 0 0 0 0

GFSSGP_con_mlcape_066.txt.gz
CAPE
0 0 0 0 0 0 0 0 0 0 1 174 25 149 20 30 296 70 72 39 1 11 921 1394 1338 994 1039 924 722 431 182 25 17 4 24 53 176 314 464 398 114 0 0 0 0 0 0 0 0
0 0 0 0 0 0 0 0 0 0 54 130 134 15 0 42 1058 631 732 3 0 0 955 1529 1231 1086 1065 896 583 329 163 74 15 23 77 122 207 345 518 316 47 0 0 0 0 0 0 0 0
0 0 0 0 0 0 0 0 0 0 0 69 62 337 177 827 1208 1181 1543 1014 605 1266 1331 1596 1272 1099 1010 746 464 345 248 83 34 93 169 198 307 399 536 312 5 0 0 0 0 0 0 0 0
0 0 0 0 0 0 0 0 0 0 110 66 35 96 909 1116 1305 1153 1333 1651 1248 1161 972 901 1114 921 709 493 394 322 116 49 139 243 333 490 554 530 556 181 68 99 22 0 0 0 0 0 0
0 0 0 0 0 0 0 0 0 0 47 41 0 16 47 0 811 992 804 565 451 572 592 186 1 586 502 357 291 175 107 184 290 372 539 580 656 487 519 170 96 75 0 0 0 0 0 0 0
0 0 0 0 0 1 0 0 14 2 34 4 0 3 0 310 419 452 386 179 55 187 2 0 0 0 184 194 99 97 145 171 251 392 531 635 628 542 377 124 60 0 0 0 0 0 0 0 0
0 0 0 0 0 1 67 17 64 178 110 257 38 16 188 35 108 129 196 77 36 13 0 0 0 0 0 10 23 53 94 98 142 235 293 338 309 274 191 97 24 0 0 0 0 0 0 0 0
0 0 0 0 0 31 11 0 36 6 11 20 232 648 253 0 22 25 3 3 0 3 1 2 0 0 0 0 0 64 168 114 124 112 123 177 211 207 145 70 16 0 0 0 0 0 0 0 0
0 0 0 0 10 46 0 0 1 30 3 24 76 868 486 97 14 18 3 2 1 1 2 4 2 1 0 0 0 0 206 196 143 88 85 75 98 46 38 44 14 8 0 0 0 0 0 0 0
0 0 0 0 0 0 0 0 2 124 0 0 0 103 310 118 53 70 12 3 4 4 3 3 2 1 0 1 0 0 26 2 99 62 29 35 49 100 64 41 8 1 0 0 0 0 0 0 0
0 0 0 0 0 0 0 0 8 0 0 0 0 126 437 504 123 16 2 4 3 3 3 3 2 1 1 1 0 0 7 78 72 55 95 55 137 80 31 9 1 0 0 0 0 0 0 0 0
0 0 0 0 0 0 0 0 3 60 72 2 0 706 419 279 47 4 2 3 2 1 2 1 0 0 0 0 1 2 23 79 57 162 108 138 146 106 10 5 0 0 0 0 0 0 0 0 0
0 0 0 0 0 0 2 9 7 265 443 741 963 587 327 232 30 3 2 3 3 2 2 1 2 3 1 0 9 23 53 61 140 158 183 168 133 76 30 37 0 0 0 0 0 0 0 0 0
0 1 0 0 0 0 0 0 11 16 0 734 780 552 464 320 87 3 3 2 2 0 0 0 1 2 0 0 23 21 98 100 157 194 246 245 119 149 37 89 0 0 0 0 0 0 0 0 0
0 0 0 0 0 0 0 0 0 1 20 895 718 547 362 264 253 0 1 1 1 1 0 0 1 0 4 3 18 66 68 135 145 162 233 240 221 214 163 23 5 0 0 0 0 0 0 0 0
0 0 0 0 0 0 0 0 0 23 93 612 828 660 410 370 225 13 1 2 1 0 0 0 0 9 24 37 10 91 33 25 96 135 125 207 181 128 178 40 8 0 0 0 0 0 0 0 0
0 0 0 1 2 3 48 0 0 0 0 102 620 627 283 315 94 39 14 0 0 0 0 0 0 0 43 92 48 83 64 71 56 93 191 149 100 100 69 79 19 0 0 0 0 0 0 0 0
0 1 0 1 0 12 13 6 0 0 16 62 394 502 311 267 234 81 65 20 4 0 0 0 0 1 31 84 112 56 4 14 44 27 93 101 35 118 136 54 9 0 0 0 0 0 0 0 0
8 0 3 9 0 10 7 36 42 3 43 603 381 439 432 122 155 147 79 0 0 0 0 0 1 23 35 0 0 0 17 0 0 0 7 242 324 294 221 59 22 0 0 0 0 0 0 0 0
0 0 1 10 1 0 0 7 13 88 71 169 331 316 387 217 161 71 2 0 0 0 5 6 2 16 7 2 0 0 0 0 0 0 5 323 324 389 368 228 128 0 0 0 0 0 0 0 0
0 0 0 21 6 3 0 0 20 0 76 97 346 245 414 401 195 147 79 16 13 0 0 0 1 4 40 50 2 0 1 0 0 0 37 337 391 317 337 232 282 2 0 0 0 0 0 0 0
0 0 2 7 8 15 1 0 25 0 1 94 121 319 140 354 211 176 190 56 26 3 0 0 1 0 17 114 137 53 0 0 0 0 36 363 487 387 310 242 148 5 0 0 0 0 0 0 0
8 0 2 0 0 7 12 15 13 0 4 0 75 304 213 166 347 281 147 217 86 96 40 85 131 63 76 110 119 90 0 0 0 7 10 319 355 266 178 152 137 1 0 0 0 0 0 0 0
1 0 0 0 0 0 10 10 2 4 5 17 62 307 513 256 213 468 485 368 401 287 280 149 209 220 241 313 215 215 84 13 0 3 16 302 265 140 145 107 0 0 0 0 0 0 0 0 0
0 0 0 1 4 1 37 61 41 0 0 0 0 233 416 375 211 194 542 715 670 615 537 460 309 317 265 370 455 229 443 137 82 24 92 301 278 173 71 28 0 0 0 0 0 0 0 0 0
0 0 0 4 0 23 4 22 18 0 0 0 0 0 93 317 363 278 207 720 775 741 779 762 698 530 480 446 712 765 493 791 414 322 400 293 231 67 0 2 0 0 0 0 0 0 0 0 0
1 2 0 8 2 15 0 48 27 0 0 0 0 0 30 39 203 403 465 355 813 788 923 1016 935 850 676 601 599 736 797 718 759 832 521 199 130 111 46 0 0 0 0 0 0 0 0 0 0
0 2 8 15 0 3 4 7 42 2 0 0 0 0 0 68 101 103 535 621 489 855 949 1032 1073 1088 1032 924 913 921 1049 1111 996 993 687 309 223 5 0 0 0 0 0 0 0 0 0 0 0
0 1 8 12 22 35 54 48 0 0 0 0 0 0 0 1 104 178 347 692 755 703 964 1228 1298 1203 1181 1062 1075 991 1275 1103 785 483 382 305 86 1 0 0 0 0 0 0 0 0 0 0 0
1 0 32 24 59 32 27 33 0 0 0 0 0 0 0 0 6 221 347 395 546 1058 1081 1508 1622 1552 1488 1342 1194 1217 1065 615 377 273 73 50 5 0 0 0 0 1 0 0 0 0 0 0 0

GFSSGP_con_mlcape_069.txt.gz
CAPE
0 0 0 0 0 0 0 0 0 0 5 98 96 107 100 174 239 413 510 205 291 407 235 441 604 1103 1156 871 541 360 230 173 70 8 103 429 535 419 191 47 0 0 0 0 0 0 0 0 0
0 0 0 0 0 0 0 0 0 0 64 155 49 44 52 715 1153 916 494 244 143 79 56 9 0 168 1191 927 516 383 281 177 112 59 450 529 477 234 53 3 0 0 0 0 0 0 0 0 0
0 0 0 0 0 0 0 0 0 25 97 79 9 152 716 367 981 1166 821 344 31 1 2 0 13 506 1090 828 476 439 292 201 154 209 457 570 463 97 4 0 0 0 0 0 0 0 0 0 0
0 0 0 0 0 0 0 0 0 19 20 26 28 87 310 10 355 669 412 523 979 607 433 647 651 626 891 711 490 433 205 173 168 317 492 609 472 28 0 10 0 0 0 0 0 0 0 0 0
0 0 0 0 0 0 0 0 23 6 24 67 19 24 58 206 326 300 444 542 829 518 250 138 95 109 5 553 462 233 143 230 228 366 572 616 379 16 21 0 0 0 0 0 0 0 0 0 0
0 0 0 0 0 0 7 23 92 162 89 122 11 3 38 46 0 80 329 371 239 237 119 68 3 0 0 1 312 189 212 256 403 487 590 551 256 52 22 0 0 0 0 0 0 0 0 0 0
0 0 0 0 0 0 19 26 124 116 44 96 49 0 159 1 0 60 237 211 151 11 1 0 0 0 0 32 19 143 151 595 570 515 530 515 144 34 0 0 0 0 0 0 0 0 0 0 0
0 0 0 0 0 0 13 0 44 29 42 235 72 207 34 69 0 22 3 71 71 9 2 0 1 0 0 0 0 8 40 267 403 421 320 196 90 50 0 0 0 0 0 0 0 0 0 0 0
0 0 0 0 0 0 9 0 31 5 4 0 155 132 199 24 1 2 1 4 2 2 2 3 2 2 1 0 0 0 38 185 207 226 142 99 40 13 0 0 0 0 0 0 0 0 0 0 0
0 0 0 0 0 0 0 2 2 73 5 0 65 275 154 89 24 1 1 4 1 2 3 2 2 0 0 3 0 0 21 68 117 107 75 21 11 11 10 2 1 0 0 0 0 0 0 0 0
0 0 0 0 0 0 0 0 23 20 14 1 2 284 261 220 143 16 2 2 2 1 2 3 2 4 0 0 0 0 4 79 69 40 4 6 3 9 4 1 0 0 0 0 0 0 0 0 0
0 0 0 0 0 0 0 0 39 18 2 189 39 489 498 204 105 12 3 3 2 2 2 2 0 1 0 0 0 0 23 87 35 0 49 8 3 0 0 0 0 0 0 0 0 0 0 0 0
0 0 0 0 0 0 0 1 6 0 0 0 407 454 281 168 43 2 3 3 3 2 2 3 2 0 0 0 0 7 59 34 67 55 74 35 8 0 0 0 0 0 0 0 0 0 0 0 0
0 0 0 0 0 0 0 0 0 0 0 0 240 334 201 163 23 2 2 3 1 2 2 3 1 1 0 0 0 1 25 27 102 89 85 80 37 0 0 0 0 0 0 0 0 0 0 0 0
0 0 0 0 0 0 0 0 0 0 0 33 492 423 332 201 14 0 1 3 1 0 0 1 1 0 0 0 0 0 25 65 108 137 109 103 49 1 5 0 0 0 0 0 0 0 0 0 0
0 0 0 0 0 0 0 0 0 9 118 565 591 400 389 344 50 0 1 1 1 2 0 3 3 0 0 0 0 4 26 51 107 128 128 91 144 17 24 3 0 0 0 0 0 0 0 0 0
0 0 0 0 0 0 0 0 0 7 35 180 489 526 380 364 82 1 1 0 0 0 0 0 0 0 0 0 0 8 9 38 18 45 70 94 112 49 82 3 0 0 0 0 0 0 0 0 0
0 0 0 0 1 4 5 0 15 4 0 31 166 217 469 324 28 0 0 0 0 0 0 0 0 0 0 0 0 6 1 0 0 0 0 27 44 114 51 8 0 0 0 0 0 0 0 0 0
0 0 0 0 0 1 4 2 3 32 58 34 0 132 270 259 54 0 0 0 0 0 0 0 0 0 0 0 0 0 0 0 0 0 7 0 5 68 35 29 0 0 0 0 0 0 0 0 0
0 0 0 5 0 0 0 0 14 4 1 0 34 93 222 308 70 10 0 0 0 0 0 0 0 0 0 0 0 0 0 0 0 0 0 23 24 26 64 11 1 0 0 0 0 0 0 0 0
0 0 0 0 0 0 0 0 8 0 24 12 46 220 156 290 92 22 0 0 0 0 0 0 0 0 0 0 0 0 0 0 0 0 0 15 120 87 128 82 50 1 0 0 0 0 0 0 0
0 0 0 3 0 0 0 0 0 0 2 26 147 296 221 189 106 44 0 0 0 0 0 0 0 0 0 0 0 0 0 0 0 0 0 27 140 197 204 230 151 78 2 0 0 0 0 0 0
0 0 0 4 1 0 0 0 0 0 0 15 84 239 209 86 45 11 0 0 0 0 0 0 0 0 0 0 0 0 0 0 0 0 0 29 145 164 191 181 139 49 1 0 0 0 0 0 0
0 0 0 0 0 0 0 0 0 0 0 0 31 156 186 162 124 61 17 0 1 0 0 0 0 0 0 0 9 15 0 0 0 0 0 6 107 183 201 220 126 32 0 0 0 0 0 0 0
0 0 0 0 0 0 15 8 0 0 0 0 0 95 84 138 138 123 97 16 1 1 0 0 0 1 0 0 5 23 43 3 0 0 0 2 78 222 250 115 38 1 0 0 0 0 0 0 0
0 0 0 0 0 1 1 4 0 0 0 0 0 54 166 107 114 179 139 140 53 8 5 2 3 13 0 0 1 1 9 22 0 0 0 30 77 169 80 11 0 0 0 0 0 0 0 0 0
0 1 0 12 2 0 2 6 4 0 0 0 0 46 187 207 84 106 205 156 208 81 34 33 5 0 35 41 95 109 42 52 87 33 17 39 107 101 57 13 2 0 0 0 0 0 0 0 0
0 3 6 23 0 0 1 21 2 0 0 0 0 0 2 39 140 60 88 394 364 375 330 196 162 132 86 123 130 238 275 127 248 207 29 87 107 47 44 0 0 0 0 0 0 0 0 0 0
0 0 0 13 8 0 6 11 0 0 0 0 0 0 0 0 0 19 123 144 532 570 479 437 424 435 376 288 246 287 361 448 325 254 190 172 92 26 5 0 0 0 0 0 0 0 0 0 0
0 0 0 5 11 18 4 36 0 0 0 0 0 0 0 0 0 3 113 210 358 531 529 654 617 507 427 356 370 378 296 404 270 210 37 34 22 0 0 0 0 0 0 0 0 0 1 0 0

GFSSGP_con_mlcape_072.txt.gz
CAPE
0 0 0 0 0 0 0 0 0 0 0 27 45 143 529 722 508 355 565 548 521 1167 1340 1314 1018 793 833 969 535 291 212 106 146 314 492 566 400 233 53 0 0 0 0 0 0 0 1 1 0
0 0 0 0 0 0 0 0 0 0 5 68 91 377 419 607 963 685 709 743 692 432 485 839 543 219 25 287 725 310 253 95 227 507 661 581 427 182 18 1 0 0 0 0 0 0 0 0 0
0 0 0 0 0 0 0 0 0 6 20 29 53 339 368 278 786 1007 725 282 394 168 76 354 231 7 79 257 527 570 314 152 443 818 715 515 328 102 27 0 0 0 0 0 0 0 0 0 0
0 0 0 0 0 0 0 0 0 13 30 37 96 92 174 29 211 517 552 702 306 240 92 8 49 0 150 312 387 659 292 348 658 815 587 385 198 103 6 0 0 0 0 0 0 0 0 0 0
0 0 0 0 0 0 0 0 0 62 94 111 46 40 44 72 308 270 351 454 795 534 291 239 18 9 1 0 27 478 332 478 748 742 427 297 160 66 0 0 0 0 0 0 0 0 0 0 0
0 0 0 0 0 0 0 5 78 105 109 103 68 52 65 47 0 29 139 35 81 143 167 80 17 0 11 0 1 183 356 433 821 666 354 186 170 22 0 0 0 0 0 0 0 0 0 0 0
0 0 0 0 0 0 0 5 41 33 44 96 28 20 4 2 0 54 3 15 6 21 57 4 3 0 0 0 2 49 67 566 708 584 343 251 125 1 0 0 0 0 0 0 0 0 0 0 0
0 0 0 0 0 0 0 5 28 9 26 256 271 64 0 0 0 8 23 13 5 3 2 3 2 0 0 0 0 11 14 307 439 345 261 161 0 0 0 0 0 0 0 0 0 0 0 0 0
0 0 0 0 0 0 0 5 7 1 0 21 175 65 83 0 0 6 29 2 2 1 0 1 3 2 0 0 0 0 1 89 298 290 161 57 0 0 0 0 0 0 0 0 0 0 0 0 0
0 0 0 0 0 0 0 6 0 20 10 0 23 153 115 69 12 18 3 1 3 1 1 1 2 1 1 3 2 0 0 6 106 102 94 24 0 0 0 0 0 0 0 0 0 0 0 0 0
0 0 0 0 0 0 0 1 15 39 29 15 1 93 185 112 34 1 0 2 2 2 2 2 1 2 0 1 0 0 0 4 40 63 68 51 2 0 1 0 0 0 0 0 0 0 0 0 0
0 0 0 0 0 0 0 0 22 25 38 46 4 117 115 130 68 1 0 1 1 3 3 3 2 1 2 0 0 1 0 1 15 22 26 11 0 0 0 0 0 0 0 0 0 0 0 0 0
0 0 0 0 0 0 0 0 0 5 8 51 277 289 231 103 41 1 0 2 1 1 2 2 1 0 0 0 0 0 2 7 0 10 22 0 0 0 0 0 0 0 0 0 0 0 0 0 0
0 0 0 0 0 0 0 0 0 0 0 19 264 208 167 75 5 1 3 3 3 2 2 2 1 0 0 0 0 0 0 0 26 40 0 0 0 0 0 0 0 0 0 0 0 0 0 0 0
0 0 0 0 0 0 0 0 0 0 0 53 113 111 96 87 0 0 1 1 2 2 2 1 2 0 0 0 0 0 0 0 5 38 19 0 0 0 0 0 0 0 0 0 0 0 0 0 0
0 0 0 0 0 0 0 0 0 0 0 52 258 129 0 77 0 0 0 2 1 1 1 1 3 2 0 0 0 4 0 7 14 51 39 14 0 0 0 0 0 0 0 0 0 0 0 0 0
0 0 0 0 0 0 0 0 0 37 53 152 170 108 26 82 16 0 0 1 1 0 1 4 1 0 0 0 0 0 0 13 40 64 53 40 5 0 0 0 0 0 0 0 0 0 0 0 0
0 0 0 0 0 0 0 0 0 5 44 234 98 287 211 91 49 2 0 0 1 1 0 2 0 0 0 0 0 4 10 28 44 54 81 60 49 11 16 0 0 0 0 0 0 0 0 0 0
0 0 0 0 0 7 4 0 0 0 0 49 126 134 128 121 15 0 0 0 0 0 0 1 0 0 0 0 0 5 2 6 10 33 48 71 66 32 19 4 0 0 0 0 0 0 0 0 0
0 0 0 0 0 4 0 0 0 10 0 0 94 89 57 96 49 0 0 0 1 0 0 0 0 0 0 0 0 0 0 0 0 0 0 0 0 6 6 0 0 0 0 0 0 0 0 0 0
0 0 0 0 0 0 0 0 0 0 3 9 30 25 76 75 68 0 0 0 0 0 0 0 0 0 0 0 0 0 0 0 0 0 0 0 0 0 0 13 3 0 0 0 0 0 0 0 0
0 0 0 0 0 2 0 0 0 0 0 0 11 27 75 106 54 0 0 0 0 0 0 0 0 0 0 0 0 0 0 0 0 0 0 0 6 7 12 4 0 0 0 0 0 0 0 0 0
0 0 0 2 0 0 0 0 0 0 0 0 0 120 132 183 87 27 0 0 0 0 0 0 0 0 0 0 0 0 0 0 0 0 0 0 0 23 37 48 16 23 5 0 0 0 0 0 0
0 0 0 0 0 0 0 0 0 0 0 0 1 92 189 227 118 56 0 0 0 0 0 0 0 0 0 0 0 0 0 0 0 0 0 0 0 14 46 94 96 67 23 4 0 0 0 0 0
0 0 0 0 0 0 0 0 0 0 0 0 8 115 180 221 156 80 1 0 0 0 0 0 0 0 0 0 0 0 0 0 0 0 0 0 0 43 90 106 123 70 28 0 0 0 0 0 0
0 0 0 0 0 0 0 0 0 0 0 0 0 35 143 155 155 129 31 0 0 0 0 0 0 0 0 0 0 0 2 0 0 0 0 0 0 6 45 95 75 43 4 0 0 0 0 0 0
0 0 0 0 0 0 0 0 0 0 0 0 0 0 77 94 92 90 24 1 0 0 0 0 0 0 0 0 0 0 0 14 15 0 0 0 0 17 52 45 45 1 0 0 0 0 0 0 0
0 0 1 2 0 0 0 0 0 0 0 0 0 0 1 54 98 106 72 30 3 1 0 0 0 0 0 0 0 0 0 6 32 1 0 0 0 0 2 15 0 0 0 0 0 0 0 0 0
0 0 24 8 1 0 0 0 0 0 0 0 0 0 1 2 0 37 83 105 49 6 0 10 4 4 0 1 5 0 16 19 22 8 0 0 0 5 18 5 0 0 0 0 0 0 0 0 0
0 0 0 4 0 0 0 0 0 0 0 0 0 0 0 0 0 0 13 49 78 109 55 8 33 16 1 1 10 24 28 47 18 18 30 41 12 0 0 0 0 0 0 1 0 0 0 0 0

GFSSGP_con_mlcape_078.txt.gz
CAPE
0 0 0 0 0 0 0 0 0 0 0 0 23 21 64 116 80 15 476 348 501 1482 1426 1148 1030 1004 1046 406 869 1163 1396 1243 988 862 704 791 616 414 214 180 94 29 3 7 11 8 4 6 9
0 0 0 0 0 0 0 0 0 0 0 0 34 131 112 144 368 319 412 382 443 1034 1230 899 908 727 594 481 350 678 1294 1117 1013 913 731 627 458 232 169 138 70 42 22 6 8 8 3 2 3
0 0 0 0 0 0 0 0 0 0 0 0 0 41 120 119 677 758 539 360 419 503 811 682 443 171 253 171 135 327 933 1101 989 809 656 555 350 207 166 106 70 54 72 72 41 19 9 0 0
0 0 0 0 0 0 0 0 0 0 0 0 0 1 27 22 320 497 286 274 538 575 614 601 313 146 125 67 22 6 335 642 854 763 597 453 267 169 122 85 73 33 15 4 9 11 1 0 0
0 0 0 0 0 0 0 0 0 0 0 0 0 0 1 0 72 16 109 174 505 443 354 480 185 28 38 29 22 0 25 317 483 624 393 383 247 77 59 25 49 9 0 0 4 2 0 0 0
0 0 0 0 0 0 0 0 0 0 0 0 15 3 4 95 0 25 100 148 213 389 338 386 242 198 225 254 213 128 64 226 391 487 369 357 172 62 20 33 5 0 0 0 0 0 0 0 0
0 0 0 0 0 0 0 0 0 0 6 18 42 3 1 20 0 31 36 31 69 122 316 192 170 47 21 13 74 158 118 86 264 300 390 328 111 56 28 1 0 0 0 0 0 0 0 0 0
0 0 0 0 0 0 0 0 0 0 0 34 67 19 0 0 1 2 0 0 2 18 47 100 38 0 0 24 1 22 117 48 163 144 239 257 108 37 0 0 0 0 0 0 0 0 0 0 0
0 0 0 0 0 0 0 0 0 0 0 20 116 154 24 0 1 0 0 0 0 4 4 5 4 0 0 0 46 36 69 66 27 67 130 179 50 16 0 0 0 0 0 0 0 0 0 0 0
0 0 0 0 0 0 0 0 0 0 0 1 46 36 12 12 17 1 0 0 0 0 1 1 0 0 0 0 3 90 40 32 40 72 124 124 22 0 0 0 0 0 0 0 0 0 0 0 0
0 0 0 0 0 0 0 0 0 0 0 0 3 16 28 20 10 1 0 0 0 1 2 2 1 0 0 0 0 3 1 5 37 22 130 39 0 0 0 0 0 0 0 0 0 0 0 0 0
0 0 0 0 0 0 0 0 0 0 0 1 0 9 19 16 21 0 0 0 0 1 1 2 1 1 0 0 1 2 16 13 0 24 43 21 0 0 0 0 0 0 0 0 0 0 0 0 0
0 0 0 0 0 0 0 0 0 0 0 0 1 27 28 27 8 0 0 1 1 1 1 1 0 0 1 0 0 2 6 4 7 22 36 4 0 0 0 0 0 0 0 0 0 0 0 0 0
0 0 0 0 0 0 0 0 0 0 0 2 18 31 35 15 1 0 0 4 2 1 2 1 1 0 0 0 1 1 2 14 38 48 37 6 0 0 0 0 0 0 0 0 0 0 0 0 0
0 0 0 0 0 0 0 0 0 0 0 0 13 19 18 11 0 0 0 1 3 1 2 1 0 1 0 0 0 2 0 4 44 46 4 2 0 0 0 0 0 0 0 0 0 0 0 0 0
0 0 0 0 0 0 0 0 0 0 0 0 0 10 38 9 0 0 0 3 1 2 2 1 1 1 0 0 0 9 6 19 44 51 10 1 0 0 0 0 0 0 0 0 0 0 0 0 0
0 0 0 0 0 0 0 0 0 0 0 0 0 6 34 6 0 1 0 1 3 1 2 2 2 1 1 3 6 13 11 3 20 49 29 6 0 0 0 0 0 0 0 0 0 0 0 0 0
0 0 0 0 0 0 0 0 0 0 0 0 0 3 53 8 1 1 0 0 3 1 2 2 1 2 1 7 13 9 8 7 29 20 27 8 0 0 0 0 0 0 0 0 0 0 0 0 0
0 0 0 0 0 0 0 0 0 0 0 0 0 4 45 38 11 1 1 1 4 1 3 2 1 3 2 3 1 5 0 5 19 13 20 43 0 0 0 0 0 0 0 0 0 0 0 0 0
0 0 0 0 0 0 0 0 0 0 0 0 0 6 78 75 43 3 1 0 1 1 4 2 1 2 0 0 2 0 1 13 17 39 38 13 0 0 0 0 0 0 0 0 0 0 0 0 0
0 0 0 0 0 0 0 0 0 0 0 0 0 0 3 107 74 19 0 1 1 2 2 1 0 0 0 0 0 0 0 16 40 55 62 57 20 4 0 0 0 0 0 0 0 0 0 0 0
0 0 0 0 0 0 0 0 0 0 0 0 0 0 0 3 56 11 0 0 0 0 1 1 0 0 0 0 0 0 0 12 21 18 39 34 48 49 0 0 0 3 0 0 0 0 0 0 0
0 0 0 0 0 0 0 0 0 0 0 0 0 0 0 0 0 6 0 0 0 0 1 0 0 0 0 0 0 0 0 0 0 3 15 14 14 5 19 14 9 7 0 0 0 0 0 0 0
0 0 0 0 0 0 0 0 0 0 0 0 0 0 0 0 0 0 0 0 0 0 1 0 0 0 0 0 0 0 0 0 0 0 0 0 0 0 0 6 14 21 13 0 1 0 0 0 0
0 0 0 0 0 0 0 0 0 0 0 0 0 0 0 0 0 0 0 0 0 0 0 0 0 0 0 0 0 0 0 0 0 0 0 0 0 0 0 2 4 8 7 0 4 0 0 0 0
0 0 0 0 0 0 0 0 0 0 0 0 0 0 0 0 0 0 0 0 0 0 0 0 0 0 0 0 0 0 0 0 0 0 0 0 0 0 0 0 0 0 0 0 0 0 0 0 0
0 0 0 0 0 0 0 0 0 0 0 0 0 0 0 0 0 0 0 0 0 0 0 0 0 0 0 0 0 0 0 0 0 0 0 0 0 0 0 0 0 0 0 0 0 0 0 0 0
0 0 0 0 0 0 0 0 0 0 0 0 0 0 0 0 0 0 0 0 0 0 0 0 0 0 0 0 0 0 0 0 0 0 0 0 0 0 0 0 0 0 0 0 0 0 0 0 0
0 0 0 0 0 0 0 0 0 0 0 0 0 0 0 0 0 1 3 0 0 0 0 0 0 0 0 0 0 0 0 0 0 0 0 0 0 0 0 0 0 0 0 0 0 2 0 0 0
0 0 0 0 0 0 0 0 0 0 0 0 0 0 0 0 0 0 17 16 0 0 0 0 0 0 0 0 0 0 0 0 0 0 0 0 0 0 0 0 0 4 0 0 0 0 0 0 0

GFSSGP_con_mlcape_081.txt.gz
CAPE
0 0 0 0 0 0 0 0 0 0 0 0 0 4 26 98 40 6 398 418 597 1460 1677 1449 1192 1181 1098 1381 1626 1574 1536 1450 1191 912 830 860 844 762 661 424 200 56 5 7 8 11 20 11 16
0 0 0 0 0 0 0 0 0 0 0 0 1 98 76 74 342 357 430 377 488 1043 1610 1525 1309 1173 1023 1160 1335 1506 1554 1411 1268 977 952 866 782 629 506 252 148 47 8 13 7 6 17 10 4
0 0 0 0 0 0 0 0 0 0 0 0 0 3 53 117 548 689 454 278 337 566 1078 1303 1214 1089 738 599 622 896 1181 637 1152 1200 1080 825 638 579 461 222 129 12 7 5 12 10 4 4 1
0 0 0 0 0 0 0 0 0 0 0 0 0 0 5 36 328 466 284 274 347 574 795 933 982 893 760 556 349 351 358 214 689 1109 987 743 629 537 366 199 52 8 5 91 11 4 3 0 0
0 0 0 0 0 0 0 0 0 0 0 0 0 0 0 0 24 34 83 115 482 595 586 586 689 719 510 325 318 332 109 322 373 787 896 674 608 445 233 158 148 127 86 17 10 1 0 0 0
0 0 0 0 0 0 0 0 0 0 0 0 0 0 0 0 9 18 38 37 94 429 440 382 269 310 277 443 256 177 187 113 115 298 617 594 483 334 178 144 36 0 0 13 2 0 0 0 0
0 0 0 0 0 0 0 0 0 0 0 0 0 0 0 7 13 20 17 8 5 146 325 465 248 234 191 118 99 44 13 82 51 156 370 317 298 195 141 44 0 14 0 1 0 0 0 0 0
0 0 0 0 0 0 0 0 0 0 0 0 1 0 0 4 12 23 0 0 0 16 219 259 222 85 63 195 136 147 17 1 49 215 170 172 149 194 65 28 0 19 1 0 0 0 0 0 0
0 0 0 0 0 0 0 0 0 0 0 0 29 13 35 8 0 2 1 0 1 1 39 137 93 20 14 19 45 150 150 49 197 234 140 87 121 63 35 1 3 62 0 0 0 0 0 0 0
0 0 0 0 0 0 0 0 0 0 0 0 2 23 15 1 1 4 9 1 0 0 0 1 15 3 0 1 42 97 43 69 73 162 54 38 16 13 7 0 19 69 0 0 0 0 0 0 0
0 0 0 0 0 0 0 0 0 0 0 0 0 0 8 5 15 17 1 0 0 1 2 1 0 0 0 0 12 57 95 82 48 19 35 16 45 12 0 0 0 23 20 0 0 0 0 0 0
0 0 0 0 0 0 0 0 0 0 0 0 0 0 2 7 21 13 1 1 2 1 2 2 1 0 0 0 1 1 23 7 5 32 7 17 35 6 0 0 0 0 6 19 0 0 0 0 0
0 0 0 0 0 0 0 0 0 0 0 0 0 0 1 2 22 1 0 0 1 1 2 1 0 0 0 0 1 2 8 6 8 42 21 0 0 0 0 0 0 0 0 0 0 0 0 0 0
0 0 0 0 0 0 0 0 0 0 0 0 0 0 1 5 11 0 0 0 0 1 2 1 0 0 0 0 1 2 3 1 27 10 13 0 0 0 0 0 0 0 0 0 0 0 0 0 0
0 0 0 0 0 0 0 0 0 0 0 0 0 0 4 4 0 1 2 0 0 0 2 0 0 0 0 0 2 2 0 1 3 46 14 0 0 0 0 0 0 0 0 0 0 0 0 0 0
0 0 0 0 0 0 0 0 0 0 0 0 0 0 0 1 2 2 0 1 0 1 1 1 1 0 0 0 1 4 5 5 9 46 15 0 0 0 0 0 0 0 0 0 0 0 0 0 0
0 0 0 0 0 0 0 0 0 0 0 0 0 0 0 0 0 1 0 1 0 2 2 2 1 1 0 0 1 1 2 20 10 38 25 0 0 0 0 0 0 0 0 0 0 0 0 0 0
0 0 0 0 0 0 0 0 0 0 0 0 0 0 0 0 0 1 0 1 2 1 4 2 2 1 0 0 4 2 12 21 58 52 11 1 0 0 0 0 0 0 0 0 0 0 0 0 0
0 0 0 0 0 0 0 0 0 0 0 0 0 0 0 8 23 1 0 1 1 2 4 2 1 2 4 1 7 2 10 31 71 55 19 11 1 0 0 0 0 0 0 0 0 0 0 0 0
0 0 0 0 0 0 0 0 0 0 0 0 0 5 1 45 34 1 0 3 1 2 4 3 2 1 0 2 2 3 10 40 30 26 36 27 4 0 0 0 0 0 0 0 0 0 0 0 0
0 0 0 0 0 0 0 0 0 0 0 0 0 0 2 27 52 7 1 0 0 1 2 2 2 2 1 3 0 0 0 4 14 10 7 27 13 0 0 0 0 0 0 0 0 0 0 0 0
0 0 0 0 0 0 0 0 0 0 0 0 0 0 0 27 86 19 2 3 0 2 4 4 1 2 2 0 2 1 0 0 0 0 1 1 0 0 0 0 0 0 0 0 0 0 0 0 0
0 0 0 0 0 0 0 0 0 0 0 0 0 0 0 4 12 28 0 1 0 0 1 1 2 3 2 1 0 0 5 3 0 0 0 4 5 1 0 0 0 0 0 0 0 0 0 0 0
0 0 0 0 0 0 0 0 0 0 0 0 0 0 0 0 0 19 1 2 0 0 1 1 1 3 3 2 3 0 0 0 0 0 5 6 21 6 11 12 0 0 0 4 10 3 0 0 0
0 0 0 0 0 0 0 0 0 0 0 0 0 0 0 0 0 1 0 0 0 1 0 1 1 3 2 0 0 0 0 0 0 0 0 0 3 0 0 0 22 30 21 31 39 25 3 0 0
0 0 0 0 0 0 0 0 0 0 0 0 0 0 0 0 0 0 4 0 0 0 0 0 2 2 2 2 0 0 0 0 0 0 1 0 0 0 0 0 9 9 11 17 21 10 0 0 0
0 0 0 0 0 0 0 0 0 0 0 0 0 0 0 0 0 0 0 0 0 0 0 0 0 1 1 1 1 0 0 0 0 0 0 0 0 0 0 0 0 0 0 0 2 0 0 0 0
0 0 0 0 0 0 0 0 0 0 0 0 0 0 0 0 0 0 0 0 0 0 0 0 0 0 0 0 0 0 0 0 0 0 0 0 0 0 0 0 0 0 0 6 7 0 7 1 0
0 0 0 0 0 0 0 0 0 0 0 0 0 0 0 0 0 0 1 3 0 0 0 0 0 0 0 0 0 0 0 0 0 0 0 0 0 0 0 0 0 0 3 8 1 0 3 0 0
0 0 0 0 0 0 0 0 0 0 0 0 0 0 0 0 0 0 6 12 0 0 0 0 0 0 0 0 0 0 0 0 0 0 0 0 0 0 0 0 0 0 1 0 0 0 0 0 0

GFSSGP_con_mlcape_084.txt.gz
CAPE
0 0 0 0 0 0 0 0 0 0 0 0 0 0 2 22 0 4 984 1052 1147 1298 1653 1412 1092 846 856 1619 1698 1405 1276 1378 1339 1126 850 922 928 1009 950 768 484 331 110 48 26 16 10 10 3
0 0 0 0 0 0 0 0 0 0 0 0 0 25 88 2 387 686 1031 1021 1019 1133 1753 1780 1364 1159 1035 1032 1557 1506 1472 1474 1313 1109 956 986 1043 1102 893 540 287 128 66 11 23 21 16 13 2
0 0 0 0 0 0 0 0 0 0 0 0 0 1 36 46 708 960 961 814 919 1007 1392 1944 1408 1279 1249 1562 1440 1074 869 1330 1231 1081 1041 1042 1111 1012 707 364 145 67 8 14 26 19 18 6 0
0 0 0 0 0 0 0 0 0 0 0 0 0 0 36 144 814 1115 705 703 614 929 1230 1669 1338 1337 1366 1015 774 476 392 623 461 660 665 1085 994 884 594 316 195 66 64 11 11 20 15 0 0
0 0 0 0 0 0 0 0 0 0 0 0 0 0 9 69 289 400 393 311 497 748 976 1375 1189 1228 1095 579 235 226 340 386 126 92 465 698 875 642 429 281 114 68 31 6 7 4 3 0 0
0 0 0 0 0 0 0 0 0 0 0 0 0 0 19 167 107 184 163 165 381 682 789 953 943 944 724 570 454 415 220 237 247 22 279 524 800 637 407 224 163 144 44 0 2 3 0 0 0
0 0 0 0 0 0 0 0 0 0 0 0 0 0 43 173 165 147 64 186 182 429 637 730 755 722 328 548 284 327 308 346 333 72 214 399 648 464 372 404 250 166 0 0 0 0 0 0 0
0 0 0 0 0 0 0 0 0 0 0 0 0 0 0 268 158 187 149 122 21 75 262 460 521 685 558 403 112 112 155 303 327 260 221 251 274 312 268 187 150 92 0 0 0 0 0 0 0
0 0 0 0 0 0 0 0 0 0 0 0 14 23 232 119 102 94 53 26 17 1 66 220 321 254 146 248 246 184 40 102 39 27 75 94 102 236 154 140 129 76 0 0 0 0 0 0 0
0 0 0 0 0 0 0 0 0 0 0 0 3 67 139 142 128 173 205 322 201 123 0 10 41 73 104 179 133 116 258 125 42 28 71 60 88 131 134 163 134 55 0 0 0 0 0 0 0
0 0 0 0 0 0 0 0 0 0 0 0 0 0 117 124 175 112 173 151 177 20 2 1 1 4 0 4 68 128 304 200 112 33 25 53 52 97 138 130 110 34 0 0 0 0 0 0 0
0 0 0 0 0 0 0 0 0 0 0 0 0 0 39 85 139 115 203 80 3 3 3 3 1 1 0 0 3 49 237 145 146 7 6 24 1 30 86 107 61 24 1 0 0 0 0 0 0
0 0 0 0 0 0 0 0 0 0 0 0 0 0 14 98 112 180 79 5 0 1 3 4 2 0 1 2 17 8 58 39 13 0 1 2 16 1 56 93 101 44 28 3 0 0 0 0 0
0 0 0 0 0 0 0 0 0 0 0 0 0 0 17 83 146 198 53 0 1 6 3 3 4 1 6 5 2 0 8 3 0 5 5 2 7 15 15 18 16 83 86 51 1 0 0 0 0
0 0 0 0 0 0 0 0 0 0 0 0 0 2 25 112 140 149 20 0 1 2 3 4 4 1 3 11 2 1 2 6 4 0 4 24 38 27 2 0 0 1 6 9 0 0 0 0 0
0 0 0 0 0 0 0 0 0 0 0 0 0 17 45 108 138 145 1 0 2 1 2 4 3 2 6 3 3 0 4 5 16 13 19 26 23 1 0 0 0 0 0 0 0 0 0 0 0
0 0 0 0 0 0 0 0 0 0 0 0 0 20 64 83 84 98 0 0 2 1 2 4 4 2 5 5 2 3 1 0 16 14 10 7 0 0 0 0 0 0 0 0 0 0 0 0 0
0 0 0 0 0 0 0 0 0 0 0 0 0 24 52 61 55 96 0 1 4 2 3 3 3 1 2 5 4 6 13 10 1 22 16 0 0 0 0 0 0 0 0 0 0 0 0 0 0
0 0 0 0 0 0 0 0 0 0 0 0 0 4 51 54 94 153 1 3 2 6 2 2 1 4 8 5 3 6 4 16 12 18 9 1 0 0 0 0 0 0 0 0 0 0 0 0 0
0 0 0 0 0 0 0 0 0 0 0 0 0 3 46 90 155 186 3 6 3 5 4 2 0 2 2 6 6 4 13 5 5 6 18 2 0 0 0 0 0 0 0 0 0 0 0 0 0
0 0 0 0 0 0 0 0 0 0 0 0 0 0 28 89 238 231 49 2 5 9 6 1 4 0 2 9 5 2 7 40 25 29 17 17 8 0 0 0 0 0 17 8 0 0 0 0 0
0 0 0 0 0 0 0 0 0 0 0 0 0 0 15 56 158 322 168 5 3 5 7 7 3 3 1 8 5 1 1 2 20 28 16 20 44 42 6 2 6 21 10 0 8 4 1 0 5
0 0 0 0 0 0 0 0 0 0 0 0 0 0 0 32 149 367 294 72 17 2 3 7 3 4 2 4 1 0 3 0 17 9 3 15 55 83 27 12 10 20 0 6 24 14 20 16 18
0 0 0 0 0 0 0 0 0 0 0 0 0 0 0 1 107 345 368 106 34 2 0 9 3 6 2 2 4 1 1 0 5 0 0 0 25 57 78 34 22 16 13 23 69 83 72 41 44
0 0 0 0 0 0 0 0 0 0 0 0 0 0 0 0 34 247 377 262 36 0 1 0 8 7 3 1 2 6 1 0 0 0 0 0 1 16 72 74 7 18 35 56 119 172 186 168 123
0 0 0 0 0 0 0 0 0 0 0 0 0 0 0 0 24 179 359 347 39 0 0 0 1 3 4 1 4 5 13 2 0 0 0 0 4 5 58 111 105 125 141 166 208 224 236 207 176
0 0 0 0 0 0 0 0 0 0 0 0 0 0 0 0 7 113 286 317 107 7 0 0 2 4 2 1 2 4 9 11 9 0 0 0 18 23 76 80 105 135 176 205 206 180 174 225 210
0 0 0 0 0 0 0 0 0 0 0 0 0 0 0 0 0 84 180 304 185 40 0 0 0 1 3 8 6 6 6 9 9 15 8 1 9 16 11 27 54 89 95 93 116 118 168 208 179
0 0 0 0 0 0 0 0 2 0 0 0 0 0 0 0 0 59 131 229 247 116 15 0 0 0 0 1 5 5 5 3 1 3 5 5 8 7 5 7 15 8 2 14 57 105 148 143 119
0 0 0 0 0 0 0 0 0 0 0 0 0 0 0 0 2 71 111 150 164 174 86 12 0 0 0 0 0 1 3 1 0 0 0 0 0 0 3 2 0 0 0 0 5 29 79 42 3

GFSSGP_con_mlcape_087.txt.gz
CAPE
0 0 0 0 0 0 0 0 0 0 0 0 0 0 0 0 0 44 1034 1354 1584 1723 1682 1529 816 719 1302 1908 1715 1395 1221 1294 1278 1153 941 937 900 832 633 792 696 510 296 186 106 51 15 12 4
0 0 0 0 0 0 0 0 0 0 0 0 0 0 0 0 36 218 833 1284 1395 1632 1902 1910 1226 930 864 1633 1570 1400 1307 1367 1317 1115 998 975 1076 851 826 684 606 479 334 173 49 0 17 9 0
0 0 0 0 0 0 0 0 0 0 0 0 0 0 1 1 77 506 1359 1203 1228 1500 1748 2162 1603 1049 1007 907 1137 1225 1149 1030 1076 1051 981 1059 1178 967 897 704 550 411 247 121 40 6 14 0 0
0 0 0 0 0 0 0 0 0 0 0 0 0 0 0 270 272 1102 1094 1049 979 1166 1727 1724 1558 1367 1424 1136 686 618 475 507 584 867 816 885 812 908 588 467 331 244 233 119 56 12 3 0 0
0 0 0 0 0 0 0 0 0 0 0 0 0 0 4 97 607 745 805 664 846 1093 1328 1670 1415 1288 1434 1339 697 408 1 112 11 36 152 380 470 728 485 348 256 239 177 87 37 2 0 0 0
0 0 0 0 0 0 0 0 0 0 0 0 0 0 1 287 247 390 452 365 581 918 1151 1301 1309 1022 1194 1107 555 187 107 142 7 28 165 181 288 397 321 308 195 145 28 4 4 0 0 0 0
0 0 0 0 0 0 0 0 0 0 0 0 0 0 25 357 184 484 303 344 487 673 857 1106 1380 953 609 601 412 230 142 86 73 34 59 46 148 221 274 252 186 87 0 2 1 0 0 0 0
0 0 0 0 0 0 0 0 0 0 0 0 0 0 0 419 529 417 365 356 365 492 726 878 1133 1222 734 714 189 223 233 198 61 124 56 85 98 125 244 294 203 77 0 0 2 0 0 0 0
0 0 0 0 0 0 0 0 0 0 0 0 0 0 132 392 281 351 364 236 288 340 511 679 860 930 720 697 457 77 78 92 85 45 77 20 113 161 218 272 144 9 0 0 0 0 0 0 0
0 0 0 0 0 0 0 0 0 0 0 0 0 0 21 200 147 271 355 398 494 341 354 406 347 609 636 364 427 231 209 71 144 84 75 65 141 201 192 222 90 4 0 0 0 0 0 0 0
0 0 0 0 0 0 0 0 0 0 0 0 0 0 6 110 146 219 234 252 476 329 142 78 5 21 282 361 230 190 308 78 62 42 65 87 53 95 140 154 130 4 0 0 0 0 0 0 0
0 0 0 0 0 0 0 0 0 0 0 0 0 0 0 0 91 156 203 338 249 154 3 2 3 1 2 0 5 204 144 318 90 33 8 97 23 74 154 182 107 0 0 0 0 0 0 0 0
0 0 0 0 0 0 0 0 0 0 0 0 0 0 0 0 40 129 216 346 180 161 1 2 3 2 1 1 1 1 109 208 53 66 14 69 38 34 72 112 77 0 1 2 0 1 0 0 0
0 0 0 0 0 0 0 0 0 0 0 0 0 0 0 2 71 119 362 240 97 57 5 0 5 3 2 0 0 26 17 103 16 10 6 1 0 29 22 129 90 89 31 19 14 3 0 0 0
0 0 0 0 0 0 0 0 0 0 0 0 0 0 0 7 89 154 383 201 69 27 5 3 4 3 1 16 1 1 8 4 4 2 1 1 0 12 48 108 98 135 104 81 60 18 0 0 0
0 0 0 0 0 0 0 0 0 0 0 0 0 0 0 28 124 193 279 156 44 17 4 1 1 2 5 4 2 2 1 2 2 2 3 0 0 0 0 73 124 149 153 83 31 6 0 0 0
0 0 0 0 0 0 0 0 0 0 0 0 0 0 0 53 157 211 266 108 45 6 6 0 2 1 4 5 3 2 2 3 2 3 2 0 0 0 0 48 54 59 69 38 31 0 0 0 0
0 0 0 0 0 0 0 0 0 0 0 0 0 0 0 60 119 153 220 66 62 0 1 4 1 0 7 5 5 3 1 1 0 1 0 0 4 2 33 28 3 1 0 10 0 0 0 0 0
0 0 0 0 0 0 0 0 0 0 0 0 0 0 0 32 72 142 213 59 79 1 1 4 3 1 4 2 4 3 4 3 0 0 0 1 14 19 20 1 0 0 0 0 0 0 0 0 0
0 0 0 0 0 0 0 0 0 0 0 0 0 0 0 13 56 210 226 48 42 5 1 3 3 1 4 3 6 2 2 1 1 1 0 0 2 16 32 35 12 0 0 0 0 0 0 0 0
0 0 0 0 0 0 0 0 0 0 0 0 0 0 0 9 105 228 333 76 2 2 0 1 3 4 10 5 4 5 13 27 26 4 0 0 1 13 46 89 14 11 5 22 33 21 0 1 0
0 0 0 0 0 0 0 0 0 0 0 0 0 0 0 0 41 346 424 181 72 58 0 11 3 3 9 12 5 1 0 0 1 0 0 36 53 6 0 22 29 18 23 49 82 84 88 50 29
0 0 0 0 0 0 0 0 0 0 0 0 0 0 0 0 2 307 504 291 235 181 2 8 6 3 5 7 2 2 0 0 0 0 0 30 44 24 0 0 56 123 130 142 119 120 113 98 85
0 0 0 0 0 0 0 0 0 0 0 0 0 0 0 0 0 153 545 413 339 153 2 6 7 2 3 3 5 1 1 0 2 1 4 9 27 18 14 14 58 121 150 108 157 155 138 134 106
0 0 0 0 0 0 0 0 0 0 0 0 0 0 0 0 0 92 585 492 380 198 0 6 7 3 1 1 4 2 1 0 10 0 0 1 1 1 22 39 92 112 137 105 122 164 182 185 158
0 0 3 13 16 33 13 3 0 0 0 0 0 0 0 0 0 46 480 543 381 264 1 0 1 5 6 2 3 8 3 1 3 10 0 0 0 1 20 68 83 77 107 120 146 184 249 253 258
0 0 0 0 0 0 0 8 10 0 0 0 0 0 0 0 0 16 282 624 451 299 59 0 0 8 5 6 2 2 2 16 3 0 0 0 0 0 2 79 37 91 126 165 176 222 277 261 299
0 0 0 0 0 6 10 1 0 0 0 0 0 0 0 0 0 10 179 666 583 273 160 16 1 8 5 4 6 4 13 15 10 0 0 1 0 0 22 52 73 89 152 255 216 251 256 226 282
0 0 0 0 0 0 13 20 9 12 1 4 2 0 0 0 0 1 157 519 654 328 245 59 3 0 15 3 2 4 5 15 16 9 0 7 0 2 12 31 38 119 174 217 167 186 197 136 165
0 0 0 0 0 7 8 2 10 14 6 7 0 0 0 0 0 0 188 431 596 451 341 136 23 7 41 35 7 4 6 4 7 17 9 2 0 0 11 26 55 91 107 112 98 114 91 100 105

GFSSGP_con_mlcape_090.txt.gz
CAPE
0 0 0 0 0 0 0 0 0 0 0 0 0 0 0 0 0 235 981 1347 1619 1751 1622 1233 794 901 1320 1781 1443 1204 1139 1208 1231 912 811 958 909 720 620 664 596 523 548 449 317 188 73 14 0
0 0 0 0 0 0 0 0 0 0 0 0 0 0 0 0 23 653 1504 1213 1543 1704 2104 1874 958 739 1140 1780 1707 1457 1182 1220 1273 1077 902 1012 943 740 748 745 707 578 464 408 203 132 56 3 0
0 0 0 0 0 0 0 0 0 0 0 0 0 0 0 0 48 946 1440 1144 1188 1560 1851 1982 1382 869 754 1494 1659 1668 1378 1154 1114 1229 1037 975 959 822 912 814 676 644 486 210 108 78 36 1 0
0 0 0 0 0 0 0 0 0 0 0 0 0 0 0 4 3 1101 1137 996 970 1262 1739 1723 1630 1429 1122 994 1459 1437 1284 881 674 12 1 890 977 871 910 656 506 436 291 126 76 51 12 3 1
0 0 0 0 0 0 0 0 0 0 0 0 0 0 0 35 725 843 988 835 891 1087 1529 1725 1482 1430 1349 1138 978 1205 922 711 356 39 1 24 527 592 549 535 462 375 275 149 46 20 3 0 0
0 0 0 0 0 0 0 0 0 0 0 0 0 0 0 130 364 620 792 495 681 960 1296 1245 1262 1158 1283 1329 1128 887 469 205 13 0 0 0 149 147 204 371 342 409 273 101 49 19 2 0 0
0 0 0 0 0 0 0 0 0 0 0 0 0 0 5 186 211 662 504 475 568 695 910 1198 1103 923 868 1142 965 504 257 25 40 0 0 4 104 102 160 177 291 308 143 41 21 3 0 0 0
0 0 0 0 0 0 0 0 0 0 0 0 0 0 0 280 596 458 414 401 529 567 756 900 1015 940 802 765 636 347 326 174 43 10 5 0 78 85 156 150 202 153 39 23 2 0 0 0 0
0 0 0 0 0 0 0 0 0 0 0 0 0 0 24 758 541 398 531 421 382 388 488 610 609 979 767 672 279 221 329 156 114 55 13 1 22 65 129 90 122 58 6 1 0 0 0 0 0
0 0 0 0 0 0 0 0 0 0 0 0 0 0 5 333 157 196 322 354 495 443 455 420 463 737 724 698 177 127 175 159 64 22 48 12 5 41 88 94 87 37 3 1 0 0 0 0 0
0 0 0 0 0 0 0 0 0 0 0 0 0 0 0 35 133 93 81 118 466 760 345 196 70 79 566 548 172 71 99 15 42 31 46 0 46 65 69 145 58 9 0 0 0 0 0 0 0
0 0 0 0 0 0 0 0 0 0 0 0 0 0 0 0 0 1 20 87 88 460 208 76 0 1 9 87 149 78 62 48 48 47 35 0 55 81 105 67 11 0 0 0 0 0 0 0 0
0 0 0 0 0 0 0 0 0 0 0 0 0 0 0 0 0 0 0 52 165 334 30 0 0 0 2 0 3 5 78 129 38 41 32 10 30 64 85 67 1 0 0 0 0 0 0 0 0
0 0 0 0 0 0 0 0 0 0 0 0 0 0 0 0 0 0 10 128 213 167 21 0 3 0 0 0 0 4 3 83 133 22 14 6 42 34 55 28 3 0 0 0 0 0 0 0 0
0 0 0 0 0 0 0 0 0 0 0 0 0 0 0 0 0 0 41 299 164 36 43 0 0 1 3 0 0 0 23 22 41 63 23 16 4 19 19 9 8 9 17 0 12 0 0 0 0
0 0 0 0 0 0 0 0 0 0 0 0 0 0 0 0 0 8 66 390 99 32 15 0 1 0 6 2 2 4 5 13 0 0 20 3 6 1 24 6 51 26 42 16 16 5 0 0 0
0 0 0 0 0 0 0 0 0 0 0 0 0 0 0 2 0 56 178 264 56 16 2 0 0 1 0 3 3 0 0 0 2 1 1 1 1 0 30 32 69 97 81 49 27 0 0 0 0
0 0 0 0 0 0 0 0 0 0 0 0 0 0 0 3 4 151 229 210 38 17 0 0 0 3 1 2 1 2 2 2 1 2 1 1 0 0 1 11 26 48 49 39 13 2 3 1 1
0 0 0 0 0 0 0 1 0 0 0 0 0 0 0 0 20 211 248 104 34 8 0 0 1 2 2 2 1 2 2 2 3 2 1 0 0 0 0 0 3 14 29 28 19 27 32 0 0
0 0 0 0 0 0 0 0 0 0 0 0 0 0 0 0 16 187 354 107 68 12 0 0 1 1 6 2 1 0 1 0 0 0 0 0 0 0 0 0 0 5 1 3 6 0 0 0 0
0 0 0 0 0 0 0 0 0 0 0 0 0 0 0 1 18 163 428 189 96 11 0 0 0 2 6 3 2 3 1 1 1 2 2 0 0 0 0 0 0 3 0 0 0 0 0 0 0
0 0 0 0 0 0 0 0 0 0 0 0 0 0 0 0 11 167 424 306 88 45 0 0 3 3 4 3 1 0 0 0 0 0 0 2 0 0 0 0 5 0 0 0 0 1 0 7 0
0 0 0 0 0 0 0 0 0 0 0 0 0 0 0 0 0 219 447 462 110 36 0 0 3 6 7 0 1 0 0 0 0 2 0 0 0 0 31 66 36 24 0 18 9 50 53 22 19
3 0 0 1 0 0 0 0 0 0 0 0 0 0 0 0 0 202 567 506 279 100 0 0 2 6 6 5 0 0 0 0 1 0 0 0 0 5 5 29 24 15 14 15 56 74 120 66 47
1 8 3 0 0 0 0 0 0 0 0 0 0 0 0 0 0 7 651 544 355 244 3 1 2 5 2 7 4 0 0 0 0 0 0 0 0 5 13 4 2 34 41 50 128 108 63 77 77
0 6 4 0 0 0 0 0 0 0 0 0 0 0 0 0 0 0 611 606 462 348 28 0 2 1 4 4 9 2 0 0 0 0 0 0 0 0 1 0 6 2 50 55 108 130 150 147 90
6 0 0 8 0 6 0 0 0 0 0 0 0 0 0 0 0 0 475 691 520 421 72 0 2 2 3 2 4 6 1 0 0 0 0 0 0 0 0 0 7 37 54 85 100 73 100 113 128
0 3 5 9 0 0 0 0 0 14 37 0 0 0 0 0 0 0 129 805 559 510 90 0 1 2 1 2 5 6 4 0 0 0 0 0 0 0 0 6 8 9 27 62 74 88 97 138 180
0 0 0 0 2 4 0 15 1 16 5 5 6 8 0 0 0 5 53 853 587 573 152 12 0 1 1 2 4 7 8 2 0 3 0 0 0 0 0 0 5 19 18 35 80 109 124 151 158
0 0 0 0 2 10 0 0 0 0 0 0 10 10 0 0 0 9 69 899 781 578 277 60 6 0 0 0 4 4 5 10 4 0 0 0 0 0 0 0 0 0 34 23 17 56 115 76 50

GFSSGP_con_mlcape_093.txt.gz
CAPE
0 0 0 0 0 0 0 0 0 0 0 0 0 0 0 0 0 25 1118 857 1637 1370 1093 943 849 1387 1512 1337 1265 1198 1137 1306 1117 834 718 582 578 546 462 407 340 292 457 508 510 402 409 367 151
0 0 0 0 0 0 0 0 0 0 0 0 0 0 0 0 432 945 1124 1578 1541 1645 1414 1013 880 1067 1521 1560 1419 1313 1306 1390 1291 1024 1082 846 655 579 591 507 429 766 730 581 319 215 256 176 60
0 0 0 0 0 0 0 0 0 0 0 0 0 0 0 29 797 1330 1171 1403 1470 1520 1820 1336 1006 892 1306 1639 1638 1504 1381 1404 1342 1042 162 62 652 829 748 679 671 686 728 503 291 140 111 32 18
0 0 0 0 0 0 0 0 0 0 0 0 0 0 0 18 441 979 855 815 1384 1601 1802 1491 1128 921 1076 1568 1761 1736 1502 1434 699 156 15 0 0 634 892 733 651 664 499 343 227 111 2 0 0
0 0 0 0 0 0 0 0 0 0 0 0 0 0 0 687 684 763 792 814 920 1541 1619 1592 1544 1409 1050 1324 1747 1729 1612 1429 427 25 19 5 0 0 521 506 669 554 349 254 89 40 0 0 4
0 0 0 0 0 0 0 0 0 0 0 0 0 0 0 588 500 589 577 489 756 1040 1263 1311 1393 1427 1406 1184 1119 1710 1580 1111 565 290 29 0 0 0 189 285 461 447 280 127 48 3 0 8 0
0 0 0 0 0 0 0 0 0 0 0 0 0 0 0 297 405 477 303 291 341 634 1083 1004 905 804 1057 1332 1124 1014 1123 855 485 48 1 0 0 19 167 262 295 339 173 54 32 14 23 4 0
0 0 0 0 0 0 0 0 0 0 0 0 0 0 0 247 377 288 151 268 246 244 566 919 792 618 663 988 997 695 494 92 18 2 0 0 0 5 172 139 213 235 149 42 18 3 18 8 0
0 0 0 0 0 0 0 0 0 0 0 0 0 0 0 320 316 107 63 212 237 156 362 544 734 652 619 685 643 517 363 86 15 5 0 0 4 50 80 118 182 168 95 18 11 3 4 0 0
0 0 0 0 0 0 0 0 0 0 0 0 0 0 104 354 302 59 16 0 124 208 171 252 267 699 589 488 331 332 361 141 4 10 16 0 3 53 44 99 73 103 57 0 0 4 0 0 0
0 0 0 0 0 0 0 0 0 0 0 0 0 0 259 280 90 44 63 82 203 274 225 167 63 121 646 566 201 101 178 107 32 44 3 4 16 17 14 68 72 39 4 0 0 0 0 0 0
0 0 0 0 0 0 0 0 0 0 0 0 0 0 0 1 0 0 25 5 162 402 191 27 0 0 72 462 227 124 20 6 7 35 11 1 6 27 10 3 2 0 0 0 0 0 0 0 0
0 0 0 0 0 0 0 0 0 0 0 0 0 0 0 0 0 0 0 0 126 251 20 0 0 0 0 101 217 122 49 6 2 24 4 13 23 14 6 1 0 0 0 0 0 0 0 0 0
0 0 0 0 0 0 0 0 0 0 0 0 0 0 0 0 0 0 0 0 79 35 0 0 0 0 1 0 2 2 25 23 1 18 1 12 26 32 9 0 0 0 0 0 0 0 0 0 0
0 0 0 0 0 0 0 0 0 0 0 0 0 0 0 0 0 0 0 0 129 38 0 0 0 0 0 0 0 0 1 18 18 5 27 1 32 39 0 0 0 0 0 0 0 0 0 0 0
0 0 0 0 0 0 0 0 0 0 0 0 0 0 0 0 0 0 0 22 34 0 0 0 0 0 2 0 0 0 3 0 40 6 4 11 30 16 1 0 0 0 0 0 0 0 0 0 0
0 0 0 0 0 0 0 0 0 0 0 0 0 0 0 0 0 0 29 17 13 0 0 0 0 0 3 3 1 0 5 8 6 6 6 7 16 16 1 0 0 0 0 0 2 0 0 0 0
0 0 0 0 0 0 0 0 0 0 0 0 0 0 0 0 0 11 41 1 7 0 0 0 0 0 2 0 0 0 1 0 0 0 3 7 6 4 2 0 0 15 0 9 2 0 0 0 0
0 0 0 0 0 0 0 0 0 0 0 0 0 0 0 0 0 33 72 0 0 0 0 0 0 0 0 0 1 0 0 1 1 0 0 0 2 1 1 0 8 36 9 3 3 0 0 0 0
0 0 0 0 0 0 0 0 0 0 0 0 0 0 0 0 0 52 45 5 0 0 0 0 0 1 2 0 0 0 2 2 1 2 2 1 1 1 0 0 2 20 20 13 0 0 0 0 0
0 0 0 0 0 0 0 0 0 0 0 0 0 0 0 0 1 65 32 0 0 0 0 0 0 8 1 1 1 1 1 2 2 1 1 1 1 0 0 0 0 6 24 8 0 0 4 0 0
0 0 0 0 0 0 0 0 0 0 0 0 0 0 0 0 1 90 20 0 0 0 0 0 0 3 2 1 1 0 0 1 1 0 0 0 2 0 0 0 0 0 1 0 0 12 0 0 0
0 0 0 0 0 0 0 0 0 0 0 0 0 0 0 0 1 69 55 17 0 0 0 0 0 3 1 0 0 0 1 0 1 1 1 0 0 0 0 0 0 0 0 0 0 0 0 0 0
0 0 3 0 0 0 0 0 0 0 0 0 0 0 0 0 0 78 110 18 0 0 0 0 0 3 1 0 0 0 0 0 0 1 1 0 0 0 0 0 0 0 0 2 0 0 0 0 0
0 0 4 0 0 0 0 0 0 0 0 0 0 0 0 0 0 113 147 74 0 0 0 0 0 6 2 1 0 0 0 0 0 0 0 0 0 0 0 0 0 0 0 6 0 0 4 11 12
0 0 3 0 0 1 5 0 0 0 0 0 0 0 0 0 1 140 237 167 41 0 0 0 0 6 6 1 0 0 0 0 0 0 0 0 0 0 0 0 2 3 0 0 7 4 6 30 24
0 0 4 31 27 9 0 0 0 0 0 0 0 0 0 0 11 245 312 248 137 0 0 0 0 1 5 5 0 0 0 0 0 0 0 0 0 0 0 0 0 0 11 12 15 11 9 22 0
0 4 13 20 1 0 0 0 0 0 0 0 0 0 0 0 7 315 329 301 216 3 0 0 0 0 1 9 3 0 0 0 0 0 0 0 0 0 0 0 0 0 14 25 20 21 25 36 25
0 0 1 0 1 1 0 0 1 0 0 0 0 3 17 1 0 128 431 404 338 43 0 0 0 0 2 5 8 4 0 0 0 0 0 0 0 0 0 0 0 0 0 3 16 18 30 45 30
0 0 0 0 0 0 0 0 0 0 0 0 0 0 6 8 0 4 573 499 423 159 17 0 0 0 2 4 2 7 5 0 0 0 0 0 0 0 0 0 0 0 0 1 18 27 27 23 29

GFSSGP_con_mlcape_096.txt.gz
CAPE
0 0 0 0 0 0 0 0 0 0 0 0 0 0 0 0 0 0 692 1111 1072 955 948 1286 1379 1280 1209 1104 992 886 972 923 945 819 837 913 918 892 807 808 829 877 862 721 589 717 625 542 433
0 0 0 0 0 0 0 0 0 0 0 0 0 0 0 9 456 362 772 1256 1235 1057 1006 916 1310 1395 1355 1276 1136 996 1152 1154 1157 1021 914 1043 972 893 790 633 543 860 843 652 647 637 530 492 258
0 0 0 0 0 0 0 0 0 0 0 0 0 0 0 0 508 266 947 1308 1444 1241 1211 1016 1038 1398 1455 1422 1369 1311 1511 1469 1280 1084 913 657 946 1012 856 586 795 815 714 493 470 572 481 278 71
0 0 0 0 0 0 0 0 0 0 0 0 0 0 0 238 508 1107 1282 1336 1486 1546 1333 1160 1079 1230 1619 1670 1561 1485 1547 1459 731 492 364 200 348 360 441 562 836 873 676 516 390 419 275 92 0
0 0 0 0 0 0 0 0 0 0 0 0 0 0 0 641 939 973 1176 1349 1341 1616 1434 1170 1034 1074 1560 1911 1829 1657 1632 1220 672 199 110 25 90 83 28 213 276 611 694 441 277 260 169 44 12
0 0 0 0 0 0 0 0 0 0 0 0 0 0 0 687 604 698 685 1172 1456 1474 1378 1338 1333 1240 1202 1776 1916 1901 1694 1059 458 104 43 16 0 0 0 2 219 346 338 246 172 187 82 73 4
0 0 0 0 0 0 0 0 0 0 0 0 0 0 78 696 650 586 476 639 1060 1219 1227 1128 1278 1191 1364 1318 1531 1760 1574 884 526 251 115 91 0 2 0 0 73 264 255 137 108 62 42 24 0
0 0 0 0 0 0 0 0 0 0 0 0 0 0 46 388 547 330 217 317 550 807 849 735 535 482 685 1138 1205 1252 1457 987 699 429 353 17 0 0 0 52 19 240 188 86 37 0 8 0 0
0 0 0 0 0 0 0 0 0 0 0 0 0 0 0 303 380 159 6 0 0 125 437 606 524 420 483 712 991 838 973 857 336 35 0 0 0 45 9 43 179 198 140 66 10 6 8 0 0
0 0 0 0 0 0 0 0 0 0 0 0 0 0 0 258 343 167 1 0 0 11 134 333 560 493 486 505 530 512 317 47 0 0 0 0 0 0 43 50 163 84 76 42 11 26 0 0 0
0 0 0 0 0 0 0 0 0 0 0 0 0 0 0 75 228 187 0 0 0 51 198 154 221 411 481 351 226 273 279 40 0 0 0 0 15 76 95 106 98 79 53 16 0 3 0 0 0
0 0 0 0 0 0 0 0 0 0 0 0 0 0 0 60 178 148 5 0 19 164 205 105 55 266 487 403 181 195 216 75 1 0 0 0 1 57 55 78 34 37 0 0 0 0 0 0 0
0 0 0 0 0 0 0 0 0 0 0 0 0 0 0 0 129 97 0 0 50 235 191 38 5 20 116 351 158 131 107 110 31 15 5 1 12 16 33 0 3 1 0 0 0 0 0 0 0
0 0 0 0 0 0 0 0 0 0 0 0 0 0 0 0 4 0 0 0 90 154 121 12 0 0 0 31 129 111 47 24 27 11 1 26 10 8 8 1 1 0 0 0 0 0 0 0 0
0 0 0 0 0 0 0 0 0 0 0 0 0 0 0 0 0 0 0 0 43 44 14 7 0 0 0 0 30 86 115 17 16 11 0 10 28 6 0 1 0 0 0 0 0 0 0 0 0
0 0 0 0 0 0 0 0 0 0 0 0 0 0 0 0 0 0 0 0 4 2 8 0 0 0 0 0 0 0 0 56 31 20 0 9 28 8 0 0 0 0 0 0 0 0 0 0 0
0 0 0 0 0 0 0 0 0 0 0 0 0 0 0 0 0 0 0 13 3 0 4 0 0 0 0 0 0 0 0 4 32 20 9 5 24 10 0 0 0 0 0 0 0 0 0 0 0
0 0 0 0 0 0 0 0 0 0 0 0 0 0 0 0 0 0 0 44 5 0 0 0 0 0 0 0 0 1 3 5 19 36 24 3 24 1 1 0 0 0 0 0 0 0 0 0 0
0 0 0 0 0 0 0 0 0 0 0 0 0 0 0 0 0 0 17 28 13 0 0 0 0 0 0 0 0 1 0 7 30 7 25 3 7 2 1 0 0 0 0 0 0 0 0 0 0
0 0 0 0 0 0 0 0 0 0 0 0 0 0 0 0 0 0 49 13 4 3 0 0 0 0 0 0 0 0 0 1 3 1 3 20 5 2 0 0 0 0 0 0 0 0 0 0 0
0 0 0 0 0 0 0 0 0 0 0 0 0 0 0 0 0 0 55 21 0 0 0 0 0 0 0 0 0 0 0 0 1 1 0 0 2 1 2 0 0 0 0 0 0 0 0 0 0
0 0 0 0 0 0 0 0 0 0 0 0 0 0 0 0 0 1 64 5 0 0 0 0 0 0 1 0 0 0 2 0 0 1 1 1 1 2 1 0 0 0 0 0 13 0 0 0 0
0 0 0 0 0 0 0 0 0 0 0 0 0 0 0 0 0 0 62 11 0 0 0 0 0 0 1 0 0 0 1 1 1 1 1 1 1 1 1 0 0 0 0 9 19 1 0 0 0
0 0 0 0 0 0 0 0 0 0 0 0 0 0 0 0 0 0 11 0 0 0 0 0 0 0 0 0 0 0 0 1 1 1 0 0 1 2 1 0 0 0 0 0 15 17 2 2 0
0 0 0 0 0 0 0 0 0 0 0 0 0 0 0 0 0 0 7 3 0 0 0 0 0 0 0 0 0 0 0 0 1 0 0 0 1 0 0 0 0 0 0 0 1 20 35 2 0
0 0 0 0 0 0 0 0 0 0 0 0 0 0 0 0 0 0 31 15 3 1 0 0 0 0 0 0 0 0 0 0 0 0 0 0 0 0 0 0 0 0 0 0 4 20 2 0 0
0 0 0 0 0 2 0 0 0 0 0 0 0 0 0 0 0 22 73 43 10 0 0 0 0 0 0 0 0 0 0 0 0 0 0 0 0 0 0 0 0 0 0 0 1 2 0 0 0
0 0 6 4 0 0 0 0 0 0 0 0 0 0 0 0 60 87 122 113 35 0 0 0 0 0 0 0 0 0 0 0 0 0 0 0 0 0 0 0 0 0 0 0 1 2 1 2 0
0 0 14 5 16 1 0 0 0 4 3 0 0 0 0 0 166 259 204 175 80 0 0 0 0 0 0 0 0 0 0 0 0 0 0 0 0 0 0 0 0 0 0 1 0 0 3 5 2
0 0 3 6 0 0 0 0 0 0 13 0 0 0 0 0 0 368 339 241 91 0 0 0 0 0 0 0 0 0 0 0 0 0 0 0 0 0 0 0 0 0 0 2 13 8 2 8 0

GFSSGP_con_mlcape_099.txt.gz
CAPE
0 0 0 0 0 0 0 0 0 0 0 0 0 0 0 0 0 0 266 966 1041 894 1194 1190 1189 1207 1043 916 783 904 1092 965 886 1130 1307 1338 1300 1300 1279 1067 993 1049 742 904 916 907 842 773 644
0 0 0 0 0 0 0 0 0 0 0 0 0 0 0 0 137 33 585 1092 983 849 1122 1245 1138 1193 1176 1001 964 1045 1206 1145 1090 1111 1216 1331 1328 1256 1223 1140 1162 1056 906 722 955 837 752 574 512
0 0 0 0 0 0 0 0 0 0 0 0 0 0 0 0 338 0 538 1055 967 784 991 1277 1209 1195 1270 1164 962 1206 1379 1274 1101 1154 1201 1240 1211 1269 1116 1092 1063 1032 922 650 1015 826 632 447 323
0 0 0 0 0 0 0 0 0 0 0 0 0 0 0 168 308 193 872 1214 1027 914 905 1037 1296 1318 1409 1395 1313 1405 1395 1370 1318 1284 1250 1301 1243 1097 849 787 948 966 822 729 894 548 419 286 162
0 0 0 0 0 0 0 0 0 0 0 0 0 0 0 387 674 737 791 1342 939 1120 1074 1032 1211 1533 1523 1606 1567 1518 1609 1230 1020 819 926 1124 1228 1045 710 674 647 678 608 580 479 424 260 162 82
0 0 0 0 0 0 0 0 0 0 0 0 0 0 0 537 893 958 1052 1122 1401 1230 1209 1082 1096 1383 1811 1835 1725 1623 1559 1054 756 511 464 617 712 581 679 614 173 503 505 342 353 305 160 112 21
0 0 0 0 0 0 0 0 0 0 0 0 0 0 0 446 858 957 1018 1220 1399 1449 1295 1088 1001 1042 1400 1768 1787 1670 1425 933 606 349 183 201 192 65 207 251 273 419 261 219 278 166 116 40 0
0 0 0 0 0 0 0 0 0 0 0 0 0 0 0 171 681 596 832 1221 1356 1336 1264 1247 1229 1133 1055 1136 1588 1739 1413 918 584 327 159 111 75 55 36 30 221 258 188 201 212 155 46 0 0
0 0 0 0 0 0 0 0 0 0 0 0 0 0 0 350 480 468 528 641 869 989 945 794 619 493 583 928 1034 1172 1303 991 687 405 203 150 180 48 25 30 53 115 68 128 209 143 18 0 0
0 0 0 0 0 0 0 0 0 0 0 0 0 0 0 338 456 320 116 25 107 270 460 468 281 171 174 458 907 865 821 774 601 510 384 142 0 2 38 85 155 85 138 111 131 116 4 0 0
0 0 0 0 0 0 0 0 0 0 0 0 0 0 0 104 252 186 26 0 0 0 98 242 265 213 254 319 355 340 373 279 211 193 10 0 0 0 58 37 135 160 94 98 92 21 0 0 0
0 0 0 0 0 0 0 0 0 0 0 0 0 0 0 0 25 59 34 3 0 0 9 153 303 255 225 130 150 124 176 75 25 0 0 0 0 0 59 39 10 16 66 82 63 0 0 0 0
0 0 0 0 0 0 0 0 0 0 0 0 0 0 0 0 0 6 76 27 1 0 47 133 142 172 207 144 93 60 80 53 19 0 0 0 0 28 61 90 47 69 34 36 11 0 0 0 0
0 0 0 0 0 0 0 0 0 0 0 0 0 0 0 0 0 0 49 68 12 12 59 100 67 110 229 190 89 17 11 53 7 2 1 0 0 19 72 49 75 50 11 5 1 0 0 0 0
0 0 0 0 0 0 0 0 0 0 0 0 0 0 0 0 0 0 0 6 63 29 30 69 33 10 92 124 62 14 1 19 13 0 9 8 2 9 20 25 1 1 0 1 0 0 0 0 0
0 0 0 0 0 0 0 0 0 0 0 0 0 0 0 0 0 0 0 0 34 35 21 18 0 0 0 10 0 21 12 0 30 24 11 12 9 1 2 11 0 0 0 1 0 0 0 0 0
0 0 0 0 0 0 0 0 0 0 0 0 0 0 0 0 0 0 0 0 1 15 3 0 0 0 0 0 0 0 1 80 36 15 5 9 10 0 1 0 1 0 0 0 0 0 0 0 0
0 0 0 0 0 0 0 0 0 0 0 0 0 0 0 0 0 0 0 0 0 0 0 0 0 0 0 0 0 0 3 8 38 29 10 15 17 1 1 0 0 0 0 0 0 0 0 0 0
0 0 0 0 0 0 0 0 0 0 0 0 0 0 0 0 0 0 0 0 0 0 0 0 0 0 0 0 0 0 0 0 6 23 31 12 24 1 1 0 0 0 0 0 0 0 0 0 0
0 0 0 0 0 0 0 0 0 0 0 0 0 0 0 0 0 0 0 0 0 0 3 0 0 0 0 0 0 0 0 0 0 18 15 23 34 2 1 0 0 0 0 0 0 0 0 0 0
0 0 0 0 0 0 0 0 0 0 0 0 0 0 0 0 0 0 0 0 0 1 5 0 0 0 0 0 0 0 0 0 0 0 0 4 30 1 1 0 0 0 0 0 0 0 0 0 0
0 0 0 0 0 0 0 0 0 0 0 0 0 0 0 0 0 0 0 0 0 0 0 0 0 0 0 0 0 0 0 0 0 0 0 0 3 3 2 1 0 0 0 0 0 0 2 0 0
0 0 0 0 0 0 0 0 0 0 0 0 0 0 0 0 0 0 0 0 0 0 0 0 0 0 0 0 0 0 0 0 0 0 0 1 0 2 2 1 0 0 0 0 0 3 9 1 2
0 0 0 0 0 0 0 0 0 0 0 0 0 0 0 0 0 0 0 0 0 0 1 0 0 0 0 0 0 0 0 0 0 0 1 1 0 0 0 1 0 1 23 2 4 8 27 25 16
0 0 0 0 0 0 0 0 0 0 0 0 0 0 0 0 0 0 0 0 0 0 1 0 0 1 1 0 0 0 0 0 0 0 1 1 1 1 1 2 3 8 2 8 10 16 12 18 13
0 0 0 0 0 0 0 0 0 0 0 0 0 0 0 0 0 0 0 0 0 0 0 0 0 1 2 0 0 0 0 0 0 0 1 1 2 2 1 1 1 1 0 2 11 11 8 0 4
0 0 0 0 0 0 0 0 0 0 0 0 0 0 0 0 0 0 0 0 0 0 0 0 0 1 1 0 0 0 0 0 0 0 0 0 0 1 1 1 2 2 2 0 1 1 8 15 27
0 0 0 0 0 0 0 0 0 0 0 0 0 0 0 0 0 2 0 0 8 0 0 0 0 0 0 0 0 0 0 0 0 0 0 0 0 0 0 1 0 3 0 0 0 10 8 16 10
0 0 0 0 0 11 0 0 9 0 0 0 0 0 0 0 0 78 22 10 0 1 0 0 1 1 1 0 0 0 0 0 0 0 0 0 0 0 0 0 0 0 1 0 0 1 0 6 14
0 0 0 0 0 0 3 0 26 0 0 0 0 4 0 0 0 0 104 33 1 1 1 0 1 0 0 0 0 0 0 0 0 0 0 0 0 0 0 0 0 0 0 0 0 0 0 0 1

GFSSGP_con_mlcape_102.txt.gz
CAPE
0 0 0 0 0 0 0 0 0 0 0 0 0 0 0 0 0 0 138 833 790 677 783 965 1222 1008 892 843 715 775 1217 1586 1690 1553 1382 1368 1341 1301 1176 1145 1187 1376 1394 1264 1133 1078 1160 1028 693
0 0 0 0 0 0 0 0 0 0 0 0 0 0 0 0 0 0 411 951 979 661 887 1033 1257 1099 872 897 883 789 1167 1612 1686 1635 1575 1548 1557 1479 1371 1434 1125 1223 1317 1317 1146 1202 1105 922 530
0 0 0 0 0 0 0 0 0 0 0 0 0 0 0 0 43 0 494 971 1046 739 927 1052 1244 1190 1052 915 966 1074 970 1366 1691 1718 1693 1699 1724 1518 1398 1280 1096 987 1011 1152 1144 1068 979 799 613
0 0 0 0 0 0 0 0 0 0 0 0 0 0 0 13 165 0 523 1012 1036 682 925 1097 1226 1300 1305 1182 1184 1346 1246 932 1163 1574 1707 1711 1719 1682 1369 1133 819 858 862 993 954 878 691 629 445
0 0 0 0 0 0 0 0 0 0 0 0 0 0 0 177 441 279 435 996 662 535 785 1160 1277 1342 1439 1363 1370 1488 1426 1108 1038 1283 1476 1566 1648 1436 1092 680 503 679 796 794 868 625 603 423 221
0 0 0 0 0 0 0 0 0 0 0 0 0 0 0 131 502 537 732 779 849 486 720 998 1403 1409 1527 1513 1401 1536 1468 1344 1180 1248 1420 1464 1465 1231 716 606 746 653 572 585 545 472 503 267 132
0 0 0 0 0 0 0 0 0 0 0 0 0 0 0 3 575 875 882 1080 1077 843 911 916 1174 1509 1659 1636 1553 1551 1394 1238 952 999 1222 1267 1158 955 940 927 865 414 204 295 380 439 340 200 76
0 0 0 0 0 0 0 0 0 0 0 0 0 0 0 0 489 835 1005 1242 1295 1141 1037 945 964 1209 1523 1619 1604 1557 1335 1115 895 557 636 615 525 501 518 820 193 399 617 544 286 298 189 97 26
0 0 0 0 0 0 0 0 0 0 0 0 0 0 0 5 445 841 822 1002 1201 1275 1152 979 936 921 978 1228 1519 1572 1305 1024 928 653 298 182 184 107 110 155 267 391 199 233 158 170 75 20 2
0 0 0 0 0 0 0 0 0 0 0 0 0 0 0 12 494 493 377 395 829 1010 1022 1005 1014 958 794 805 804 1237 1169 894 809 611 302 115 90 61 115 35 39 141 95 101 155 57 59 0 0
0 0 0 0 0 0 0 0 0 0 0 0 0 0 0 0 232 381 287 372 408 805 740 751 609 444 353 575 552 669 936 859 654 556 265 72 50 81 10 1 13 69 73 81 87 31 0 0 0
0 0 0 0 0 0 0 0 0 0 0 0 0 0 0 0 6 142 183 169 73 203 294 443 358 178 94 139 338 531 453 394 367 326 199 100 83 1 0 15 72 77 76 81 58 0 0 0 0
0 0 0 0 0 0 0 0 0 0 0 0 0 0 0 0 0 15 14 106 8 0 23 155 270 183 101 129 144 247 119 107 93 128 99 12 2 0 0 12 47 85 59 31 1 0 0 0 0
0 0 0 0 0 0 0 0 0 0 0 0 0 0 0 0 0 0 5 1 0 0 0 1 108 221 158 135 88 78 63 53 12 0 0 2 0 0 0 19 28 30 1 2 0 0 4 0 0
0 0 0 0 0 0 0 0 0 0 0 0 0 0 0 0 0 0 0 0 0 0 1 0 33 142 206 125 34 24 13 18 1 0 0 0 0 0 0 19 31 6 0 6 0 4 0 0 0
0 0 0 0 0 0 0 0 0 0 0 0 0 0 0 0 0 0 0 0 0 0 30 0 20 84 111 97 2 0 0 3 3 1 1 1 3 0 2 23 32 5 12 0 0 0 0 0 0
0 0 0 0 0 0 0 0 0 0 0 0 0 0 0 0 0 0 0 0 0 0 0 1 4 74 59 6 0 0 0 3 3 0 2 4 12 1 7 6 8 3 1 1 0 0 0 0 0
0 0 0 0 0 0 0 0 0 0 0 0 0 0 0 0 0 0 0 0 0 0 0 0 0 20 0 0 0 0 0 0 4 4 2 6 13 1 0 0 1 2 1 1 0 0 3 1 0
0 0 0 0 0 0 0 0 0 0 0 0 0 0 0 0 0 0 0 0 0 0 0 2 0 0 0 0 0 0 1 0 13 15 22 17 15 0 1 1 1 2 0 0 0 0 5 0 0
0 0 0 0 0 0 0 0 0 0 0 0 0 0 0 0 0 0 0 0 0 0 0 0 0 0 0 0 1 0 0 1 2 18 33 23 36 1 2 0 0 0 0 0 0 3 1 0 0
0 0 0 0 0 0 0 0 0 0 0 0 0 0 0 0 0 0 0 0 0 0 0 0 0 0 0 0 0 1 1 1 0 3 18 22 45 2 2 1 1 0 0 0 0 1 1 0 0
0 0 0 0 0 0 0 0 0 0 0 0 0 0 0 0 0 0 0 0 0 0 0 0 0 0 1 0 0 0 0 0 0 0 0 2 21 4 1 2 0 0 0 0 0 0 0 0 0
0 0 0 0 0 0 0 0 0 0 0 0 0 0 0 0 0 0 0 0 0 0 0 0 0 2 0 0 0 0 0 0 0 0 0 0 0 1 2 1 2 0 0 0 0 0 0 0 6
0 0 0 0 0 0 0 0 0 0 0 0 0 0 0 0 0 0 0 0 0 0 0 0 1 0 3 0 0 0 0 0 0 0 0 0 0 0 3 2 1 0 0 0 0 0 0 0 5
0 0 0 0 0 0 0 0 0 0 0 0 0 0 0 0 0 0 0 0 0 0 0 1 1 0 2 1 0 0 0 0 0 0 1 0 0 1 4 0 1 0 0 0 0 5 15 14 17
0 0 0 0 0 0 0 0 0 0 0 0 0 0 0 0 0 0 0 0 0 0 0 1 1 1 0 0 0 0 0 0 0 1 1 1 0 0 0 0 0 1 1 0 0 0 18 48 49
0 0 0 0 0 0 0 0 0 0 0 0 0 0 0 0 0 0 0 0 0 0 0 0 1 1 1 0 0 0 0 0 0 0 0 1 0 0 0 1 2 2 1 5 12 0 17 31 12
0 0 0 0 0 0 0 0 0 0 0 0 0 0 0 0 0 0 0 0 0 0 0 2 0 1 1 0 1 0 0 0 0 0 0 0 0 1 0 1 1 3 2 5 1 15 16 27 6
0 0 0 0 0 0 0 0 0 0 0 0 0 0 0 0 0 0 0 0 0 0 0 1 0 1 1 0 1 0 0 0 0 0 0 0 0 1 1 2 2 2 3 10 19 9 5 1 1
0 0 0 0 0 0 0 0 0 0 0 0 0 0 0 0 0 0 0 0 0 0 1 3 1 1 1 1 2 0 0 0 0 0 0 0 0 0 0 0 3 4 2 2 0 0 0 0 0

GFSSGP_con_mlcape_105.txt.gz
CAPE
0 0 0 0 0 0 0 0 0 0 0 0 0 0 0 0 0 0 39 732 723 585 932 1073 1103 1115 801 576 784 1171 1546 1642 1605 1562 1465 1453 1465 1442 1538 1471 1404 1379 1385 1348 1455 1446 1364 1267 741
0 0 0 0 0 0 0 0 0 0 0 0 0 0 0 0 0 3 176 775 852 679 955 1220 1110 1147 946 758 826 1154 1605 1725 1691 1627 1571 1609 1621 1577 1479 1399 1484 1439 1429 1387 1385 1456 1329 1011 845
0 0 0 0 0 0 0 0 0 0 0 0 0 0 0 0 0 3 531 921 894 663 889 1148 1171 1106 1036 883 869 1090 1445 1682 1744 1684 1599 1609 1584 1560 1314 1241 1235 1378 1237 1385 1464 1401 1211 818 705
0 0 0 0 0 0 0 0 0 0 0 0 0 0 0 0 0 0 554 1118 843 597 818 1009 1221 1152 1112 1068 985 1193 1379 1545 1757 1780 1803 1847 1805 1643 1283 1322 1181 1047 1008 1289 1451 1279 1016 784 605
0 0 0 0 0 0 0 0 0 0 0 0 0 0 0 0 239 67 425 1104 753 608 776 969 1259 1334 1285 1292 1218 1140 1365 1636 1871 1904 1981 1956 1841 1712 1171 995 774 856 482 1137 1293 1137 876 689 563
0 0 0 0 0 0 0 0 0 0 0 0 0 0 0 27 284 239 629 992 1188 589 930 1246 1285 1340 1309 1328 1419 1446 1182 1340 1815 2016 2022 1988 1902 1538 1073 942 874 185 614 1045 1159 963 768 570 409
0 0 0 0 0 0 0 0 0 0 0 0 0 0 0 0 398 513 666 1108 1010 686 896 1253 1466 1471 1402 1349 1327 1476 1393 1163 1274 1599 1515 1597 1532 1210 1128 843 220 705 486 615 950 854 627 436 232
0 0 0 0 0 0 0 0 0 0 0 0 0 0 0 0 493 846 872 1013 1052 814 863 1001 1470 1571 1636 1676 1386 1449 1312 1321 1096 1185 1307 1306 1171 1057 942 478 787 883 763 387 481 728 482 251 122
0 0 0 0 0 0 0 0 0 0 0 0 0 0 0 0 337 970 748 649 858 829 1003 1073 1169 1453 1594 1692 1742 1477 1339 1255 1065 977 1018 1003 1007 877 662 606 410 550 189 653 567 527 252 114 76
0 0 0 0 0 0 0 0 0 0 0 0 0 0 0 0 57 719 553 116 515 647 926 1142 1137 1183 1404 1538 1725 1552 1530 1294 1045 939 930 944 727 646 507 411 324 158 176 290 295 270 124 57 24
0 0 0 0 0 0 0 0 0 0 0 0 0 0 0 0 0 331 729 556 410 876 956 1059 984 1041 1029 1092 1325 1242 1410 1189 1025 990 592 411 278 262 331 312 173 369 417 185 117 119 80 25 20
0 0 0 0 0 0 0 0 0 0 0 0 0 0 0 0 0 3 305 564 601 598 702 901 899 1003 1009 960 917 766 905 929 899 769 747 476 148 112 108 125 142 87 334 218 78 141 18 1 28
0 0 0 0 0 0 0 0 0 0 0 0 0 0 0 0 0 0 34 578 529 509 662 631 890 953 746 507 575 590 437 527 443 688 472 516 255 80 189 123 32 147 231 188 54 4 1 1 1
0 0 0 0 0 0 0 0 0 0 0 0 0 0 0 0 0 0 0 19 220 241 414 498 617 724 463 217 159 252 233 279 295 351 299 372 400 307 89 69 26 76 129 132 6 0 0 0 0
0 0 0 0 0 0 0 0 0 0 0 0 0 0 0 0 0 0 0 0 0 33 166 107 259 509 410 242 94 220 245 311 81 29 20 72 126 156 56 6 24 39 19 17 2 1 0 0 0
0 0 0 0 0 0 0 0 0 0 0 0 0 0 0 0 0 0 0 0 0 0 0 6 10 143 303 229 103 169 110 67 35 3 3 4 8 7 3 3 2 7 1 1 1 1 0 0 1
0 0 0 0 0 0 0 0 0 0 0 0 0 0 0 0 0 0 0 0 0 0 0 0 1 20 88 220 72 53 21 10 3 7 0 4 3 3 12 4 2 2 2 0 1 2 0 0 1
0 0 0 0 0 0 0 0 0 0 0 0 0 0 0 0 0 0 0 0 0 0 0 0 0 26 24 64 5 5 1 2 2 1 1 4 1 3 8 6 1 1 2 1 0 0 0 5 3
0 0 0 0 0 0 0 0 0 0 0 0 0 0 0 0 0 0 0 0 0 0 0 0 0 14 2 0 8 1 25 6 2 2 1 0 2 4 3 1 0 3 1 1 2 2 0 2 13
0 0 0 0 0 0 0 0 0 0 0 0 0 0 0 0 0 0 0 0 0 0 0 0 0 0 8 19 8 1 1 1 2 1 0 0 3 6 4 0 0 1 2 2 0 1 1 1 0
0 0 0 0 0 0 0 0 0 0 0 0 0 0 0 0 0 0 0 0 0 0 0 0 0 1 22 18 1 2 0 1 1 0 4 3 22 15 10 1 3 2 1 2 1 1 0 0 0
0 0 0 0 0 0 0 0 0 0 0 0 0 0 0 0 0 0 0 0 0 0 0 0 1 1 12 2 2 1 0 0 0 0 1 12 45 22 4 2 3 2 1 1 1 1 0 0 1
0 0 0 0 0 0 0 0 0 0 0 0 0 0 0 0 0 0 0 0 0 0 0 0 0 3 1 3 2 0 0 1 2 1 0 1 20 18 2 1 2 2 2 0 0 0 0 1 7
0 0 0 0 0 0 0 0 0 0 0 0 0 0 0 0 0 0 0 0 0 0 0 0 0 3 2 3 2 0 0 0 1 1 0 1 0 8 7 0 2 1 0 0 2 1 1 0 9
0 0 0 0 0 0 0 0 0 0 0 0 0 0 0 0 0 0 0 0 0 0 0 2 1 2 4 2 0 0 0 0 0 1 1 1 0 1 2 2 3 1 0 0 0 0 1 3 8
0 0 0 0 0 0 0 0 0 0 0 0 0 0 0 0 0 0 0 0 0 0 0 3 1 2 3 2 2 0 1 0 0 0 1 3 2 1 4 2 2 2 1 0 0 0 0 4 13
0 0 0 0 0 0 0 0 0 0 0 0 0 0 0 0 0 0 0 0 0 0 0 2 1 1 4 3 2 1 0 0 0 1 1 2 2 2 4 2 1 2 2 4 0 0 0 0 17
0 0 0 0 0 0 0 0 0 0 0 0 0 0 0 0 0 0 0 0 0 0 4 1 2 0 2 3 3 2 0 0 0 2 1 0 1 1 4 2 1 2 2 1 0 0 1 8 11
0 0 0 0 0 0 0 0 0 0 0 0 0 0 0 0 0 0 0 0 0 0 9 1 2 1 1 2 3 0 1 1 2 2 3 1 1 2 2 0 2 2 2 1 1 0 0 0 6
0 0 0 0 0 0 0 0 0 0 0 0 0 0 0 0 0 0 0 0 1 0 4 3 1 1 1 2 2 1 1 3 2 3 3 4 0 3 3 1 1 2 2 2 2 1 0 7 4

GFSSGP_con_mlcape_108.txt.gz
CAPE
0 0 0 0 0 0 0 0 0 0 0 0 0 0 0 0 0 0 235 799 776 818 1204 880 859 876 871 898 1116 1412 1548 1630 1588 1490 1548 1584 1666 1661 1718 1570 1496 1476 1555 1586 1521 1484 1494 1267 957
0 0 0 0 0 0 0 0 0 0 0 0 0 0 0 0 0 105 478 893 798 995 1398 1360 878 902 791 830 1134 1517 1652 1714 1724 1691 1655 1649 1747 1775 1764 1611 1488 1494 1508 1699 1653 1654 1619 1123 841
0 0 0 0 0 0 0 0 0 0 0 0 0 0 0 0 0 45 216 926 919 933 1405 1617 906 1017 805 706 984 1484 1794 1766 1818 1890 1839 1799 1790 1785 1773 1603 1537 1655 1576 1532 1680 1619 1429 1012 854
0 0 0 0 0 0 0 0 0 0 0 0 0 0 0 0 0 8 656 836 836 931 1280 1493 961 1128 973 783 983 1398 1764 1890 1944 1949 1925 1855 1920 1904 1523 1461 1487 1312 1239 1458 1531 1432 1220 931 748
0 0 0 0 0 0 0 0 0 0 0 0 0 0 0 4 305 201 717 935 721 970 1235 1723 1168 1148 1177 1021 977 1360 1700 1891 1996 2044 2042 2002 1928 1598 1390 1389 1317 1089 1194 1192 700 1376 1015 820 675
0 0 0 0 0 0 0 0 0 0 0 0 0 0 0 187 546 397 1002 1234 1087 1260 1515 1736 1385 1234 1168 1173 1172 1198 1445 1771 1985 2034 2020 2013 1706 1447 1281 1154 1185 1037 1041 801 1392 1293 900 772 656
0 0 0 0 0 0 0 0 0 0 0 0 0 0 0 0 858 1050 1165 1539 1773 1558 1580 1839 1764 1601 1298 1268 1233 1177 1232 1554 1870 1849 2003 1942 1633 1237 1076 1110 991 744 287 520 841 1157 758 721 562
0 0 0 0 0 0 0 0 0 0 0 0 0 0 0 0 1083 1198 1172 1496 1820 1515 1537 1781 1815 1813 1851 1747 1317 1365 1317 1275 1693 1920 2044 1812 1503 1340 1036 986 871 287 524 800 776 533 481 510 374
0 0 0 0 0 0 0 0 0 0 0 0 0 0 0 0 835 1304 1172 1205 1481 1311 1281 1532 1698 1777 1934 1942 1759 1322 1360 1092 1276 1626 1742 1339 1398 1138 1093 880 829 261 475 544 472 491 535 242 176
0 0 0 0 0 0 0 0 0 0 0 0 0 0 0 0 314 918 1085 947 1107 1225 1215 1289 1536 1638 1776 1702 2027 1860 1813 1494 1666 1427 1391 1417 1146 1166 982 821 629 365 369 343 328 514 267 119 67
0 0 0 0 0 0 0 0 0 0 0 0 0 0 0 0 0 176 545 790 705 922 1122 1234 1576 1659 1715 1617 1490 1969 1780 1860 1785 1742 1664 1547 1261 1044 892 831 520 410 395 281 534 307 195 95 67
0 0 0 0 0 0 0 0 0 0 0 0 0 0 0 0 0 0 0 316 562 809 1101 1385 1492 1659 1621 1474 1439 1506 1474 1748 1626 1681 1499 1556 1341 1203 1000 732 658 436 367 472 476 203 207 121 55
0 0 0 0 0 0 0 0 0 0 0 0 0 0 0 0 0 0 0 0 207 908 1207 1347 1360 1645 1569 1603 1291 1172 1385 1503 1438 1442 1519 1265 1014 819 816 621 537 472 521 612 231 297 124 76 39
0 0 0 0 0 0 0 0 0 0 0 0 0 0 0 0 0 0 0 0 37 469 1003 1304 1243 1443 1577 1591 1275 1229 1139 1023 1421 1311 1150 1168 1235 835 847 691 433 262 607 612 349 202 119 85 28
0 0 0 0 0 0 0 0 0 0 0 0 0 0 0 0 0 0 0 0 0 95 365 929 1457 1530 1615 1387 1077 989 882 860 1124 869 689 959 848 944 772 698 393 615 322 297 254 75 83 33 3
0 0 0 0 0 0 0 0 0 0 0 0 0 0 0 0 0 0 0 0 0 0 8 362 744 1213 1534 1250 925 536 502 616 463 462 412 538 526 801 670 425 373 211 97 45 10 1 2 2 1
0 0 0 0 0 0 0 0 0 0 0 0 0 0 0 0 0 0 0 0 0 0 0 18 449 653 1161 1280 952 503 462 461 759 563 230 129 359 538 326 332 84 29 3 1 2 3 0 1 0
0 0 0 0 0 0 0 0 0 0 0 0 0 0 0 0 0 0 0 0 0 0 0 0 15 400 537 1165 851 447 386 401 534 568 377 371 279 144 204 166 42 1 0 2 2 2 2 3 0
0 0 0 0 0 0 0 0 0 0 0 0 0 0 0 0 0 0 0 0 0 0 0 0 0 175 342 700 497 214 126 244 306 366 307 296 146 180 32 5 17 2 2 3 1 1 1 2 1
0 0 0 0 0 0 0 0 0 0 0 0 0 0 0 0 0 0 0 0 0 0 0 0 1 171 381 352 226 265 180 154 171 172 370 110 74 38 4 3 4 1 3 3 3 1 1 0 0
0 0 0 0 0 0 0 0 0 0 0 0 0 0 0 0 0 0 0 0 0 0 0 0 0 88 349 296 62 259 223 164 67 57 49 14 36 10 2 3 3 2 2 2 1 1 1 3 19
0 0 0 0 0 0 0 0 0 0 0 0 0 0 0 0 0 0 0 0 0 0 0 0 0 41 209 267 88 319 230 105 82 3 4 6 9 5 3 6 4 2 1 1 2 2 1 3 9
0 0 0 0 0 0 0 0 0 0 0 0 0 0 0 0 0 0 0 0 0 0 0 0 0 41 18 192 102 303 397 351 222 112 21 3 2 6 10 3 2 2 2 1 1 5 4 2 1
0 0 0 0 0 0 0 0 0 0 0 0 0 0 0 0 0 0 0 0 0 0 0 38 20 8 3 16 89 341 530 386 67 2 5 1 2 5 6 2 3 2 2 2 3 3 3 0 0
0 0 2 3 0 0 0 0 0 0 0 0 0 0 0 0 0 0 0 0 0 0 0 2 33 0 4 3 31 283 504 178 46 11 1 2 2 5 6 2 3 3 2 3 4 4 1 0 0
0 0 0 1 0 0 0 0 0 0 0 0 0 0 0 0 0 0 0 0 0 0 0 0 36 2 2 2 3 59 106 172 20 0 0 0 5 9 2 2 3 2 2 3 4 3 3 3 1
0 0 2 7 0 0 0 0 0 0 0 0 0 0 0 0 0 0 0 0 0 0 0 0 3 2 3 1 1 2 15 43 7 0 0 3 4 8 18 1 2 3 2 1 1 1 1 3 6
0 0 0 0 0 0 0 0 0 0 0 0 0 0 0 0 0 0 0 0 0 0 0 0 5 3 3 2 1 2 21 18 0 1 2 5 4 13 13 14 2 3 2 2 1 1 1 0 3
0 0 0 0 0 0 0 0 0 1 0 0 0 0 0 13 0 1 0 0 0 0 0 0 3 2 4 2 2 4 6 3 1 6 5 3 4 9 12 17 2 2 3 2 2 1 1 1 2
0 0 0 0 0 0 0 0 22 3 0 0 3 27 19 2 5 2 0 0 0 0 0 0 3 4 3 3 2 2 3 4 1 4 1 1 5 4 9 3 2 1 2 2 1 1 1 1 3

GFSSGP_con_mlcape_111.txt.gz
CAPE
0 0 0 0 0 0 0 0 0 0 0 0 0 0 0 0 0 4 245 554 164 693 997 706 639 750 844 819 870 1178 1545 1706 1592 1427 1457 1506 1544 1590 1652 1581 1394 1499 1678 1764 1573 1501 1587 1435 1165
0 0 0 0 0 0 0 0 0 0 0 0 0 0 0 0 0 77 364 387 183 731 1093 1125 642 788 778 805 981 1290 1626 1861 1801 1601 1653 1574 1610 1731 1744 1617 1459 1551 1688 1819 1654 1713 1596 1274 961
0 0 0 0 0 0 0 0 0 0 0 0 0 0 0 0 0 0 274 111 295 654 1065 1451 664 760 786 859 1074 1451 1709 1894 1880 1740 1766 1677 1650 1720 1816 1610 1532 1524 1641 1834 1782 1777 1494 1112 961
0 0 0 0 0 0 0 0 0 0 0 0 0 0 0 0 0 0 269 236 235 541 817 1229 696 780 808 865 1210 1660 1827 1886 1850 1806 1874 1762 1794 1904 1890 1641 1568 1669 1715 1802 1722 1637 1322 982 934
0 0 0 0 0 0 0 0 0 0 0 0 0 0 0 0 0 59 238 411 280 583 1137 1518 807 922 889 891 1107 1595 1922 1944 1968 1983 2067 1959 1965 1935 1707 1537 1672 1616 1452 1368 1324 997 760 918 876
0 0 0 0 0 0 0 0 0 0 0 0 0 0 0 0 0 193 540 521 498 832 1394 2033 1011 1106 995 924 1033 1415 1759 1997 2094 2092 2216 2079 1982 1794 1601 1517 1620 1483 1375 1443 1271 966 910 881 808
0 0 0 0 0 0 0 0 0 0 0 0 0 0 0 0 3 306 695 766 932 1195 1635 2117 1695 1310 1056 966 1013 1141 1490 1790 2016 2106 2091 1832 1741 1546 1478 1391 1109 1167 1219 1238 851 1078 910 870 752
0 0 0 0 0 0 0 0 0 0 0 0 0 0 0 0 721 871 718 1034 1177 1382 1536 2006 2020 1776 1591 1386 1079 1074 1149 1451 1718 1984 1975 1634 1284 1355 1149 1035 982 978 1024 838 1053 818 467 517 160
0 0 0 0 0 0 0 0 0 0 0 0 0 0 0 0 409 817 696 873 1344 1173 1252 1608 1849 1852 1909 1899 1629 1216 1252 1134 1425 1730 1649 1704 1267 1270 1193 983 893 636 133 499 589 220 614 362 163
0 0 0 0 0 0 0 0 0 0 0 0 0 0 0 0 42 635 672 755 1125 1097 921 1197 1517 1593 1688 1527 1972 1660 1718 1579 1377 1482 1795 1968 1424 1332 1207 1132 832 729 271 318 399 366 271 199 296
0 0 0 0 0 0 0 0 0 0 0 0 0 0 0 0 0 80 286 211 763 964 765 705 1415 1603 1604 1207 1517 1633 1689 1786 1701 1559 1566 1615 1566 1356 1218 1037 973 814 419 356 327 343 384 453 284
0 0 0 0 0 0 0 0 0 0 0 0 0 0 0 0 0 0 0 72 115 536 852 844 1062 1571 1817 1264 1212 1343 1966 1781 1746 1838 1970 1743 1445 1447 1252 1042 964 837 597 328 438 634 632 478 278
0 0 0 0 0 0 0 0 0 0 0 0 0 0 0 0 0 0 0 0 0 44 462 914 1208 1629 1878 1829 1317 1295 2020 1782 1776 1774 1707 1834 1595 1426 1244 1044 911 726 606 501 538 627 564 365 176
0 0 0 0 0 0 0 0 0 0 0 0 0 0 0 0 0 0 0 0 0 0 85 944 1439 1796 1852 1803 1624 1438 1564 1886 1745 1640 1621 1831 1627 1502 1239 1217 1042 1020 767 782 644 497 514 255 120
0 0 0 0 0 0 0 0 0 0 0 0 0 0 0 0 0 0 0 0 0 0 0 760 1510 2149 1900 1808 1697 1612 1342 1454 1719 1518 1655 1757 1765 1500 1325 1147 841 860 764 657 554 490 411 244 60
0 0 0 0 0 0 0 0 0 0 0 0 0 0 0 0 0 0 0 0 0 0 0 23 955 1708 1867 1966 1833 1662 1233 1280 1266 1353 1340 1507 1606 1453 1253 1032 943 685 643 505 549 377 202 117 35
0 0 0 0 0 0 0 0 0 0 0 0 0 0 0 0 0 0 0 0 0 0 0 0 327 1071 1700 2025 1919 1751 1181 1145 1105 1013 918 1152 989 953 890 882 887 679 461 353 273 61 73 29 21
0 0 0 0 0 0 0 0 0 0 0 0 0 0 0 0 0 0 0 0 0 0 0 0 2 540 1241 1571 1946 1604 1242 1033 966 872 810 895 929 773 817 660 531 531 156 32 13 3 2 1 2
0 0 0 0 0 0 0 0 0 0 0 0 0 0 0 0 0 0 0 0 0 0 0 0 0 0 664 921 1299 1565 1055 800 845 1029 913 759 571 511 410 337 372 139 2 2 0 2 2 2 9
0 0 0 0 0 0 0 0 0 0 0 0 0 0 0 0 0 0 0 0 0 0 0 0 0 0 20 578 866 1454 703 485 598 844 936 813 619 350 230 311 123 1 2 2 1 1 2 1 1
0 0 0 0 0 0 0 0 0 0 0 0 0 0 0 0 0 0 0 0 0 0 0 0 0 0 27 447 1001 804 636 364 360 446 767 743 520 343 303 302 36 2 1 1 2 2 0 1 1
0 0 0 0 0 0 0 0 0 0 0 0 0 0 0 0 0 0 0 0 0 0 0 0 0 0 29 476 796 505 495 322 408 560 613 654 514 371 207 82 5 2 2 3 2 3 0 0 0
0 0 0 0 0 0 0 0 0 0 0 0 0 0 0 0 0 0 0 0 0 0 0 0 0 0 22 263 720 543 388 556 705 656 560 351 410 153 157 29 4 2 2 1 1 1 1 1 1
0 0 0 0 0 0 0 0 0 0 0 0 0 0 0 0 0 0 0 0 0 0 0 0 5 74 54 271 508 633 349 803 746 834 699 262 263 195 28 17 6 4 2 2 2 2 2 1 2
0 0 0 0 0 0 0 0 0 0 0 0 0 2 0 0 0 0 0 0 0 0 0 0 0 32 122 223 226 570 371 850 927 908 776 351 150 58 12 4 4 2 4 2 2 2 2 2 6
0 0 0 0 0 0 0 0 0 0 0 13 13 24 1 0 0 0 0 0 0 0 0 0 0 0 88 107 18 251 269 659 902 637 375 107 28 35 3 1 2 2 2 3 2 3 3 3 7
0 0 0 0 0 0 1 0 3 0 5 31 18 0 0 0 1 7 4 0 0 0 0 0 0 0 1 94 6 68 191 434 627 631 464 63 0 2 16 4 4 4 2 2 3 2 2 3 3
1 0 0 0 0 0 1 1 13 0 12 23 2 2 1 1 12 0 5 1 0 0 0 0 0 0 0 46 2 22 50 299 518 372 175 9 0 1 4 1 2 1 2 2 2 3 4 4 7
0 1 1 0 0 0 0 1 29 2 10 30 32 33 12 21 4 18 5 2 0 0 0 0 0 0 19 7 2 13 0 164 304 233 70 0 2 1 8 15 3 2 2 2 1 1 1 2 2
0 0 0 0 0 0 0 0 1 35 41 55 70 59 87 81 4 1 4 4 1 0 0 0 0 1 10 1 6 5 0 64 181 81 1 1 0 4 4 10 1 2 1 2 1 1 1 1 0

GFSSGP_con_mlcape_117.txt.gz
CAPE
0 0 0 0 0 0 0 0 0 0 0 0 0 0 0 0 56 56 976 743 254 33 543 720 696 707 714 732 795 1034 1137 1173 1144 1052 903 969 1033 1070 1069 1150 1464 1607 1748 1588 1501 1509 1432 1005 865
0 0 0 0 0 0 0 0 0 0 0 0 0 0 0 7 296 525 604 432 0 9 372 622 534 583 665 731 814 954 1171 1268 1225 1175 1051 1075 1099 1181 1264 1220 1321 1608 1433 1448 1480 1528 1288 907 842
0 0 0 0 0 0 0 0 0 0 0 0 0 0 0 17 257 195 655 99 0 46 297 373 361 518 653 749 922 1057 1279 1366 1364 1306 1202 1183 1185 1321 1451 1307 1337 1697 1555 1492 1668 1597 1252 846 780
0 0 0 0 0 0 0 0 0 0 0 0 0 0 0 61 195 305 876 48 25 333 234 280 385 527 655 845 1048 1285 1488 1458 1519 1410 1410 1314 1350 1445 1495 1376 1488 1817 1739 1669 1734 1589 1165 904 809
0 0 0 0 0 0 0 0 0 0 0 0 0 0 0 52 104 307 671 483 218 549 107 280 410 529 708 953 1185 1373 1335 1464 1567 1525 1555 1499 1412 1345 1453 1450 1530 1610 1351 1496 1344 1308 878 852 765
0 0 0 0 0 0 0 0 0 0 0 0 0 0 0 119 84 144 552 722 951 682 74 371 534 598 704 875 1138 1326 1411 1492 1531 1554 1618 1636 1416 1287 1360 1469 1538 1518 1452 1192 1192 1093 679 783 767
0 0 0 0 0 0 0 0 0 0 0 0 0 0 0 59 51 129 623 1159 1251 1044 272 320 614 623 657 691 972 1176 1326 1429 1481 1556 1637 1666 1412 1276 1354 1472 1484 1211 1066 903 997 825 719 759 726
0 0 0 0 0 0 0 0 0 0 0 0 0 0 0 25 103 362 787 1250 1443 1290 708 282 480 541 516 643 816 985 1150 1332 1267 1600 1633 1681 1508 1283 1257 1383 1350 1141 1018 892 886 564 603 655 680
0 0 0 0 0 0 0 0 0 0 0 0 0 0 62 199 198 576 758 1081 1540 1688 1270 456 485 427 451 475 698 859 1043 1260 1219 1622 1314 1618 1539 1333 1256 1199 1062 1096 957 845 780 344 525 692 571
0 0 0 0 0 0 0 0 0 0 0 0 0 5 214 535 411 501 735 856 1114 1469 1573 1201 637 500 550 650 572 606 822 971 1218 1492 1297 1580 1554 1385 1269 1101 996 1004 876 810 611 296 436 491 235
0 0 0 0 0 0 0 0 0 0 0 0 0 0 0 43 667 506 674 957 1116 1244 1442 1643 1297 947 833 1008 585 524 645 746 951 1159 1365 1345 1470 1412 1299 989 873 751 726 667 462 313 136 174 166
0 0 0 0 0 0 0 0 0 0 0 0 0 0 0 0 0 450 463 939 1206 1326 1249 1600 1675 1573 1416 1448 1353 924 669 680 654 950 1295 1210 1136 1173 1175 1038 855 661 408 323 251 145 80 287 194
0 0 0 0 0 0 0 0 0 0 0 0 0 0 0 0 0 0 331 405 1235 1278 1200 1273 1527 1667 1700 1334 1581 1294 1121 1072 1102 1068 1213 1601 1403 1181 1072 1024 887 808 522 345 286 126 65 157 274
0 0 0 0 0 0 0 0 0 0 0 0 0 0 0 0 0 0 0 0 104 1285 1162 1039 1315 1625 1615 1419 1426 1395 1394 1419 1415 1252 1224 1073 1573 1500 1270 1044 951 809 756 562 420 295 169 257 193
0 0 0 0 0 0 0 0 0 0 0 0 0 0 0 0 0 0 0 0 0 18 1066 811 1208 1547 1514 1357 1468 1312 1543 1481 1449 1443 1466 1316 1329 1570 1346 1155 1013 910 835 672 461 370 281 248 175
0 0 0 0 0 0 0 0 0 0 0 0 0 0 0 0 0 0 0 0 0 0 0 772 1071 1568 1803 1607 1325 1515 1671 1656 1532 1715 1600 1698 1682 1580 1386 1185 1019 929 786 594 498 371 272 239 173
0 0 0 0 0 0 0 0 0 0 0 0 0 0 0 0 0 0 0 0 0 0 0 440 1074 1370 1694 1848 1656 1308 1463 1826 1759 1464 1539 1440 1729 1710 1447 1245 1066 949 721 469 347 221 169 160 133
0 0 0 0 0 0 0 0 0 0 0 0 0 0 0 0 0 0 0 0 0 0 0 18 977 1417 1681 1871 1850 1746 1400 1396 1614 1661 1552 1332 1314 1398 1443 1246 1105 912 678 475 393 337 132 116 66
0 0 0 0 0 0 0 0 0 0 0 0 0 0 0 0 0 0 0 0 0 0 0 0 1532 1669 1744 1865 1810 1827 1705 1545 1329 1204 1451 1428 1203 1218 1180 1299 958 988 723 456 366 278 116 33 19
0 0 0 0 0 2 3 8 0 0 0 0 0 0 0 0 0 0 0 0 0 0 0 0 1369 1984 1901 1881 1783 1620 1612 1684 1621 1184 1027 1188 1222 1045 990 1025 744 725 716 384 189 78 6 7 0
0 0 0 0 0 20 11 4 0 0 0 0 0 0 0 0 0 0 0 0 0 0 0 0 0 713 1573 1687 1741 1571 1403 1324 1442 1155 977 871 867 832 820 743 535 524 390 187 8 0 0 1 2
2 0 0 0 0 7 2 0 0 0 0 0 0 0 0 0 0 0 0 0 0 0 0 0 0 0 0 62 1193 1295 1262 1124 1364 1140 872 815 954 882 759 635 440 391 179 36 1 1 0 0 1
0 0 0 0 0 7 0 0 0 0 0 0 0 0 0 0 0 0 0 0 0 0 0 7 0 0 0 0 0 494 832 1000 957 883 790 640 633 902 907 639 407 273 110 1 0 0 3 1 1
0 0 0 20 32 12 0 0 0 0 0 0 0 0 0 0 0 0 0 0 0 0 0 0 0 0 0 0 0 139 567 650 688 615 544 478 393 605 652 547 327 148 56 0 1 0 0 4 0
0 0 14 9 14 0 0 0 0 0 0 0 0 0 0 0 2 7 0 0 0 0 0 0 0 0 0 0 0 0 96 437 518 465 292 198 108 197 542 476 270 86 23 0 2 3 2 1 0
0 56 1 2 0 0 0 0 0 0 0 0 0 0 3 5 11 1 0 0 0 0 0 0 0 0 0 0 0 0 0 168 525 416 318 215 220 317 405 456 243 80 5 0 1 3 2 2 0
20 40 59 6 26 0 0 0 0 0 1 4 0 0 42 51 23 1 0 0 0 0 0 0 0 0 0 0 0 0 0 0 349 383 358 345 492 376 378 386 249 48 0 0 1 2 0 1 1
17 29 2 13 6 1 11 0 0 2 6 1 16 23 8 0 0 0 0 0 0 0 0 0 0 0 0 0 0 0 0 0 93 273 176 93 452 324 305 286 174 22 1 0 2 1 0 1 2
25 5 0 0 0 0 0 0 3 0 19 0 4 0 0 0 0 0 0 0 0 0 0 0 0 0 0 0 0 0 0 0 0 112 26 62 285 184 182 126 49 4 0 1 4 1 0 1 1
10 2 0 0 0 0 0 0 3 15 40 36 0 0 0 0 0 0 0 0 0 0 0 0 0 0 0 0 0 0 0 0 0 3 4 134 240 59 19 3 2 0 0 4 1 0 1 0 1

GFSSGP_con_mlcape_120.txt.gz
CAPE
0 0 0 0 0 0 0 0 0 0 0 0 0 0 0 4 1 17 753 807 455 398 733 786 753 799 903 923 923 976 970 940 784 717 710 753 848 1064 1245 1361 1499 1595 1569 1525 1437 1372 1097 1025 925
0 0 0 0 0 0 0 0 0 0 0 0 0 0 0 29 378 642 919 840 460 283 615 742 716 760 757 874 962 1031 1087 1047 936 839 868 912 937 971 1141 1368 1553 1502 1512 1575 1498 1376 1080 939 890
0 0 0 0 0 0 0 0 0 0 0 0 0 0 0 62 630 705 658 388 365 308 632 695 746 742 674 692 887 1057 1181 1121 1045 957 990 1030 1102 1037 1045 1272 1591 1316 1354 1518 1661 1516 1054 876 862
0 0 0 0 0 0 0 0 0 0 0 0 0 0 5 287 456 503 381 93 95 226 497 641 716 629 647 712 872 1080 1181 1178 1132 1094 1102 1140 1218 1218 1102 1143 1514 1398 1302 1469 1713 1385 880 776 772
0 0 0 0 0 0 0 0 0 0 0 0 0 0 0 284 412 300 0 26 0 97 320 556 626 598 708 866 992 1140 1240 1286 1242 1245 1194 1176 1192 1260 1175 1158 1462 1507 1387 1421 1421 1067 795 760 744
0 0 0 0 0 0 0 0 0 0 0 0 0 0 0 263 400 111 0 0 0 7 249 578 678 713 772 882 1071 1156 1014 1295 1338 1345 1278 1182 1192 1261 1277 1180 1424 1462 1335 1379 1281 899 689 717 683
0 0 0 0 0 0 0 0 0 0 0 0 0 0 3 431 448 130 21 130 25 26 139 410 698 818 805 849 1012 1059 1176 1349 1355 1391 1367 1218 1153 1222 1261 1232 1345 1338 1187 1238 1156 801 666 732 668
0 0 0 0 0 0 0 0 0 0 0 0 0 0 27 261 353 602 577 552 141 60 106 179 448 794 929 1060 1017 1077 1188 1282 1340 1370 1470 1326 1161 1128 1196 1204 1276 1193 1026 995 895 739 596 666 660
0 0 0 0 0 0 0 0 0 0 0 0 0 0 5 44 596 1057 1086 1094 649 110 38 145 265 461 664 875 1108 1127 1182 1229 1342 1437 1503 1495 1326 1228 1242 1232 1249 1115 990 853 809 656 377 596 690
0 0 0 0 0 0 0 0 0 0 0 0 0 0 7 195 706 718 863 856 992 678 138 66 164 273 447 735 1031 1042 1210 1243 1093 1366 1107 1312 1412 1207 1222 1191 1215 1055 951 791 713 459 306 597 594
0 0 0 0 0 0 0 0 0 0 0 0 0 0 88 382 579 717 843 742 555 921 752 253 201 300 341 452 521 667 940 980 946 1250 895 1111 1483 1288 1171 1024 1044 914 936 756 661 423 288 466 430
0 0 0 0 0 0 0 0 0 0 0 0 0 12 86 356 391 592 616 752 959 1221 1042 836 323 289 394 449 301 378 458 569 709 1085 1114 950 1253 1202 1044 909 861 790 696 599 511 275 172 240 192
0 0 0 0 0 0 0 0 0 0 0 0 0 0 32 266 392 477 631 762 861 1045 1248 1010 692 250 353 523 318 301 333 382 459 688 1038 1069 951 1060 1004 881 735 657 462 452 359 197 58 37 101
0 0 0 0 0 0 0 0 0 0 0 0 0 0 0 2 11 216 519 847 1015 1107 1104 1362 1147 782 434 443 596 475 483 383 398 457 715 979 950 901 942 946 811 687 443 323 263 148 48 53 102
0 0 0 0 0 0 0 0 0 0 0 0 0 0 0 0 0 1 48 515 1064 1109 1157 1350 1446 1420 1202 919 1173 989 1014 881 637 665 770 913 1219 1204 1015 890 847 805 632 395 275 168 91 127 103
0 0 0 0 0 0 0 0 0 0 0 0 0 0 0 0 0 0 0 0 288 1044 1154 1168 1592 1546 1529 1406 1202 1145 1219 1249 1228 1134 983 1012 1079 1410 1305 1062 909 786 685 547 469 379 243 208 203
0 0 0 0 0 0 0 0 0 0 0 0 0 0 0 0 0 0 0 0 0 0 502 913 1318 1517 1597 1526 1322 1128 1300 1445 1399 1333 1196 1247 1138 1125 1326 1243 994 860 730 620 546 422 347 239 172
0 0 0 0 0 0 0 0 0 0 0 0 0 0 0 0 0 0 0 0 0 0 0 141 831 1404 1634 1611 1397 1264 1378 1401 1344 1460 1525 1391 1355 1230 1286 1225 1114 852 706 563 502 459 194 304 206
0 0 0 0 0 0 0 0 0 0 0 0 0 0 0 0 0 0 0 0 0 0 0 0 246 1023 1570 1681 1596 1264 1429 1549 1612 1537 1552 1422 1469 1473 1420 1327 1163 920 752 571 391 317 314 192 113
0 0 0 0 0 0 0 0 0 0 0 0 0 0 0 0 0 0 0 0 0 0 0 0 239 1106 1520 1684 1793 1572 1177 1267 1491 1609 1548 1392 1298 1398 1460 1382 1224 1055 762 553 456 408 178 63 58
0 0 0 1 0 0 1 35 0 0 0 0 0 0 0 0 0 0 0 0 0 0 0 80 694 1380 1647 1716 1707 1425 1135 935 1117 1189 1352 1368 1326 1187 1219 1120 857 824 681 604 564 336 163 26 7
0 0 0 0 0 0 8 4 0 0 0 0 0 0 0 0 0 0 0 0 0 0 0 519 1262 1368 1319 1456 1501 1330 1199 944 1234 1325 1142 1097 1136 1100 1042 928 775 696 648 591 390 147 75 15 2
0 0 0 0 0 0 0 0 0 0 0 0 0 0 0 0 0 0 0 0 0 0 0 0 0 0 0 0 30 1149 1663 1323 855 981 1066 1048 912 999 1035 909 722 491 360 330 263 104 26 8 0
9 0 2 3 0 0 0 16 0 0 0 0 0 0 0 0 0 0 0 0 0 0 0 0 0 0 0 0 0 0 29 344 856 1024 976 843 820 906 830 793 604 421 321 150 112 53 8 0 1
18 0 0 0 0 1 12 48 0 0 0 0 0 0 0 1 1 0 0 0 0 0 0 0 0 0 0 0 0 0 0 0 1 429 840 881 660 518 585 653 478 400 263 75 61 34 0 0 1
51 0 0 0 0 1 25 9 0 0 0 0 0 0 0 0 0 0 0 0 0 0 0 0 0 0 0 0 0 0 0 0 0 0 237 444 446 453 422 272 350 303 243 64 16 12 3 3 3
3 0 0 4 3 0 1 0 0 9 0 0 0 0 0 0 0 0 0 0 0 0 0 0 0 0 0 0 0 0 0 0 0 0 0 147 325 215 157 218 197 139 162 37 8 11 1 1 2
111 0 0 0 0 0 15 0 30 178 44 1 0 0 0 0 0 0 0 0 0 0 0 0 0 0 0 0 0 0 0 0 0 0 0 27 233 175 155 254 222 60 34 26 1 2 1 0 2
6 2 5 15 6 2 1 36 166 116 4 2 3 1 0 0 0 0 0 0 0 0 0 0 0 0 0 0 0 0 0 0 0 0 0 0 87 263 197 228 267 61 22 28 1 1 0 0 0
0 10 3 15 0 0 0 0 5 3 3 4 3 3 0 0 0 0 0 0 0 0 0 0 0 0 0 0 0 0 0 0 0 0 1 0 19 84 87 209 194 55 5 5 1 1 1 0 0

GFSSGP_con_mlcape_123.txt.gz
CAPE
0 0 0 0 0 0 0 0 0 0 0 0 0 0 0 0 8 2 411 626 468 560 790 987 926 862 870 867 790 713 589 513 528 614 758 919 1139 1274 1339 1381 1487 1541 1558 1493 1340 1340 1302 1100 980
0 0 0 0 0 0 0 0 0 0 0 0 0 0 0 0 207 533 680 728 711 650 815 993 991 971 954 964 908 872 819 614 575 645 796 917 1140 1256 1336 1420 1483 1519 1568 1636 1521 1297 1027 870 913
0 0 0 0 0 0 0 0 0 0 0 0 0 0 0 0 490 631 786 819 657 729 780 845 932 999 1065 1035 977 985 985 751 674 708 792 864 1046 1242 1355 1460 1354 1533 1557 1669 1568 1120 875 864 900
0 0 0 0 0 0 0 0 0 0 0 0 0 0 0 235 555 773 957 694 519 601 729 777 778 848 1039 1073 1060 1082 1018 872 764 785 836 856 934 1131 1334 1439 1405 1886 1621 1691 1379 909 760 775 817
0 0 0 0 0 0 0 0 0 0 0 0 0 0 0 397 582 867 875 418 39 447 633 728 733 762 871 1027 1092 1158 1039 937 867 898 934 975 989 980 1199 1350 1282 1328 1526 1547 1200 752 652 672 793
0 0 0 0 0 0 0 0 0 0 0 0 0 0 0 302 543 748 368 18 139 143 431 584 730 751 858 968 1057 1058 986 1002 993 965 983 1024 1124 1033 1001 1278 1389 1285 1403 1299 938 654 609 646 721
0 0 0 0 0 0 0 0 0 0 0 0 0 0 0 408 452 301 0 103 193 213 285 503 641 870 914 937 925 1000 1063 1088 1102 1059 1011 1028 1106 1099 1043 1221 1459 1314 1369 1183 838 491 487 672 659
0 0 0 0 0 0 0 0 0 0 0 0 0 0 0 257 261 52 102 81 94 157 220 359 638 929 955 994 996 898 1057 1191 1183 1159 1070 1059 1077 1146 1152 1186 1424 1254 1177 1153 940 579 463 656 702
0 0 0 0 0 0 0 0 0 0 0 0 0 0 0 358 340 12 0 0 31 113 206 371 582 743 800 1048 1092 1023 1177 1283 1241 1225 1192 1114 1070 1173 1195 1218 1330 1243 1116 1035 907 735 520 620 704
0 0 0 0 0 0 0 0 0 0 0 0 0 0 0 655 245 2 0 0 0 0 85 311 382 499 674 892 1170 1253 1374 1362 1348 1285 1335 1183 1048 1040 1118 1143 1270 1191 988 913 715 599 374 529 385
0 0 0 0 0 0 0 0 0 0 0 0 0 0 0 662 559 3 2 0 0 0 37 261 330 307 538 753 1015 1016 1176 1234 1250 1201 1249 1253 1122 1020 1073 1058 1175 1151 1000 781 715 496 258 357 343
0 0 0 0 0 0 0 0 0 0 0 0 0 0 0 416 749 374 51 39 27 0 0 130 255 291 368 490 730 849 876 917 905 1124 935 918 1175 998 905 850 928 1035 864 684 577 361 185 187 227
0 0 0 0 0 0 0 0 0 0 0 0 0 0 0 175 831 773 630 788 903 375 73 11 160 154 268 314 311 446 575 630 565 923 874 733 1062 977 869 799 725 729 646 647 457 311 142 40 143
0 0 0 0 0 0 0 0 0 0 0 0 0 0 0 6 571 783 809 878 1118 1025 725 316 51 122 205 189 177 156 294 451 576 785 895 798 838 810 785 736 697 598 534 501 426 285 155 10 0
0 0 0 0 0 0 0 0 0 0 0 0 0 0 0 0 83 392 589 692 867 1105 1153 914 456 190 157 230 206 208 249 299 293 416 739 898 864 727 750 713 672 590 462 392 325 236 94 17 0
0 0 0 0 0 0 0 0 0 0 0 0 0 0 0 0 0 5 139 520 812 1016 1080 1290 1324 757 330 326 481 362 314 315 327 358 529 743 814 797 655 672 729 628 487 350 310 245 158 66 24
0 0 0 0 0 0 0 0 0 0 0 0 0 0 0 0 0 0 0 139 505 998 1069 1140 1596 1326 968 693 643 637 636 639 593 490 437 511 726 908 914 848 707 675 624 479 408 288 256 210 108
0 0 0 0 0 0 0 0 0 0 0 0 0 0 0 0 0 0 0 0 14 568 1071 1150 1418 1596 1555 1431 1061 959 998 1058 1054 971 811 811 732 900 1084 1117 928 752 641 533 432 492 257 342 235
0 0 0 0 0 0 0 0 0 0 0 0 0 0 0 0 0 0 0 0 0 0 122 1059 1138 1460 1620 1608 1359 1192 1155 1141 1165 1238 1319 1225 1017 960 1010 1098 1054 970 841 649 474 389 403 375 249
0 0 0 0 0 0 0 0 0 0 0 0 0 0 0 0 0 0 0 0 0 0 0 35 414 832 1360 1644 1530 1401 1357 1256 1261 1288 1448 1376 1290 1226 1118 1077 1099 1134 904 605 466 557 375 293 217
0 0 0 0 0 0 0 0 0 0 0 0 0 0 0 0 0 0 0 0 0 0 0 0 0 210 973 1606 1463 1184 1074 1030 1183 1292 1499 1480 1363 1385 1336 1221 1201 1154 922 700 447 491 412 269 135
0 0 0 0 0 0 0 0 0 0 0 0 0 0 0 0 0 0 0 0 0 0 0 5 139 571 1060 1360 1391 1457 1350 1196 1245 1303 1586 1392 1263 1371 1420 1336 1304 1269 1056 804 528 487 441 263 167
0 0 3 0 0 0 0 15 0 0 19 0 0 0 0 0 0 0 0 0 0 0 0 0 0 0 139 633 979 903 817 666 431 937 1072 1152 1279 1263 1252 1321 1214 1068 875 650 533 422 323 224 82
0 1 0 0 0 0 0 6 0 1 5 9 1 0 0 0 0 0 0 0 0 0 0 0 0 0 0 0 0 0 11 7 253 549 986 1066 895 983 1087 1108 1037 922 770 638 507 241 288 191 55
0 0 0 0 0 0 0 0 0 1 0 0 0 25 0 0 0 0 0 0 0 0 0 0 0 0 0 0 0 0 0 0 0 2 232 617 695 824 836 781 805 723 591 490 271 146 180 105 33
0 0 0 0 0 0 0 0 0 57 0 7 45 2 0 0 0 0 0 0 0 0 0 0 0 0 0 0 0 0 0 0 0 0 0 5 293 503 718 640 613 581 397 246 82 55 45 18 24
0 0 0 0 0 0 0 0 85 54 0 0 0 0 0 0 0 0 0 0 0 0 0 0 0 0 0 0 0 0 0 0 0 0 0 0 0 78 283 343 484 481 327 46 14 52 26 2 9
0 0 0 0 0 0 0 7 85 31 1 2 3 2 1 0 0 0 0 0 0 0 0 0 0 0 0 0 0 0 0 0 0 0 0 0 0 2 1 99 193 221 57 10 6 24 4 1 2
0 0 4 0 0 10 0 17 126 4 5 5 3 3 1 0 0 0 0 0 0 0 0 0 0 0 0 0 0 0 0 0 0 0 0 0 0 0 4 1 98 76 29 5 7 3 1 3 7
2 0 2 0 0 8 0 0 5 4 4 4 6 4 3 2 0 0 0 0 0 0 0 0 0 0 0 0 0 0 0 0 0 0 0 0 0 1 3 2 64 76 16 0 8 0 1 2 2

GFSSGP_con_mlcape_126.txt.gz
CAPE
0 0 0 0 0 0 0 0 0 0 0 0 0 0 0 0 0 0 196 384 303 487 789 840 884 799 687 559 453 439 489 592 882 1122 1231 1219 1196 1220 1335 1382 1417 1470 1389 1394 1375 1219 1058 1028 1015
0 0 0 0 0 0 0 0 0 0 0 0 0 0 0 0 39 337 518 488 430 593 838 903 944 905 852 723 635 568 612 637 734 898 1041 1107 1160 1286 1407 1397 1422 1459 1431 1394 1319 1301 1068 953 966
0 0 0 0 0 0 0 0 0 0 0 0 0 0 0 0 253 541 681 718 656 780 881 978 1009 987 962 863 826 713 655 637 707 880 1029 1074 1201 1288 1408 1382 1421 1480 1556 1384 1206 928 806 821 890
0 0 0 0 0 0 0 0 0 0 0 0 0 0 0 4 256 701 843 844 641 804 938 1069 1078 1029 1017 1015 974 865 667 640 712 844 979 1142 1296 1300 1428 1379 1416 1487 1565 1331 961 755 696 757 818
0 0 0 0 0 0 0 0 0 0 0 0 0 0 0 0 454 758 973 916 652 772 952 1131 1126 1094 1081 1091 1117 1039 756 665 712 805 897 1077 1267 1325 1381 1417 1544 1575 1466 1104 747 613 625 750 818
0 0 0 0 0 0 0 0 0 0 0 0 0 0 0 0 547 814 956 782 752 708 883 1049 1105 1100 1112 1171 1193 1090 876 738 764 810 835 932 1126 1238 1358 1380 1552 1543 1377 961 554 517 543 689 801
0 0 0 0 0 0 0 0 0 0 0 0 0 0 0 0 496 786 772 619 667 724 827 865 966 962 1026 1150 1227 1103 964 824 820 852 880 910 903 1020 1249 1263 1263 1364 1190 795 470 464 497 605 681
0 0 0 0 0 0 0 0 0 0 0 0 0 0 0 0 88 598 574 444 442 605 737 765 834 934 908 1102 1215 1126 1011 934 904 907 910 948 920 879 1028 1276 1290 1279 1146 762 419 368 469 531 527
0 0 0 0 0 0 0 0 0 0 0 0 0 0 0 0 93 463 345 43 145 389 667 719 681 766 931 1070 1153 1128 1105 1055 1052 1009 988 961 1012 989 975 1199 1306 1166 1148 868 515 253 369 514 486
0 0 0 0 0 0 0 0 0 0 0 0 0 0 0 0 199 333 2 0 0 30 241 475 487 654 925 1013 1109 1145 1274 1268 1236 1178 1117 996 942 1013 1013 1088 1283 1121 1040 933 702 415 327 454 391
0 0 0 0 0 0 0 0 0 0 0 0 0 0 0 0 122 132 0 0 0 2 59 254 452 673 788 858 1097 1047 1213 1262 1220 1225 1164 1044 916 1005 1062 1022 1175 1120 968 835 687 473 278 248 212
0 0 0 0 0 0 0 0 0 0 0 0 0 0 0 0 3 261 0 0 0 0 1 213 509 494 590 751 991 961 1090 1190 1123 1108 1169 1034 873 838 855 876 1010 1035 808 679 511 317 125 113 76
0 0 0 0 0 0 0 0 0 0 0 0 0 0 0 0 0 202 147 29 17 3 4 135 354 464 604 564 739 783 906 893 1099 1080 1019 1083 908 798 748 759 836 920 779 591 418 239 66 39 56
0 0 0 0 0 0 0 0 0 0 0 0 0 0 0 0 0 0 597 172 218 4 1 197 193 334 450 413 476 534 619 674 648 727 984 1046 985 836 765 678 673 720 761 586 434 272 96 28 16
0 0 0 0 0 0 0 0 0 0 0 0 0 0 0 0 0 0 0 578 473 320 30 39 216 348 360 366 281 362 407 461 358 407 789 830 780 833 770 637 601 572 567 536 400 221 84 20 0
0 0 0 0 0 0 0 0 0 0 0 0 0 0 0 0 0 0 0 341 883 1037 622 132 273 245 233 278 219 141 165 343 372 529 694 724 690 733 635 555 562 534 472 401 389 261 144 67 10
0 0 0 0 0 0 0 0 0 0 0 0 0 0 0 0 0 0 0 126 719 1056 1192 1097 529 182 157 249 302 220 179 220 233 299 421 627 726 625 609 605 517 533 444 381 346 188 186 118 46
0 0 0 0 0 0 0 0 0 0 0 0 0 0 0 0 0 0 0 0 387 764 1046 1285 1333 830 374 351 495 478 376 295 316 287 296 351 492 600 639 583 493 521 542 402 306 366 130 179 125
0 0 0 0 0 0 0 0 0 0 0 0 0 0 0 0 0 0 0 0 0 381 785 984 1435 1468 1118 749 566 473 292 369 389 364 342 309 367 487 579 614 621 606 607 575 466 422 252 178 137
0 0 0 0 0 0 0 0 0 0 0 0 0 0 0 0 0 0 0 0 0 0 292 865 1141 1506 1462 1327 1083 809 756 728 721 753 709 698 525 587 609 724 739 812 772 625 544 460 307 233 167
0 0 0 0 0 0 0 0 0 0 0 0 0 0 0 0 0 0 0 0 0 0 0 336 879 1263 1501 1564 1374 1063 992 1031 1037 969 1056 1038 999 999 866 873 840 791 915 854 592 578 498 361 182
0 0 0 0 0 1 0 0 0 0 0 0 0 0 0 0 0 0 0 0 0 0 0 0 74 713 1189 1489 1461 1476 1493 1381 1241 1164 1127 1105 1128 1218 1160 1027 982 809 836 859 597 513 486 342 291
0 0 0 1 1 0 0 0 0 0 0 0 0 0 0 0 0 0 0 0 0 0 0 0 0 53 513 1191 1362 1382 1407 1249 819 854 795 528 572 819 1037 1114 1156 996 934 860 733 545 469 333 316
0 0 0 0 0 0 0 0 0 0 0 0 2 38 8 0 0 0 0 0 0 0 0 0 0 0 0 69 191 581 757 863 833 606 275 12 0 462 867 1166 1244 1234 1119 953 691 622 500 383 307
0 0 0 0 0 0 0 0 0 0 0 0 1 2 2 1 1 0 0 0 0 0 0 0 0 0 0 0 0 0 0 0 6 161 93 6 10 415 801 920 1030 1031 923 745 539 448 470 425 171
0 0 0 0 0 0 0 0 0 19 1 2 5 4 3 2 2 1 0 0 0 0 0 0 0 0 0 0 0 0 0 0 0 0 0 8 60 185 474 689 703 800 705 518 338 284 295 249 157
0 0 0 0 0 0 0 0 3 2 4 6 4 3 3 3 3 3 1 0 0 0 0 0 0 0 0 0 0 0 0 0 0 0 0 0 0 0 52 187 453 600 488 322 244 151 156 91 19
0 0 0 0 0 0 0 0 0 1 4 6 3 6 5 3 4 2 2 1 2 0 0 0 0 0 0 0 0 0 0 0 0 0 0 0 0 0 0 0 18 207 295 260 121 42 14 0 0
0 4 0 2 0 14 0 0 1 1 2 4 6 4 6 7 4 2 1 2 1 1 0 0 0 0 0 0 0 0 0 0 0 0 0 0 0 0 0 0 0 3 47 39 5 0 0 0 0
5 4 0 0 0 0 0 0 1 1 0 0 1 3 5 4 4 3 1 1 2 0 0 1 0 0 0 0 0 0 0 0 0 0 0 0 0 0 0 1 0 5 3 3 4 1 3 0 7

GFSSGP_con_mlcape_129.txt.gz
CAPE
0 0 0 0 0 0 0 0 0 0 0 0 0 0 0 0 0 0 384 330 601 778 876 938 841 684 536 394 479 779 1060 1213 1200 1083 1034 1127 1164 1171 1400 1327 1401 1446 1424 1262 1120 1093 1085 1018 924
0 0 0 0 0 0 0 0 0 0 0 0 0 0 0 0 0 75 454 538 740 894 870 1115 903 783 667 518 523 865 1147 1226 1208 1214 1304 1255 1272 1232 1452 1339 1351 1447 1502 1384 1276 1209 1065 970 888
0 0 0 0 0 0 0 0 0 0 0 0 0 0 0 0 2 420 724 622 887 994 1033 1231 967 868 792 677 640 767 1091 1209 1284 1396 1357 1298 1333 1332 1396 1374 1338 1384 1447 1479 1340 1135 877 807 855
0 0 0 0 0 0 0 0 0 0 0 0 0 0 0 0 1 732 899 756 1019 1155 1149 1172 1017 1000 911 806 798 805 863 1059 1230 1330 1359 1368 1388 1402 1351 1466 1443 1464 1415 1343 1148 803 678 701 746
0 0 0 0 0 0 0 0 0 0 0 0 0 0 0 0 419 844 991 921 983 1297 1292 1278 1085 1087 1070 1017 948 845 802 865 988 1146 1241 1352 1403 1370 1325 1427 1537 1525 1410 1080 789 627 611 608 549
0 0 0 0 0 0 0 0 0 0 0 0 0 0 0 0 68 802 1163 1082 1168 1314 1409 1422 1197 1175 1204 1203 1095 872 792 835 942 1062 1201 1325 1360 1315 1320 1415 1505 1520 1229 748 525 528 571 546 392
0 0 0 0 0 0 0 0 0 0 0 0 0 0 0 0 0 464 961 1099 1080 1256 1364 1445 1473 1347 1271 1308 1225 912 796 809 903 996 1121 1221 1254 1300 1367 1529 1512 1423 901 492 424 468 573 580 413
0 0 0 0 0 0 0 0 0 0 0 0 0 0 0 0 0 172 871 942 1059 1153 1352 1400 1544 1639 1586 1513 1279 1032 859 843 868 909 994 1067 1165 1299 1346 1518 1478 1276 787 388 328 347 500 532 514
0 0 0 0 0 0 0 0 0 0 0 0 0 0 0 0 0 20 521 900 773 865 1131 1300 1359 1419 1571 1464 1477 1195 988 884 908 921 917 959 1356 1432 1383 1411 1293 1143 732 343 241 289 406 425 353
0 0 0 0 0 0 0 0 0 0 0 0 0 0 0 0 0 0 187 990 624 600 795 1063 1183 1298 1359 1219 1423 1568 1455 1277 1281 1332 1299 1419 1394 1402 1473 1405 1166 1138 837 398 163 201 341 447 674
0 0 0 0 0 0 0 0 0 0 0 0 0 0 0 0 0 0 2 637 637 570 752 944 1036 1215 1013 930 1206 1385 1451 1464 1489 1469 1505 1485 1414 1288 1224 1537 1454 1399 1068 892 397 304 509 686 634
0 0 0 0 0 0 0 0 0 0 0 0 0 0 0 0 0 0 0 66 167 105 427 822 1003 968 870 971 1049 1168 1188 1184 1221 1258 1246 1231 1195 1310 1345 1283 1610 1484 1262 1148 971 826 585 494 255
0 0 0 0 0 0 0 0 0 0 0 0 0 0 0 0 0 0 0 0 110 5 163 492 739 799 798 1009 931 955 1035 1206 1123 1129 1072 1132 992 1027 1147 1312 1403 1453 1259 1127 878 663 458 354 286
0 0 0 0 0 0 0 0 0 0 0 0 0 0 0 0 0 0 0 0 0 58 10 353 493 566 621 812 959 937 962 1016 1083 1106 1082 1035 1012 936 940 1039 1212 1299 1252 1031 907 605 421 346 285
0 0 0 0 0 0 0 0 0 0 0 0 0 0 0 0 0 0 0 0 6 75 96 55 282 485 526 733 903 849 760 856 859 915 1056 1026 1024 919 830 809 944 1165 1149 1009 878 667 411 325 234
0 0 0 0 0 0 0 0 0 0 0 0 0 0 0 0 0 0 0 0 0 262 391 89 197 390 688 711 686 702 822 678 718 641 756 975 1016 904 717 685 745 1006 993 988 825 692 537 417 279
0 0 0 0 0 0 0 0 0 0 0 0 0 0 0 0 0 0 0 0 0 13 665 341 169 299 627 750 535 463 489 497 466 422 498 747 839 709 637 610 732 834 872 764 759 583 593 347 197
0 0 0 0 0 0 0 0 0 0 0 0 0 0 0 0 0 0 0 0 0 0 766 885 392 237 556 845 729 554 387 350 327 304 382 546 608 585 602 989 567 778 781 687 619 534 444 395 356
0 0 0 0 0 0 0 0 0 0 0 0 0 0 0 0 0 0 0 0 0 0 470 1261 1003 482 500 618 568 509 316 450 467 549 669 652 659 521 844 724 743 728 652 588 528 564 421 270 156
0 0 0 0 0 0 0 0 0 0 0 0 0 0 0 0 0 0 0 0 0 0 134 1169 1502 1200 627 496 651 659 599 619 615 614 695 641 715 648 711 646 633 587 589 563 490 511 355 302 145
0 0 0 0 0 0 0 0 0 0 0 0 0 0 0 0 0 0 0 0 0 0 0 669 1368 1626 1308 1018 948 812 887 770 701 562 592 617 672 718 731 699 562 529 652 594 506 579 646 353 163
0 0 0 0 0 0 0 0 0 0 0 0 0 0 0 0 0 0 0 0 0 0 0 23 1171 1702 1764 1595 1402 1119 1030 1010 962 836 694 746 832 815 776 830 767 671 722 799 678 590 696 554 293
0 0 0 0 0 0 0 0 0 0 0 0 0 0 0 5 0 0 0 0 0 0 0 0 780 1323 1729 1829 1768 1590 1584 1641 1560 1247 944 1064 956 761 573 399 381 611 663 900 797 695 748 722 584
0 0 0 0 1 0 0 0 0 0 1 2 4 3 5 0 0 0 0 0 0 0 0 0 0 0 49 631 1315 1661 1494 1308 1302 1339 1025 928 756 244 42 0 0 41 523 774 767 777 716 746 638
0 0 0 0 0 0 0 0 0 1 1 1 2 0 5 4 4 2 2 1 1 1 0 0 0 0 0 0 0 1 47 287 719 788 646 667 185 103 53 6 0 13 391 752 719 582 558 616 452
0 1 0 0 0 0 0 0 0 0 2 1 2 1 3 3 3 3 2 2 2 0 0 0 0 0 0 0 0 0 0 0 0 0 0 1 22 137 71 10 21 110 581 612 600 680 570 497 411
0 0 0 0 0 1 0 0 0 0 0 0 0 2 1 3 4 4 3 3 3 1 0 0 0 0 0 0 0 0 0 0 0 0 0 0 0 0 0 87 324 419 648 704 589 509 527 365 315
0 1 0 0 0 0 0 0 0 1 0 1 0 1 1 1 3 4 4 3 2 1 0 0 0 0 0 0 0 0 0 0 0 0 0 0 0 0 0 0 0 18 65 229 313 203 218 260 195
0 2 3 0 0 1 0 0 0 0 1 0 0 1 1 1 2 3 3 3 3 2 2 1 0 0 0 0 0 0 0 0 0 0 0 0 0 0 0 0 0 0 1 11 107 101 89 60 120
0 0 3 0 0 0 0 0 0 0 1 0 1 1 1 1 1 1 3 3 3 3 2 3 2 1 0 0 0 0 0 0 0 0 0 0 0 0 0 0 0 0 0 0 8 12 7 4 3